<?xml version="1.0" encoding="UTF-8" standalone="no" ?>
<gpx xmlns="http://www.topografix.com/GPX/1/1" creator="MapSource 6.16.3" version="1.1" xmlns:xsi="http://www.w3.org/2001/XMLSchema-instance" xsi:schemaLocation="http://www.topografix.com/GPX/1/1 http://www.topografix.com/GPX/1/1/gpx.xsd">

  <metadata>
    <link href="http://www.garmin.com">
      <text>Garmin International</text>
    </link>
    <time>2012-07-10T06:50:13Z</time>
    <bounds maxlat="45.260418187826872" maxlon="6.969571514055133" minlat="45.21549261175096" minlon="6.882909424602985"/>
  </metadata>

  <trk>
    <name>Untitled</name>
    <extensions>
      <gpxx:TrackExtension xmlns:gpxx="http://www.garmin.com/xmlschemas/GpxExtensions/v3">
        <gpxx:DisplayColor>Magenta</gpxx:DisplayColor>
      </gpxx:TrackExtension>
    </extensions>
    <trkseg>
      <trkpt lat="45.237888637930155" lon="6.953655453398824">
        <ele>2093</ele>
        <time>2012-06-17T08:20:29Z</time>
      </trkpt>
      <trkpt lat="45.23771102540195" lon="6.953831976279616">
        <ele>2094.60009765625</ele>
        <time>2012-06-17T08:20:36Z</time>
      </trkpt>
      <trkpt lat="45.237467279657722" lon="6.953965835273266">
        <ele>2094.39990234375</ele>
        <time>2012-06-17T08:20:44Z</time>
      </trkpt>
      <trkpt lat="45.237144324928522" lon="6.954145124182105">
        <ele>2093.39990234375</ele>
        <time>2012-06-17T08:20:54Z</time>
      </trkpt>
      <trkpt lat="45.23684274405241" lon="6.954324832186103">
        <ele>2092.60009765625</ele>
        <time>2012-06-17T08:21:03Z</time>
      </trkpt>
      <trkpt lat="45.236538061872125" lon="6.954607637599111">
        <ele>2092.199951171875</ele>
        <time>2012-06-17T08:21:12Z</time>
      </trkpt>
      <trkpt lat="45.236166911199689" lon="6.955009298399091">
        <ele>2093.60009765625</ele>
        <time>2012-06-17T08:21:23Z</time>
      </trkpt>
      <trkpt lat="45.235988041386008" lon="6.955165369436145">
        <ele>2094</ele>
        <time>2012-06-17T08:21:28Z</time>
      </trkpt>
      <trkpt lat="45.235873712226748" lon="6.955224126577377">
        <ele>2093.39990234375</ele>
        <time>2012-06-17T08:21:31Z</time>
      </trkpt>
      <trkpt lat="45.235619237646461" lon="6.955294366925955">
        <ele>2089.800048828125</ele>
        <time>2012-06-17T08:21:38Z</time>
      </trkpt>
      <trkpt lat="45.235424777492881" lon="6.955426381900907">
        <ele>2089.39990234375</ele>
        <time>2012-06-17T08:21:44Z</time>
      </trkpt>
      <trkpt lat="45.235211960971355" lon="6.955702314153314">
        <ele>2093.60009765625</ele>
        <time>2012-06-17T08:21:52Z</time>
      </trkpt>
      <trkpt lat="45.23493954911828" lon="6.955964583903551">
        <ele>2095.199951171875</ele>
        <time>2012-06-17T08:22:00Z</time>
      </trkpt>
      <trkpt lat="45.234622545540333" lon="6.956156445667148">
        <ele>2091.199951171875</ele>
        <time>2012-06-17T08:22:08Z</time>
      </trkpt>
      <trkpt lat="45.234244605526328" lon="6.956380158662796">
        <ele>2087.39990234375</ele>
        <time>2012-06-17T08:22:16Z</time>
      </trkpt>
      <trkpt lat="45.233831545338035" lon="6.956618372350931">
        <ele>2082.199951171875</ele>
        <time>2012-06-17T08:22:23Z</time>
      </trkpt>
      <trkpt lat="45.233277669176459" lon="6.956972759217024">
        <ele>2076.800048828125</ele>
        <time>2012-06-17T08:22:31Z</time>
      </trkpt>
      <trkpt lat="45.23275095038116" lon="6.957270568236709">
        <ele>2069.800048828125</ele>
        <time>2012-06-17T08:22:37Z</time>
      </trkpt>
      <trkpt lat="45.232160529121757" lon="6.957587068900466">
        <ele>2061.800048828125</ele>
        <time>2012-06-17T08:22:43Z</time>
      </trkpt>
      <trkpt lat="45.232065562158823" lon="6.95765714161098">
        <ele>2060.39990234375</ele>
        <time>2012-06-17T08:22:44Z</time>
      </trkpt>
      <trkpt lat="45.231976881623268" lon="6.957744900137186">
        <ele>2060</ele>
        <time>2012-06-17T08:22:45Z</time>
      </trkpt>
      <trkpt lat="45.231731878593564" lon="6.958051845431328">
        <ele>2060.60009765625</ele>
        <time>2012-06-17T08:22:48Z</time>
      </trkpt>
      <trkpt lat="45.231372294947505" lon="6.958440262824297">
        <ele>2060.39990234375</ele>
        <time>2012-06-17T08:22:52Z</time>
      </trkpt>
      <trkpt lat="45.231261653825641" lon="6.958499606698751">
        <ele>2058.60009765625</ele>
        <time>2012-06-17T08:22:53Z</time>
      </trkpt>
      <trkpt lat="45.230708699673414" lon="6.958771347999573">
        <ele>2049.39990234375</ele>
        <time>2012-06-17T08:22:58Z</time>
      </trkpt>
      <trkpt lat="45.230186926200986" lon="6.959123723208904">
        <ele>2040.800048828125</ele>
        <time>2012-06-17T08:23:03Z</time>
      </trkpt>
      <trkpt lat="45.229918705299497" lon="6.959426226094365">
        <ele>2039</ele>
        <time>2012-06-17T08:23:06Z</time>
      </trkpt>
      <trkpt lat="45.22985483519733" lon="6.959557821974158">
        <ele>2039.199951171875</ele>
        <time>2012-06-17T08:23:07Z</time>
      </trkpt>
      <trkpt lat="45.229543782770634" lon="6.960211275145412">
        <ele>2040</ele>
        <time>2012-06-17T08:23:12Z</time>
      </trkpt>
      <trkpt lat="45.229223510250449" lon="6.960853412747383">
        <ele>2041.800048828125</ele>
        <time>2012-06-17T08:23:17Z</time>
      </trkpt>
      <trkpt lat="45.229040533304214" lon="6.961253816261888">
        <ele>2042.199951171875</ele>
        <time>2012-06-17T08:23:20Z</time>
      </trkpt>
      <trkpt lat="45.22872269153595" lon="6.961897294968367">
        <ele>2040.199951171875</ele>
        <time>2012-06-17T08:23:25Z</time>
      </trkpt>
      <trkpt lat="45.228451369330287" lon="6.962375734001398">
        <ele>2034.4000244140625</ele>
        <time>2012-06-17T08:23:29Z</time>
      </trkpt>
      <trkpt lat="45.228179628029466" lon="6.963021643459797">
        <ele>2038</ele>
        <time>2012-06-17T08:23:34Z</time>
      </trkpt>
      <trkpt lat="45.227973349392414" lon="6.963468566536903">
        <ele>2041</ele>
        <time>2012-06-17T08:23:38Z</time>
      </trkpt>
      <trkpt lat="45.227909982204437" lon="6.963553810492158">
        <ele>2040.4000244140625</ele>
        <time>2012-06-17T08:23:39Z</time>
      </trkpt>
      <trkpt lat="45.227688448503613" lon="6.963821528479457">
        <ele>2036.800048828125</ele>
        <time>2012-06-17T08:23:43Z</time>
      </trkpt>
      <trkpt lat="45.227523157373071" lon="6.964008528739214">
        <ele>2033.4000244140625</ele>
        <time>2012-06-17T08:23:47Z</time>
      </trkpt>
      <trkpt lat="45.227335570380092" lon="6.964246826246381">
        <ele>2034</ele>
        <time>2012-06-17T08:23:53Z</time>
      </trkpt>
      <trkpt lat="45.227155275642872" lon="6.964468192309141">
        <ele>2035.4000244140625</ele>
        <time>2012-06-17T08:24:00Z</time>
      </trkpt>
      <trkpt lat="45.227000126615167" lon="6.964743034914136">
        <ele>2037.5999755859375</ele>
        <time>2012-06-17T08:24:08Z</time>
      </trkpt>
      <trkpt lat="45.226843385025859" lon="6.965064145624638">
        <ele>2040</ele>
        <time>2012-06-17T08:24:18Z</time>
      </trkpt>
      <trkpt lat="45.226706592366099" lon="6.965369498357177">
        <ele>2041.4000244140625</ele>
        <time>2012-06-17T08:24:27Z</time>
      </trkpt>
      <trkpt lat="45.226603243499994" lon="6.965701589360833">
        <ele>2043</ele>
        <time>2012-06-17T08:24:37Z</time>
      </trkpt>
      <trkpt lat="45.226565524935722" lon="6.965964529663324">
        <ele>2044.4000244140625</ele>
        <time>2012-06-17T08:24:46Z</time>
      </trkpt>
      <trkpt lat="45.226561333984137" lon="6.966118589043617">
        <ele>2045.4000244140625</ele>
        <time>2012-06-17T08:24:52Z</time>
      </trkpt>
      <trkpt lat="45.226572565734386" lon="6.966141471639276">
        <ele>2045.800048828125</ele>
        <time>2012-06-17T08:24:53Z</time>
      </trkpt>
      <trkpt lat="45.226643141359091" lon="6.966344062238932">
        <ele>2049.39990234375</ele>
        <time>2012-06-17T08:25:01Z</time>
      </trkpt>
      <trkpt lat="45.22665680386126" lon="6.966406675055623">
        <ele>2050.199951171875</ele>
        <time>2012-06-17T08:25:04Z</time>
      </trkpt>
      <trkpt lat="45.226659569889307" lon="6.966470964252949">
        <ele>2050.60009765625</ele>
        <time>2012-06-17T08:25:07Z</time>
      </trkpt>
      <trkpt lat="45.226701311767101" lon="6.966614713892341">
        <ele>2053</ele>
        <time>2012-06-17T08:25:15Z</time>
      </trkpt>
      <trkpt lat="45.22671589627862" lon="6.966744130477309">
        <ele>2056</ele>
        <time>2012-06-17T08:25:21Z</time>
      </trkpt>
      <trkpt lat="45.226693097501993" lon="6.966882599517703">
        <ele>2058.60009765625</ele>
        <time>2012-06-17T08:25:28Z</time>
      </trkpt>
      <trkpt lat="45.22660743445158" lon="6.967041101306677">
        <ele>2060.199951171875</ele>
        <time>2012-06-17T08:25:37Z</time>
      </trkpt>
      <trkpt lat="45.22648329846561" lon="6.967168925330043">
        <ele>2059.800048828125</ele>
        <time>2012-06-17T08:25:47Z</time>
      </trkpt>
      <trkpt lat="45.226377435028553" lon="6.967255929484963">
        <ele>2059</ele>
        <time>2012-06-17T08:25:55Z</time>
      </trkpt>
      <trkpt lat="45.226282216608524" lon="6.967395823448896">
        <ele>2059.39990234375</ele>
        <time>2012-06-17T08:26:04Z</time>
      </trkpt>
      <trkpt lat="45.226277941837907" lon="6.96741652674973">
        <ele>2059.800048828125</ele>
        <time>2012-06-17T08:26:05Z</time>
      </trkpt>
      <trkpt lat="45.226268218830228" lon="6.967588271945715">
        <ele>2064.199951171875</ele>
        <time>2012-06-17T08:26:13Z</time>
      </trkpt>
      <trkpt lat="45.226251035928726" lon="6.967755658552051">
        <ele>2068.39990234375</ele>
        <time>2012-06-17T08:26:21Z</time>
      </trkpt>
      <trkpt lat="45.226223124191165" lon="6.967881806194782">
        <ele>2071</ele>
        <time>2012-06-17T08:26:28Z</time>
      </trkpt>
      <trkpt lat="45.226163612678647" lon="6.968056568875909">
        <ele>2074</ele>
        <time>2012-06-17T08:26:38Z</time>
      </trkpt>
      <trkpt lat="45.2260503731668" lon="6.968169808387756">
        <ele>2073</ele>
        <time>2012-06-17T08:26:48Z</time>
      </trkpt>
      <trkpt lat="45.225965967401862" lon="6.968272738158703">
        <ele>2072.39990234375</ele>
        <time>2012-06-17T08:26:56Z</time>
      </trkpt>
      <trkpt lat="45.225892625749111" lon="6.968385307118297">
        <ele>2073.199951171875</ele>
        <time>2012-06-17T08:27:04Z</time>
      </trkpt>
      <trkpt lat="45.225833784788847" lon="6.968495864421129">
        <ele>2074.800048828125</ele>
        <time>2012-06-17T08:27:11Z</time>
      </trkpt>
      <trkpt lat="45.225728675723076" lon="6.968624610453844">
        <ele>2077</ele>
        <time>2012-06-17T08:27:21Z</time>
      </trkpt>
      <trkpt lat="45.225623566657305" lon="6.968730976805091">
        <ele>2078.199951171875</ele>
        <time>2012-06-17T08:27:30Z</time>
      </trkpt>
      <trkpt lat="45.225493898615241" lon="6.968851676210761">
        <ele>2078.800048828125</ele>
        <time>2012-06-17T08:27:40Z</time>
      </trkpt>
      <trkpt lat="45.225414605811238" lon="6.968974303454161">
        <ele>2080.60009765625</ele>
        <time>2012-06-17T08:27:48Z</time>
      </trkpt>
      <trkpt lat="45.225290721282363" lon="6.969148647040129">
        <ele>2082.199951171875</ele>
        <time>2012-06-17T08:28:00Z</time>
      </trkpt>
      <trkpt lat="45.225177146494389" lon="6.969233304262161">
        <ele>2081.39990234375</ele>
        <time>2012-06-17T08:28:08Z</time>
      </trkpt>
      <trkpt lat="45.225061224773526" lon="6.969343107193708">
        <ele>2081.199951171875</ele>
        <time>2012-06-17T08:28:17Z</time>
      </trkpt>
      <trkpt lat="45.224969359114766" lon="6.969456262886524">
        <ele>2082</ele>
        <time>2012-06-17T08:28:25Z</time>
      </trkpt>
      <trkpt lat="45.224935999140143" lon="6.969546368345618">
        <ele>2083.800048828125</ele>
        <time>2012-06-17T08:28:30Z</time>
      </trkpt>
      <trkpt lat="45.224957289174199" lon="6.969571514055133">
        <ele>2085</ele>
        <time>2012-06-17T08:28:32Z</time>
      </trkpt>
      <trkpt lat="45.22502132691443" lon="6.96951569058001">
        <ele>2085.199951171875</ele>
        <time>2012-06-17T08:28:37Z</time>
      </trkpt>
      <trkpt lat="45.225033983588219" lon="6.969501106068492">
        <ele>2085.199951171875</ele>
        <time>2012-06-17T08:28:38Z</time>
      </trkpt>
      <trkpt lat="45.225106570869684" lon="6.969404127448797">
        <ele>2084.60009765625</ele>
        <time>2012-06-17T08:28:45Z</time>
      </trkpt>
      <trkpt lat="45.225227270275354" lon="6.969302706420422">
        <ele>2085.199951171875</ele>
        <time>2012-06-17T08:28:54Z</time>
      </trkpt>
      <trkpt lat="45.225335815921426" lon="6.969251660630107">
        <ele>2087</ele>
        <time>2012-06-17T08:29:02Z</time>
      </trkpt>
      <trkpt lat="45.225459784269333" lon="6.969242691993713">
        <ele>2090.39990234375</ele>
        <time>2012-06-17T08:29:10Z</time>
      </trkpt>
      <trkpt lat="45.225555086508393" lon="6.969171613454819">
        <ele>2090.800048828125</ele>
        <time>2012-06-17T08:29:18Z</time>
      </trkpt>
      <trkpt lat="45.225642509758472" lon="6.969079161062837">
        <ele>2090.39990234375</ele>
        <time>2012-06-17T08:29:26Z</time>
      </trkpt>
      <trkpt lat="45.225787265226245" lon="6.969002718105912">
        <ele>2091.800048828125</ele>
        <time>2012-06-17T08:29:36Z</time>
      </trkpt>
      <trkpt lat="45.225899666547775" lon="6.968950079753995">
        <ele>2093.800048828125</ele>
        <time>2012-06-17T08:29:44Z</time>
      </trkpt>
      <trkpt lat="45.226000836119056" lon="6.968903224915266">
        <ele>2096</ele>
        <time>2012-06-17T08:29:52Z</time>
      </trkpt>
      <trkpt lat="45.226109130308032" lon="6.968846144154668">
        <ele>2098.199951171875</ele>
        <time>2012-06-17T08:30:00Z</time>
      </trkpt>
      <trkpt lat="45.226218681782484" lon="6.968800965696573">
        <ele>2100.800048828125</ele>
        <time>2012-06-17T08:30:09Z</time>
      </trkpt>
      <trkpt lat="45.226310715079308" lon="6.968760397285223">
        <ele>2103</ele>
        <time>2012-06-17T08:30:17Z</time>
      </trkpt>
      <trkpt lat="45.226418087258935" lon="6.968713207170367">
        <ele>2105.39990234375</ele>
        <time>2012-06-17T08:30:26Z</time>
      </trkpt>
      <trkpt lat="45.226547922939062" lon="6.968681355938315">
        <ele>2109.39990234375</ele>
        <time>2012-06-17T08:30:35Z</time>
      </trkpt>
      <trkpt lat="45.226635010913014" lon="6.968646654859185">
        <ele>2111.39990234375</ele>
        <time>2012-06-17T08:30:42Z</time>
      </trkpt>
      <trkpt lat="45.226729726418853" lon="6.968605080619454">
        <ele>2114.199951171875</ele>
        <time>2012-06-17T08:30:50Z</time>
      </trkpt>
      <trkpt lat="45.226842630654573" lon="6.968545736745">
        <ele>2117.199951171875</ele>
        <time>2012-06-17T08:30:59Z</time>
      </trkpt>
      <trkpt lat="45.226919408887625" lon="6.968455296009779">
        <ele>2117.39990234375</ele>
        <time>2012-06-17T08:31:06Z</time>
      </trkpt>
      <trkpt lat="45.227004066109657" lon="6.968323783949018">
        <ele>2116.39990234375</ele>
        <time>2012-06-17T08:31:15Z</time>
      </trkpt>
      <trkpt lat="45.227071205154061" lon="6.968199480324984">
        <ele>2114.800048828125</ele>
        <time>2012-06-17T08:31:23Z</time>
      </trkpt>
      <trkpt lat="45.227131135761738" lon="6.968107363209128">
        <ele>2114</ele>
        <time>2012-06-17T08:31:30Z</time>
      </trkpt>
      <trkpt lat="45.227191150188446" lon="6.968045840039849">
        <ele>2114.199951171875</ele>
        <time>2012-06-17T08:31:36Z</time>
      </trkpt>
      <trkpt lat="45.227267425507307" lon="6.968007115647197">
        <ele>2116</ele>
        <time>2012-06-17T08:31:43Z</time>
      </trkpt>
      <trkpt lat="45.227351579815149" lon="6.967942491173744">
        <ele>2117</ele>
        <time>2012-06-17T08:31:51Z</time>
      </trkpt>
      <trkpt lat="45.227443696931005" lon="6.967871831730008">
        <ele>2117.800048828125</ele>
        <time>2012-06-17T08:32:00Z</time>
      </trkpt>
      <trkpt lat="45.227525755763054" lon="6.967815086245537">
        <ele>2118.800048828125</ele>
        <time>2012-06-17T08:32:08Z</time>
      </trkpt>
      <trkpt lat="45.227599097415805" lon="6.967761274427176">
        <ele>2120</ele>
        <time>2012-06-17T08:32:15Z</time>
      </trkpt>
      <trkpt lat="45.227690460160375" lon="6.967695476487279">
        <ele>2121.39990234375</ele>
        <time>2012-06-17T08:32:23Z</time>
      </trkpt>
      <trkpt lat="45.227765897288918" lon="6.967645101249218">
        <ele>2122.60009765625</ele>
        <time>2012-06-17T08:32:30Z</time>
      </trkpt>
      <trkpt lat="45.227837981656194" lon="6.967555331066251">
        <ele>2122</ele>
        <time>2012-06-17T08:32:37Z</time>
      </trkpt>
      <trkpt lat="45.227901097387075" lon="6.967477463185787">
        <ele>2121.800048828125</ele>
        <time>2012-06-17T08:32:44Z</time>
      </trkpt>
      <trkpt lat="45.227980893105268" lon="6.967415604740381">
        <ele>2123.800048828125</ele>
        <time>2012-06-17T08:32:52Z</time>
      </trkpt>
      <trkpt lat="45.228043757379055" lon="6.967389788478613">
        <ele>2126</ele>
        <time>2012-06-17T08:32:58Z</time>
      </trkpt>
      <trkpt lat="45.22811877541244" lon="6.967360619455576">
        <ele>2128.60009765625</ele>
        <time>2012-06-17T08:33:04Z</time>
      </trkpt>
      <trkpt lat="45.228205109015107" lon="6.967294570058584">
        <ele>2130.800048828125</ele>
        <time>2012-06-17T08:33:12Z</time>
      </trkpt>
      <trkpt lat="45.228245845064521" lon="6.967255426570773">
        <ele>2131.60009765625</ele>
        <time>2012-06-17T08:33:16Z</time>
      </trkpt>
      <trkpt lat="45.22833863273263" lon="6.967161297798157">
        <ele>2133.199951171875</ele>
        <time>2012-06-17T08:33:26Z</time>
      </trkpt>
      <trkpt lat="45.228420356288552" lon="6.967094326391816">
        <ele>2135</ele>
        <time>2012-06-17T08:33:34Z</time>
      </trkpt>
      <trkpt lat="45.228476682677865" lon="6.967039844021201">
        <ele>2136</ele>
        <time>2012-06-17T08:33:41Z</time>
      </trkpt>
      <trkpt lat="45.228528315201402" lon="6.966959293931723">
        <ele>2136.39990234375</ele>
        <time>2012-06-17T08:33:48Z</time>
      </trkpt>
      <trkpt lat="45.228555304929614" lon="6.966885197907686">
        <ele>2136</ele>
        <time>2012-06-17T08:33:53Z</time>
      </trkpt>
      <trkpt lat="45.22857366129756" lon="6.966747064143419">
        <ele>2133.60009765625</ele>
        <time>2012-06-17T08:34:01Z</time>
      </trkpt>
      <trkpt lat="45.228603668510914" lon="6.966619407758117">
        <ele>2132.60009765625</ele>
        <time>2012-06-17T08:34:09Z</time>
      </trkpt>
      <trkpt lat="45.22864943370223" lon="6.966457972303033">
        <ele>2132.199951171875</ele>
        <time>2012-06-17T08:34:19Z</time>
      </trkpt>
      <trkpt lat="45.228701317682862" lon="6.966319335624576">
        <ele>2132.60009765625</ele>
        <time>2012-06-17T08:34:27Z</time>
      </trkpt>
      <trkpt lat="45.228726966306567" lon="6.966240797191858">
        <ele>2132.60009765625</ele>
        <time>2012-06-17T08:34:32Z</time>
      </trkpt>
      <trkpt lat="45.228783041238785" lon="6.966108530759811">
        <ele>2133.60009765625</ele>
        <time>2012-06-17T08:34:41Z</time>
      </trkpt>
      <trkpt lat="45.228850096464157" lon="6.965995794162154">
        <ele>2135.60009765625</ele>
        <time>2012-06-17T08:34:50Z</time>
      </trkpt>
      <trkpt lat="45.228923941031098" lon="6.965904515236616">
        <ele>2138.39990234375</ele>
        <time>2012-06-17T08:34:58Z</time>
      </trkpt>
      <trkpt lat="45.229000551626086" lon="6.965871155261993">
        <ele>2142.199951171875</ele>
        <time>2012-06-17T08:35:05Z</time>
      </trkpt>
      <trkpt lat="45.229097027331591" lon="6.965860510244966">
        <ele>2147.39990234375</ele>
        <time>2012-06-17T08:35:13Z</time>
      </trkpt>
      <trkpt lat="45.22917615249753" lon="6.965770907700062">
        <ele>2150.60009765625</ele>
        <time>2012-06-17T08:35:21Z</time>
      </trkpt>
      <trkpt lat="45.229190653190017" lon="6.965686166658998">
        <ele>2150.39990234375</ele>
        <time>2012-06-17T08:35:26Z</time>
      </trkpt>
      <trkpt lat="45.229211105033755" lon="6.965540070086718">
        <ele>2149.39990234375</ele>
        <time>2012-06-17T08:35:34Z</time>
      </trkpt>
      <trkpt lat="45.229220828041434" lon="6.965403109788895">
        <ele>2148.199951171875</ele>
        <time>2012-06-17T08:35:42Z</time>
      </trkpt>
      <trkpt lat="45.229225270450115" lon="6.965267658233643">
        <ele>2146.800048828125</ele>
        <time>2012-06-17T08:35:50Z</time>
      </trkpt>
      <trkpt lat="45.229245135560632" lon="6.965133212506771">
        <ele>2146</ele>
        <time>2012-06-17T08:35:58Z</time>
      </trkpt>
      <trkpt lat="45.229280926287174" lon="6.964997928589582">
        <ele>2145.800048828125</ele>
        <time>2012-06-17T08:36:06Z</time>
      </trkpt>
      <trkpt lat="45.229323757812381" lon="6.964859962463379">
        <ele>2145.39990234375</ele>
        <time>2012-06-17T08:36:14Z</time>
      </trkpt>
      <trkpt lat="45.229371953755617" lon="6.964726354926825">
        <ele>2145.60009765625</ele>
        <time>2012-06-17T08:36:22Z</time>
      </trkpt>
      <trkpt lat="45.229417132213712" lon="6.964529044926167">
        <ele>2144.800048828125</ele>
        <time>2012-06-17T08:36:33Z</time>
      </trkpt>
      <trkpt lat="45.229461723938584" lon="6.964387390762568">
        <ele>2145</ele>
        <time>2012-06-17T08:36:41Z</time>
      </trkpt>
      <trkpt lat="45.229512434452772" lon="6.964200725778937">
        <ele>2144.800048828125</ele>
        <time>2012-06-17T08:36:51Z</time>
      </trkpt>
      <trkpt lat="45.229541854932904" lon="6.964051360264421">
        <ele>2143.60009765625</ele>
        <time>2012-06-17T08:36:59Z</time>
      </trkpt>
      <trkpt lat="45.229607904329896" lon="6.963875005021691">
        <ele>2143.39990234375</ele>
        <time>2012-06-17T08:37:09Z</time>
      </trkpt>
      <trkpt lat="45.22967210970819" lon="6.96372932754457">
        <ele>2144</ele>
        <time>2012-06-17T08:37:17Z</time>
      </trkpt>
      <trkpt lat="45.229747211560607" lon="6.96358080022037">
        <ele>2145</ele>
        <time>2012-06-17T08:37:26Z</time>
      </trkpt>
      <trkpt lat="45.229868665337563" lon="6.963487425819039">
        <ele>2149.800048828125</ele>
        <time>2012-06-17T08:37:36Z</time>
      </trkpt>
      <trkpt lat="45.229964470490813" lon="6.963449707254767">
        <ele>2154.199951171875</ele>
        <time>2012-06-17T08:37:43Z</time>
      </trkpt>
      <trkpt lat="45.230051809921861" lon="6.963403439149261">
        <ele>2156</ele>
        <time>2012-06-17T08:37:50Z</time>
      </trkpt>
      <trkpt lat="45.230158176273108" lon="6.963355327025056">
        <ele>2156.60009765625</ele>
        <time>2012-06-17T08:37:59Z</time>
      </trkpt>
      <trkpt lat="45.230242162942886" lon="6.963404361158609">
        <ele>2158.60009765625</ele>
        <time>2012-06-17T08:38:06Z</time>
      </trkpt>
      <trkpt lat="45.230305781587958" lon="6.963526234030724">
        <ele>2162</ele>
        <time>2012-06-17T08:38:14Z</time>
      </trkpt>
      <trkpt lat="45.230330340564251" lon="6.963653052225709">
        <ele>2165</ele>
        <time>2012-06-17T08:38:21Z</time>
      </trkpt>
      <trkpt lat="45.230347523465753" lon="6.963676353916526">
        <ele>2165.800048828125</ele>
        <time>2012-06-17T08:38:23Z</time>
      </trkpt>
      <trkpt lat="45.230387840420008" lon="6.963695883750916">
        <ele>2166.800048828125</ele>
        <time>2012-06-17T08:38:26Z</time>
      </trkpt>
      <trkpt lat="45.230491608381271" lon="6.963773248717189">
        <ele>2170.199951171875</ele>
        <time>2012-06-17T08:38:35Z</time>
      </trkpt>
      <trkpt lat="45.230570901185274" lon="6.963832005858421">
        <ele>2173</ele>
        <time>2012-06-17T08:38:42Z</time>
      </trkpt>
      <trkpt lat="45.23065228946507" lon="6.963794119656086">
        <ele>2173.60009765625</ele>
        <time>2012-06-17T08:38:48Z</time>
      </trkpt>
      <trkpt lat="45.230763349682093" lon="6.963706947863102">
        <ele>2173.199951171875</ele>
        <time>2012-06-17T08:38:57Z</time>
      </trkpt>
      <trkpt lat="45.230865860357881" lon="6.963705439120531">
        <ele>2174.800048828125</ele>
        <time>2012-06-17T08:39:05Z</time>
      </trkpt>
      <trkpt lat="45.23094498552382" lon="6.963755479082465">
        <ele>2177</ele>
        <time>2012-06-17T08:39:12Z</time>
      </trkpt>
      <trkpt lat="45.231045819818974" lon="6.963834017515183">
        <ele>2180</ele>
        <time>2012-06-17T08:39:21Z</time>
      </trkpt>
      <trkpt lat="45.231145061552525" lon="6.96387056261301">
        <ele>2182.199951171875</ele>
        <time>2012-06-17T08:39:29Z</time>
      </trkpt>
      <trkpt lat="45.231244303286076" lon="6.963893780484796">
        <ele>2183.800048828125</ele>
        <time>2012-06-17T08:39:37Z</time>
      </trkpt>
      <trkpt lat="45.231333151459694" lon="6.963946837931871">
        <ele>2186.199951171875</ele>
        <time>2012-06-17T08:39:45Z</time>
      </trkpt>
      <trkpt lat="45.231413785368204" lon="6.963977012783289">
        <ele>2188</ele>
        <time>2012-06-17T08:39:52Z</time>
      </trkpt>
      <trkpt lat="45.231509087607265" lon="6.963912388309836">
        <ele>2187.39990234375</ele>
        <time>2012-06-17T08:39:59Z</time>
      </trkpt>
      <trkpt lat="45.23159391246736" lon="6.963785570114851">
        <ele>2185.199951171875</ele>
        <time>2012-06-17T08:40:07Z</time>
      </trkpt>
      <trkpt lat="45.231634229421616" lon="6.963627655059099">
        <ele>2181.39990234375</ele>
        <time>2012-06-17T08:40:15Z</time>
      </trkpt>
      <trkpt lat="45.231696674600244" lon="6.963470662012696">
        <ele>2178.60009765625</ele>
        <time>2012-06-17T08:40:23Z</time>
      </trkpt>
      <trkpt lat="45.231820056214929" lon="6.963373012840748">
        <ele>2180</ele>
        <time>2012-06-17T08:40:31Z</time>
      </trkpt>
      <trkpt lat="45.231898846104741" lon="6.96329103782773">
        <ele>2180.60009765625</ele>
        <time>2012-06-17T08:40:37Z</time>
      </trkpt>
      <trkpt lat="45.232011331245303" lon="6.963149467483163">
        <ele>2180.800048828125</ele>
        <time>2012-06-17T08:40:45Z</time>
      </trkpt>
      <trkpt lat="45.232137311249971" lon="6.963023319840431">
        <ele>2181.800048828125</ele>
        <time>2012-06-17T08:40:54Z</time>
      </trkpt>
      <trkpt lat="45.232262620702386" lon="6.963003873825073">
        <ele>2185.199951171875</ele>
        <time>2012-06-17T08:41:02Z</time>
      </trkpt>
      <trkpt lat="45.232387343421578" lon="6.962988954037428">
        <ele>2188.800048828125</ele>
        <time>2012-06-17T08:41:10Z</time>
      </trkpt>
      <trkpt lat="45.23243822157383" lon="6.96286347694695">
        <ele>2187.199951171875</ele>
        <time>2012-06-17T08:41:16Z</time>
      </trkpt>
      <trkpt lat="45.232526902109385" lon="6.962785357609391">
        <ele>2188</ele>
        <time>2012-06-17T08:41:22Z</time>
      </trkpt>
      <trkpt lat="45.232630418613553" lon="6.962683936581016">
        <ele>2188.39990234375</ele>
        <time>2012-06-17T08:41:29Z</time>
      </trkpt>
      <trkpt lat="45.232716836035252" lon="6.962458044290543">
        <ele>2185.199951171875</ele>
        <time>2012-06-17T08:41:39Z</time>
      </trkpt>
      <trkpt lat="45.232841810211539" lon="6.962268194183707">
        <ele>2183.800048828125</ele>
        <time>2012-06-17T08:41:49Z</time>
      </trkpt>
      <trkpt lat="45.232949433848262" lon="6.962101897224784">
        <ele>2182.60009765625</ele>
        <time>2012-06-17T08:41:58Z</time>
      </trkpt>
      <trkpt lat="45.233099469915032" lon="6.96195705793798">
        <ele>2183.60009765625</ele>
        <time>2012-06-17T08:42:08Z</time>
      </trkpt>
      <trkpt lat="45.233220085501671" lon="6.961847087368369">
        <ele>2184.800048828125</ele>
        <time>2012-06-17T08:42:16Z</time>
      </trkpt>
      <trkpt lat="45.233373558148742" lon="6.961780032142997">
        <ele>2187.39990234375</ele>
        <time>2012-06-17T08:42:25Z</time>
      </trkpt>
      <trkpt lat="45.233527533710003" lon="6.961766285821796">
        <ele>2189.39990234375</ele>
        <time>2012-06-17T08:42:34Z</time>
      </trkpt>
      <trkpt lat="45.233658291399479" lon="6.961803836748004">
        <ele>2192.199951171875</ele>
        <time>2012-06-17T08:42:43Z</time>
      </trkpt>
      <trkpt lat="45.233705481514335" lon="6.961800986900926">
        <ele>2192.800048828125</ele>
        <time>2012-06-17T08:42:47Z</time>
      </trkpt>
      <trkpt lat="45.233730375766754" lon="6.961769219487906">
        <ele>2192.39990234375</ele>
        <time>2012-06-17T08:42:49Z</time>
      </trkpt>
      <trkpt lat="45.233816541731358" lon="6.961665283888578">
        <ele>2191</ele>
        <time>2012-06-17T08:42:55Z</time>
      </trkpt>
      <trkpt lat="45.233893487602472" lon="6.961628906428814">
        <ele>2191.199951171875</ele>
        <time>2012-06-17T08:42:59Z</time>
      </trkpt>
      <trkpt lat="45.233933804556727" lon="6.961617926135659">
        <ele>2191.60009765625</ele>
        <time>2012-06-17T08:43:01Z</time>
      </trkpt>
      <trkpt lat="45.234059449285269" lon="6.961600324138999">
        <ele>2193.199951171875</ele>
        <time>2012-06-17T08:43:08Z</time>
      </trkpt>
      <trkpt lat="45.234129521995783" lon="6.961486749351025">
        <ele>2192.199951171875</ele>
        <time>2012-06-17T08:43:14Z</time>
      </trkpt>
      <trkpt lat="45.23418752476573" lon="6.961325062438846">
        <ele>2190.39990234375</ele>
        <time>2012-06-17T08:43:21Z</time>
      </trkpt>
      <trkpt lat="45.234290203079581" lon="6.96119774132967">
        <ele>2191</ele>
        <time>2012-06-17T08:43:28Z</time>
      </trkpt>
      <trkpt lat="45.234431019052863" lon="6.961107216775417">
        <ele>2193.199951171875</ele>
        <time>2012-06-17T08:43:37Z</time>
      </trkpt>
      <trkpt lat="45.234567644074559" lon="6.96101644076407">
        <ele>2195</ele>
        <time>2012-06-17T08:43:45Z</time>
      </trkpt>
      <trkpt lat="45.234679291024804" lon="6.960828853771091">
        <ele>2194.39990234375</ele>
        <time>2012-06-17T08:43:54Z</time>
      </trkpt>
      <trkpt lat="45.234811389818788" lon="6.960671776905656">
        <ele>2195</ele>
        <time>2012-06-17T08:44:03Z</time>
      </trkpt>
      <trkpt lat="45.234906608238816" lon="6.960524087771773">
        <ele>2194.60009765625</ele>
        <time>2012-06-17T08:44:10Z</time>
      </trkpt>
      <trkpt lat="45.235021775588393" lon="6.960394671186805">
        <ele>2195</ele>
        <time>2012-06-17T08:44:18Z</time>
      </trkpt>
      <trkpt lat="45.235138284042478" lon="6.960294172167778">
        <ele>2195.39990234375</ele>
        <time>2012-06-17T08:44:26Z</time>
      </trkpt>
      <trkpt lat="45.235278680920601" lon="6.960180178284645">
        <ele>2196</ele>
        <time>2012-06-17T08:44:36Z</time>
      </trkpt>
      <trkpt lat="45.235429052263498" lon="6.960080601274967">
        <ele>2196.800048828125</ele>
        <time>2012-06-17T08:44:46Z</time>
      </trkpt>
      <trkpt lat="45.235595516860485" lon="6.959999967366457">
        <ele>2198.39990234375</ele>
        <time>2012-06-17T08:44:56Z</time>
      </trkpt>
      <trkpt lat="45.235729459673166" lon="6.959963757544756">
        <ele>2200.199951171875</ele>
        <time>2012-06-17T08:45:04Z</time>
      </trkpt>
      <trkpt lat="45.235867174342275" lon="6.95986669510603">
        <ele>2200.39990234375</ele>
        <time>2012-06-17T08:45:12Z</time>
      </trkpt>
      <trkpt lat="45.236048642545938" lon="6.959805255755782">
        <ele>2201.60009765625</ele>
        <time>2012-06-17T08:45:21Z</time>
      </trkpt>
      <trkpt lat="45.23618551902473" lon="6.959803747013211">
        <ele>2203.60009765625</ele>
        <time>2012-06-17T08:45:28Z</time>
      </trkpt>
      <trkpt lat="45.236336980015039" lon="6.959790755063295">
        <ele>2205.39990234375</ele>
        <time>2012-06-17T08:45:36Z</time>
      </trkpt>
      <trkpt lat="45.236518364399672" lon="6.959789078682661">
        <ele>2208</ele>
        <time>2012-06-17T08:45:46Z</time>
      </trkpt>
      <trkpt lat="45.236632945016026" lon="6.959798382595182">
        <ele>2210</ele>
        <time>2012-06-17T08:45:53Z</time>
      </trkpt>
      <trkpt lat="45.236775940284133" lon="6.959770889952779">
        <ele>2211.199951171875</ele>
        <time>2012-06-17T08:46:01Z</time>
      </trkpt>
      <trkpt lat="45.236914660781622" lon="6.959745828062296">
        <ele>2212.199951171875</ele>
        <time>2012-06-17T08:46:09Z</time>
      </trkpt>
      <trkpt lat="45.237037874758244" lon="6.959627727046609">
        <ele>2210.800048828125</ele>
        <time>2012-06-17T08:46:17Z</time>
      </trkpt>
      <trkpt lat="45.237153461202979" lon="6.959507279098034">
        <ele>2209.199951171875</ele>
        <time>2012-06-17T08:46:25Z</time>
      </trkpt>
      <trkpt lat="45.237268963828683" lon="6.959481546655297">
        <ele>2209.800048828125</ele>
        <time>2012-06-17T08:46:32Z</time>
      </trkpt>
      <trkpt lat="45.237429728731513" lon="6.959427734836936">
        <ele>2210.199951171875</ele>
        <time>2012-06-17T08:46:41Z</time>
      </trkpt>
      <trkpt lat="45.237569371238351" lon="6.959360595792532">
        <ele>2210.199951171875</ele>
        <time>2012-06-17T08:46:50Z</time>
      </trkpt>
      <trkpt lat="45.237660901620984" lon="6.959339808672667">
        <ele>2210.800048828125</ele>
        <time>2012-06-17T08:46:57Z</time>
      </trkpt>
      <trkpt lat="45.237766010686755" lon="6.959320278838277">
        <ele>2211.800048828125</ele>
        <time>2012-06-17T08:47:05Z</time>
      </trkpt>
      <trkpt lat="45.237865839153528" lon="6.959332851693034">
        <ele>2213.60009765625</ele>
        <time>2012-06-17T08:47:12Z</time>
      </trkpt>
      <trkpt lat="45.237970193848014" lon="6.959317261353135">
        <ele>2214.60009765625</ele>
        <time>2012-06-17T08:47:19Z</time>
      </trkpt>
      <trkpt lat="45.238109836354852" lon="6.959243332967162">
        <ele>2214.39990234375</ele>
        <time>2012-06-17T08:47:29Z</time>
      </trkpt>
      <trkpt lat="45.238223327323794" lon="6.959177535027266">
        <ele>2213.800048828125</ele>
        <time>2012-06-17T08:47:37Z</time>
      </trkpt>
      <trkpt lat="45.238341093063354" lon="6.959126656875014">
        <ele>2214</ele>
        <time>2012-06-17T08:47:45Z</time>
      </trkpt>
      <trkpt lat="45.238489033654332" lon="6.95908441208303">
        <ele>2216.199951171875</ele>
        <time>2012-06-17T08:47:55Z</time>
      </trkpt>
      <trkpt lat="45.238619958981872" lon="6.959078796207905">
        <ele>2219</ele>
        <time>2012-06-17T08:48:04Z</time>
      </trkpt>
      <trkpt lat="45.238737221807241" lon="6.959010735154152">
        <ele>2219.60009765625</ele>
        <time>2012-06-17T08:48:12Z</time>
      </trkpt>
      <trkpt lat="45.238874601200223" lon="6.958920629695058">
        <ele>2219.800048828125</ele>
        <time>2012-06-17T08:48:22Z</time>
      </trkpt>
      <trkpt lat="45.238959509879351" lon="6.958908727392554">
        <ele>2221.39990234375</ele>
        <time>2012-06-17T08:48:28Z</time>
      </trkpt>
      <trkpt lat="45.239068306982517" lon="6.958871427923441">
        <ele>2222.60009765625</ele>
        <time>2012-06-17T08:48:35Z</time>
      </trkpt>
      <trkpt lat="45.239192610606551" lon="6.958760116249323">
        <ele>2221.800048828125</ele>
        <time>2012-06-17T08:48:44Z</time>
      </trkpt>
      <trkpt lat="45.239300569519401" lon="6.958652408793569">
        <ele>2220</ele>
        <time>2012-06-17T08:48:52Z</time>
      </trkpt>
      <trkpt lat="45.239393943920732" lon="6.958664981648326">
        <ele>2221.800048828125</ele>
        <time>2012-06-17T08:48:58Z</time>
      </trkpt>
      <trkpt lat="45.239515397697687" lon="6.95868962444365">
        <ele>2224.39990234375</ele>
        <time>2012-06-17T08:49:06Z</time>
      </trkpt>
      <trkpt lat="45.239619920030236" lon="6.958608655259013">
        <ele>2223.800048828125</ele>
        <time>2012-06-17T08:49:13Z</time>
      </trkpt>
      <trkpt lat="45.23974078707397" lon="6.958545623347163">
        <ele>2224</ele>
        <time>2012-06-17T08:49:21Z</time>
      </trkpt>
      <trkpt lat="45.239850422367454" lon="6.958522237837315">
        <ele>2225.199951171875</ele>
        <time>2012-06-17T08:49:28Z</time>
      </trkpt>
      <trkpt lat="45.239990651607513" lon="6.958456272259355">
        <ele>2226</ele>
        <time>2012-06-17T08:49:37Z</time>
      </trkpt>
      <trkpt lat="45.240098023787141" lon="6.95841352455318">
        <ele>2227.800048828125</ele>
        <time>2012-06-17T08:49:44Z</time>
      </trkpt>
      <trkpt lat="45.240229703485966" lon="6.958403047174215">
        <ele>2231.39990234375</ele>
        <time>2012-06-17T08:49:52Z</time>
      </trkpt>
      <trkpt lat="45.240353420376778" lon="6.958401538431644">
        <ele>2234.800048828125</ele>
        <time>2012-06-17T08:50:00Z</time>
      </trkpt>
      <trkpt lat="45.240455763414502" lon="6.958345966413617">
        <ele>2236.39990234375</ele>
        <time>2012-06-17T08:50:07Z</time>
      </trkpt>
      <trkpt lat="45.240574451163411" lon="6.958304224535823">
        <ele>2238.60009765625</ele>
        <time>2012-06-17T08:50:15Z</time>
      </trkpt>
      <trkpt lat="45.240645864978433" lon="6.958150332793593">
        <ele>2235.800048828125</ele>
        <time>2012-06-17T08:50:23Z</time>
      </trkpt>
      <trkpt lat="45.240733791142702" lon="6.957983700558543">
        <ele>2233</ele>
        <time>2012-06-17T08:50:32Z</time>
      </trkpt>
      <trkpt lat="45.240822723135352" lon="6.957838609814644">
        <ele>2230.60009765625</ele>
        <time>2012-06-17T08:50:41Z</time>
      </trkpt>
      <trkpt lat="45.240928335115314" lon="6.957732662558556">
        <ele>2231.199951171875</ele>
        <time>2012-06-17T08:50:50Z</time>
      </trkpt>
      <trkpt lat="45.241059008985758" lon="6.957697374746203">
        <ele>2235</ele>
        <time>2012-06-17T08:50:59Z</time>
      </trkpt>
      <trkpt lat="45.241172164678574" lon="6.957682874053717">
        <ele>2239</ele>
        <time>2012-06-17T08:51:07Z</time>
      </trkpt>
      <trkpt lat="45.241284398362041" lon="6.957693686708808">
        <ele>2243.60009765625</ele>
        <time>2012-06-17T08:51:15Z</time>
      </trkpt>
      <trkpt lat="45.241380287334323" lon="6.957706343382597">
        <ele>2247.60009765625</ele>
        <time>2012-06-17T08:51:23Z</time>
      </trkpt>
      <trkpt lat="45.241484390571713" lon="6.957624955102801">
        <ele>2249</ele>
        <time>2012-06-17T08:51:33Z</time>
      </trkpt>
      <trkpt lat="45.241527892649174" lon="6.957493526861072">
        <ele>2246.39990234375</ele>
        <time>2012-06-17T08:51:40Z</time>
      </trkpt>
      <trkpt lat="45.241552367806435" lon="6.95736788213253">
        <ele>2243.199951171875</ele>
        <time>2012-06-17T08:51:47Z</time>
      </trkpt>
      <trkpt lat="45.241602659225464" lon="6.957196807488799">
        <ele>2239.199951171875</ele>
        <time>2012-06-17T08:51:57Z</time>
      </trkpt>
      <trkpt lat="45.241653369739652" lon="6.957076778635383">
        <ele>2236.800048828125</ele>
        <time>2012-06-17T08:52:05Z</time>
      </trkpt>
      <trkpt lat="45.241720257326961" lon="6.956969825550914">
        <ele>2234.800048828125</ele>
        <time>2012-06-17T08:52:13Z</time>
      </trkpt>
      <trkpt lat="45.241781696677208" lon="6.956921964883804">
        <ele>2234.60009765625</ele>
        <time>2012-06-17T08:52:20Z</time>
      </trkpt>
      <trkpt lat="45.241858223453164" lon="6.956905871629715">
        <ele>2235.800048828125</ele>
        <time>2012-06-17T08:52:28Z</time>
      </trkpt>
      <trkpt lat="45.241889487951994" lon="6.956901932135224">
        <ele>2236.39990234375</ele>
        <time>2012-06-17T08:52:31Z</time>
      </trkpt>
      <trkpt lat="45.241927709430456" lon="6.95688365958631">
        <ele>2236.60009765625</ele>
        <time>2012-06-17T08:52:34Z</time>
      </trkpt>
      <trkpt lat="45.241976659744978" lon="6.956868823617697">
        <ele>2237.199951171875</ele>
        <time>2012-06-17T08:52:39Z</time>
      </trkpt>
      <trkpt lat="45.241978084668517" lon="6.956872176378965">
        <ele>2237.39990234375</ele>
        <time>2012-06-17T08:52:40Z</time>
      </trkpt>
      <trkpt lat="45.242016138508916" lon="6.956891790032387">
        <ele>2239</ele>
        <time>2012-06-17T08:52:46Z</time>
      </trkpt>
      <trkpt lat="45.24207841604948" lon="6.956935459747911">
        <ele>2242</ele>
        <time>2012-06-17T08:52:55Z</time>
      </trkpt>
      <trkpt lat="45.242099538445473" lon="6.956949457526207">
        <ele>2242.800048828125</ele>
        <time>2012-06-17T08:53:03Z</time>
      </trkpt>
      <trkpt lat="45.242143291980028" lon="6.956963706761599">
        <ele>2244.39990234375</ele>
        <time>2012-06-17T08:53:16Z</time>
      </trkpt>
      <trkpt lat="45.242217220366001" lon="6.956995809450746">
        <ele>2247.199951171875</ele>
        <time>2012-06-17T08:53:25Z</time>
      </trkpt>
      <trkpt lat="45.242291484028101" lon="6.957037802785635">
        <ele>2250.39990234375</ele>
        <time>2012-06-17T08:53:35Z</time>
      </trkpt>
      <trkpt lat="45.24236474186182" lon="6.957075605168939">
        <ele>2253.60009765625</ele>
        <time>2012-06-17T08:53:45Z</time>
      </trkpt>
      <trkpt lat="45.242431880906224" lon="6.957083065062761">
        <ele>2255.39990234375</ele>
        <time>2012-06-17T08:53:54Z</time>
      </trkpt>
      <trkpt lat="45.242537492886186" lon="6.957079879939556">
        <ele>2257.60009765625</ele>
        <time>2012-06-17T08:54:07Z</time>
      </trkpt>
      <trkpt lat="45.242614690214396" lon="6.957094883546233">
        <ele>2259.800048828125</ele>
        <time>2012-06-17T08:54:17Z</time>
      </trkpt>
      <trkpt lat="45.242686523124576" lon="6.957135368138552">
        <ele>2262.800048828125</ele>
        <time>2012-06-17T08:54:27Z</time>
      </trkpt>
      <trkpt lat="45.242748381569982" lon="6.957165459170938">
        <ele>2265</ele>
        <time>2012-06-17T08:54:35Z</time>
      </trkpt>
      <trkpt lat="45.242840414866805" lon="6.957184066995978">
        <ele>2267.60009765625</ele>
        <time>2012-06-17T08:54:45Z</time>
      </trkpt>
      <trkpt lat="45.24292373098433" lon="6.957175517454743">
        <ele>2269</ele>
        <time>2012-06-17T08:54:55Z</time>
      </trkpt>
      <trkpt lat="45.243006879463792" lon="6.957134697586298">
        <ele>2269.39990234375</ele>
        <time>2012-06-17T08:55:05Z</time>
      </trkpt>
      <trkpt lat="45.243091369047761" lon="6.957094632089138">
        <ele>2270.199951171875</ele>
        <time>2012-06-17T08:55:16Z</time>
      </trkpt>
      <trkpt lat="45.243180301040411" lon="6.957015506923199">
        <ele>2269.800048828125</ele>
        <time>2012-06-17T08:55:28Z</time>
      </trkpt>
      <trkpt lat="45.243261018767953" lon="6.956931855529547">
        <ele>2269.39990234375</ele>
        <time>2012-06-17T08:55:39Z</time>
      </trkpt>
      <trkpt lat="45.243352968245745" lon="6.956856502220035">
        <ele>2269.39990234375</ele>
        <time>2012-06-17T08:55:51Z</time>
      </trkpt>
      <trkpt lat="45.243448186665773" lon="6.956822304055095">
        <ele>2270.60009765625</ele>
        <time>2012-06-17T08:56:01Z</time>
      </trkpt>
      <trkpt lat="45.243478361517191" lon="6.956906709820032">
        <ele>2273.39990234375</ele>
        <time>2012-06-17T08:56:08Z</time>
      </trkpt>
      <trkpt lat="45.24341968819499" lon="6.95695742033422">
        <ele>2273.39990234375</ele>
        <time>2012-06-17T08:56:15Z</time>
      </trkpt>
      <trkpt lat="45.243310136720538" lon="6.957011567428708">
        <ele>2272.60009765625</ele>
        <time>2012-06-17T08:56:27Z</time>
      </trkpt>
      <trkpt lat="45.24324526078999" lon="6.957098487764597">
        <ele>2273.60009765625</ele>
        <time>2012-06-17T08:56:36Z</time>
      </trkpt>
      <trkpt lat="45.243169907480478" lon="6.957200411707163">
        <ele>2274.800048828125</ele>
        <time>2012-06-17T08:56:46Z</time>
      </trkpt>
      <trkpt lat="45.243156077340245" lon="6.957203764468432">
        <ele>2274.60009765625</ele>
        <time>2012-06-17T08:56:47Z</time>
      </trkpt>
      <trkpt lat="45.24311475455761" lon="6.957230167463422">
        <ele>2274.60009765625</ele>
        <time>2012-06-17T08:56:51Z</time>
      </trkpt>
      <trkpt lat="45.243101259693503" lon="6.957237375900149">
        <ele>2274.39990234375</ele>
        <time>2012-06-17T08:56:52Z</time>
      </trkpt>
      <trkpt lat="45.243013501167297" lon="6.957322368398309">
        <ele>2275.199951171875</ele>
        <time>2012-06-17T08:57:00Z</time>
      </trkpt>
      <trkpt lat="45.243023559451103" lon="6.957416916266084">
        <ele>2278.39990234375</ele>
        <time>2012-06-17T08:57:06Z</time>
      </trkpt>
      <trkpt lat="45.243055997416377" lon="6.957441810518503">
        <ele>2279.60009765625</ele>
        <time>2012-06-17T08:57:09Z</time>
      </trkpt>
      <trkpt lat="45.243083573877811" lon="6.957432758063078">
        <ele>2279.800048828125</ele>
        <time>2012-06-17T08:57:11Z</time>
      </trkpt>
      <trkpt lat="45.243154903873801" lon="6.957381796091795">
        <ele>2279.60009765625</ele>
        <time>2012-06-17T08:57:17Z</time>
      </trkpt>
      <trkpt lat="45.243233107030392" lon="6.957269897684455">
        <ele>2278</ele>
        <time>2012-06-17T08:57:25Z</time>
      </trkpt>
      <trkpt lat="45.24331952445209" lon="6.957166716456413">
        <ele>2277</ele>
        <time>2012-06-17T08:57:33Z</time>
      </trkpt>
      <trkpt lat="45.243349112570286" lon="6.957126818597317">
        <ele>2276.39990234375</ele>
        <time>2012-06-17T08:57:36Z</time>
      </trkpt>
      <trkpt lat="45.243390770629048" lon="6.957107791677117">
        <ele>2276.60009765625</ele>
        <time>2012-06-17T08:57:40Z</time>
      </trkpt>
      <trkpt lat="45.243481462821364" lon="6.95710938423872">
        <ele>2278.199951171875</ele>
        <time>2012-06-17T08:57:47Z</time>
      </trkpt>
      <trkpt lat="45.243563102558255" lon="6.957111144438386">
        <ele>2279.60009765625</ele>
        <time>2012-06-17T08:57:54Z</time>
      </trkpt>
      <trkpt lat="45.243655135855079" lon="6.957115335389972">
        <ele>2281.199951171875</ele>
        <time>2012-06-17T08:58:02Z</time>
      </trkpt>
      <trkpt lat="45.243719927966595" lon="6.957148611545563">
        <ele>2283</ele>
        <time>2012-06-17T08:58:08Z</time>
      </trkpt>
      <trkpt lat="45.24380860850215" lon="6.95721834897995">
        <ele>2285.60009765625</ele>
        <time>2012-06-17T08:58:16Z</time>
      </trkpt>
      <trkpt lat="45.243882620707154" lon="6.95724374614656">
        <ele>2287.199951171875</ele>
        <time>2012-06-17T08:58:22Z</time>
      </trkpt>
      <trkpt lat="45.243973899632692" lon="6.957274759188294">
        <ele>2289</ele>
        <time>2012-06-17T08:58:30Z</time>
      </trkpt>
      <trkpt lat="45.244052689522505" lon="6.957252379506826">
        <ele>2289.800048828125</ele>
        <time>2012-06-17T08:58:37Z</time>
      </trkpt>
      <trkpt lat="45.244062747806311" lon="6.957235783338547">
        <ele>2289.60009765625</ele>
        <time>2012-06-17T08:58:38Z</time>
      </trkpt>
      <trkpt lat="45.244072303175926" lon="6.957158669829369">
        <ele>2288.800048828125</ele>
        <time>2012-06-17T08:58:42Z</time>
      </trkpt>
      <trkpt lat="45.244067441672087" lon="6.95711768232286">
        <ele>2288.199951171875</ele>
        <time>2012-06-17T08:58:44Z</time>
      </trkpt>
      <trkpt lat="45.244044978171587" lon="6.956928418949246">
        <ele>2285.39990234375</ele>
        <time>2012-06-17T08:58:54Z</time>
      </trkpt>
      <trkpt lat="45.244005667045712" lon="6.956772012636066">
        <ele>2282.39990234375</ele>
        <time>2012-06-17T08:59:02Z</time>
      </trkpt>
      <trkpt lat="45.243961159139872" lon="6.956522315740585">
        <ele>2278.39990234375</ele>
        <time>2012-06-17T08:59:14Z</time>
      </trkpt>
      <trkpt lat="45.24392444640398" lon="6.956394575536251">
        <ele>2276.199951171875</ele>
        <time>2012-06-17T08:59:19Z</time>
      </trkpt>
      <trkpt lat="45.243916986510158" lon="6.956335566937923">
        <ele>2275.39990234375</ele>
        <time>2012-06-17T08:59:22Z</time>
      </trkpt>
      <trkpt lat="45.243929559364915" lon="6.956276223063469">
        <ele>2275.199951171875</ele>
        <time>2012-06-17T08:59:25Z</time>
      </trkpt>
      <trkpt lat="45.243931235745549" lon="6.956258453428745">
        <ele>2275</ele>
        <time>2012-06-17T08:59:26Z</time>
      </trkpt>
      <trkpt lat="45.24392930790782" lon="6.956138843670487">
        <ele>2273.800048828125</ele>
        <time>2012-06-17T08:59:32Z</time>
      </trkpt>
      <trkpt lat="45.24395914748311" lon="6.955981934443116">
        <ele>2273.199951171875</ele>
        <time>2012-06-17T08:59:39Z</time>
      </trkpt>
      <trkpt lat="45.244041038677096" lon="6.955845644697547">
        <ele>2274.800048828125</ele>
        <time>2012-06-17T08:59:47Z</time>
      </trkpt>
      <trkpt lat="45.244084959849715" lon="6.95578814484179">
        <ele>2275.199951171875</ele>
        <time>2012-06-17T08:59:52Z</time>
      </trkpt>
      <trkpt lat="45.244091246277094" lon="6.955776829272509">
        <ele>2275.199951171875</ele>
        <time>2012-06-17T08:59:55Z</time>
      </trkpt>
      <trkpt lat="45.244112201035023" lon="6.955788396298885">
        <ele>2276.199951171875</ele>
        <time>2012-06-17T09:06:57Z</time>
      </trkpt>
      <trkpt lat="45.244184117764235" lon="6.955786552280188">
        <ele>2278</ele>
        <time>2012-06-17T09:07:05Z</time>
      </trkpt>
      <trkpt lat="45.244288053363562" lon="6.95581597276032">
        <ele>2278.60009765625</ele>
        <time>2012-06-17T09:07:15Z</time>
      </trkpt>
      <trkpt lat="45.244361562654376" lon="6.955881519243121">
        <ele>2279.39990234375</ele>
        <time>2012-06-17T09:07:23Z</time>
      </trkpt>
      <trkpt lat="45.244441358372569" lon="6.956018311902881">
        <ele>2281</ele>
        <time>2012-06-17T09:07:30Z</time>
      </trkpt>
      <trkpt lat="45.244471030309796" lon="6.956223668530583">
        <ele>2283.199951171875</ele>
        <time>2012-06-17T09:07:38Z</time>
      </trkpt>
      <trkpt lat="45.244426690042019" lon="6.956378314644098">
        <ele>2284.60009765625</ele>
        <time>2012-06-17T09:07:44Z</time>
      </trkpt>
      <trkpt lat="45.244352258741856" lon="6.95646682754159">
        <ele>2285</ele>
        <time>2012-06-17T09:07:50Z</time>
      </trkpt>
      <trkpt lat="45.244338093325496" lon="6.956499936059117">
        <ele>2285.199951171875</ele>
        <time>2012-06-17T09:07:52Z</time>
      </trkpt>
      <trkpt lat="45.244353683665395" lon="6.956507647410035">
        <ele>2285.39990234375</ele>
        <time>2012-06-17T09:07:54Z</time>
      </trkpt>
      <trkpt lat="45.244405651465058" lon="6.956487530842423">
        <ele>2285.60009765625</ele>
        <time>2012-06-17T09:07:57Z</time>
      </trkpt>
      <trkpt lat="45.244457451626658" lon="6.956450482830405">
        <ele>2285.60009765625</ele>
        <time>2012-06-17T09:07:59Z</time>
      </trkpt>
      <trkpt lat="45.244601368904114" lon="6.956330118700862">
        <ele>2285</ele>
        <time>2012-06-17T09:08:03Z</time>
      </trkpt>
      <trkpt lat="45.244753835722804" lon="6.956289298832417">
        <ele>2285.39990234375</ele>
        <time>2012-06-17T09:08:08Z</time>
      </trkpt>
      <trkpt lat="45.244879312813282" lon="6.956240683794022">
        <ele>2285.199951171875</ele>
        <time>2012-06-17T09:08:14Z</time>
      </trkpt>
      <trkpt lat="45.245017446577549" lon="6.956067178398371">
        <ele>2283</ele>
        <time>2012-06-17T09:08:20Z</time>
      </trkpt>
      <trkpt lat="45.245154993608594" lon="6.956008840352297">
        <ele>2283.199951171875</ele>
        <time>2012-06-17T09:08:23Z</time>
      </trkpt>
      <trkpt lat="45.245359260588884" lon="6.9560656696558">
        <ele>2286</ele>
        <time>2012-06-17T09:08:28Z</time>
      </trkpt>
      <trkpt lat="45.245577190071344" lon="6.956134820356965">
        <ele>2289.60009765625</ele>
        <time>2012-06-17T09:08:35Z</time>
      </trkpt>
      <trkpt lat="45.245802914723754" lon="6.956126103177667">
        <ele>2291.39990234375</ele>
        <time>2012-06-17T09:08:43Z</time>
      </trkpt>
      <trkpt lat="45.246001649647951" lon="6.956055108457804">
        <ele>2291.60009765625</ele>
        <time>2012-06-17T09:08:50Z</time>
      </trkpt>
      <trkpt lat="45.246264087036252" lon="6.955916387960315">
        <ele>2290.199951171875</ele>
        <time>2012-06-17T09:09:00Z</time>
      </trkpt>
      <trkpt lat="45.246479418128729" lon="6.955811362713575">
        <ele>2289.39990234375</ele>
        <time>2012-06-17T09:09:08Z</time>
      </trkpt>
      <trkpt lat="45.246662143617868" lon="6.955715222284198">
        <ele>2289.199951171875</ele>
        <time>2012-06-17T09:09:15Z</time>
      </trkpt>
      <trkpt lat="45.246850904077291" lon="6.955650933086872">
        <ele>2288.199951171875</ele>
        <time>2012-06-17T09:09:22Z</time>
      </trkpt>
      <trkpt lat="45.247078808024526" lon="6.955527970567346">
        <ele>2285.39990234375</ele>
        <time>2012-06-17T09:09:30Z</time>
      </trkpt>
      <trkpt lat="45.247167991474271" lon="6.955337701365352">
        <ele>2280.39990234375</ele>
        <time>2012-06-17T09:09:35Z</time>
      </trkpt>
      <trkpt lat="45.247273687273264" lon="6.955212475731969">
        <ele>2276.800048828125</ele>
        <time>2012-06-17T09:09:40Z</time>
      </trkpt>
      <trkpt lat="45.24744694121182" lon="6.955237789079547">
        <ele>2277.199951171875</ele>
        <time>2012-06-17T09:09:46Z</time>
      </trkpt>
      <trkpt lat="45.247618434950709" lon="6.955371396616101">
        <ele>2281</ele>
        <time>2012-06-17T09:09:53Z</time>
      </trkpt>
      <trkpt lat="45.247830580919981" lon="6.95554087869823">
        <ele>2284.199951171875</ele>
        <time>2012-06-17T09:10:01Z</time>
      </trkpt>
      <trkpt lat="45.248009786009789" lon="6.955733494833112">
        <ele>2286</ele>
        <time>2012-06-17T09:10:09Z</time>
      </trkpt>
      <trkpt lat="45.248197289183736" lon="6.95593910291791">
        <ele>2287</ele>
        <time>2012-06-17T09:10:17Z</time>
      </trkpt>
      <trkpt lat="45.248340032994747" lon="6.956202713772655">
        <ele>2289.60009765625</ele>
        <time>2012-06-17T09:10:25Z</time>
      </trkpt>
      <trkpt lat="45.248470790684223" lon="6.956440592184663">
        <ele>2293.60009765625</ele>
        <time>2012-06-17T09:10:33Z</time>
      </trkpt>
      <trkpt lat="45.248657455667853" lon="6.956641590222716">
        <ele>2296</ele>
        <time>2012-06-17T09:10:42Z</time>
      </trkpt>
      <trkpt lat="45.248799696564674" lon="6.956827500835061">
        <ele>2298.199951171875</ele>
        <time>2012-06-17T09:10:50Z</time>
      </trkpt>
      <trkpt lat="45.248939506709576" lon="6.957059679552913">
        <ele>2300.199951171875</ele>
        <time>2012-06-17T09:10:59Z</time>
      </trkpt>
      <trkpt lat="45.249057523906231" lon="6.957257157191634">
        <ele>2301.199951171875</ele>
        <time>2012-06-17T09:11:08Z</time>
      </trkpt>
      <trkpt lat="45.249201860278845" lon="6.957332761958242">
        <ele>2301</ele>
        <time>2012-06-17T09:11:15Z</time>
      </trkpt>
      <trkpt lat="45.249310825020075" lon="6.957345250993967">
        <ele>2302.800048828125</ele>
        <time>2012-06-17T09:11:20Z</time>
      </trkpt>
      <trkpt lat="45.249321553856134" lon="6.957332426682115">
        <ele>2303</ele>
        <time>2012-06-17T09:11:21Z</time>
      </trkpt>
      <trkpt lat="45.249342005699873" lon="6.957247937098146">
        <ele>2302.60009765625</ele>
        <time>2012-06-17T09:11:23Z</time>
      </trkpt>
      <trkpt lat="45.249366061761975" lon="6.95710594765842">
        <ele>2301.60009765625</ele>
        <time>2012-06-17T09:11:25Z</time>
      </trkpt>
      <trkpt lat="45.24937997572124" lon="6.956941075623035">
        <ele>2300.39990234375</ele>
        <time>2012-06-17T09:11:27Z</time>
      </trkpt>
      <trkpt lat="45.249350303784013" lon="6.956687355414033">
        <ele>2297.800048828125</ele>
        <time>2012-06-17T09:11:30Z</time>
      </trkpt>
      <trkpt lat="45.249328427016735" lon="6.956604039296508">
        <ele>2296.60009765625</ele>
        <time>2012-06-17T09:11:31Z</time>
      </trkpt>
      <trkpt lat="45.249238656833768" lon="6.956209167838097">
        <ele>2291.60009765625</ele>
        <time>2012-06-17T09:11:35Z</time>
      </trkpt>
      <trkpt lat="45.2490867767483" lon="6.955820918083191">
        <ele>2286.60009765625</ele>
        <time>2012-06-17T09:11:39Z</time>
      </trkpt>
      <trkpt lat="45.249056937173009" lon="6.95573978126049">
        <ele>2286.39990234375</ele>
        <time>2012-06-17T09:11:40Z</time>
      </trkpt>
      <trkpt lat="45.248988205567002" lon="6.955591505393386">
        <ele>2286</ele>
        <time>2012-06-17T09:11:42Z</time>
      </trkpt>
      <trkpt lat="45.248939590528607" lon="6.955542052164674">
        <ele>2285.60009765625</ele>
        <time>2012-06-17T09:11:43Z</time>
      </trkpt>
      <trkpt lat="45.248859543353319" lon="6.955419089645147">
        <ele>2284.800048828125</ele>
        <time>2012-06-17T09:11:45Z</time>
      </trkpt>
      <trkpt lat="45.248812101781368" lon="6.955250110477209">
        <ele>2284</ele>
        <time>2012-06-17T09:11:47Z</time>
      </trkpt>
      <trkpt lat="45.248799696564674" lon="6.954939477145672">
        <ele>2282.800048828125</ele>
        <time>2012-06-17T09:11:51Z</time>
      </trkpt>
      <trkpt lat="45.248828530311584" lon="6.954809809103608">
        <ele>2282.60009765625</ele>
        <time>2012-06-17T09:11:53Z</time>
      </trkpt>
      <trkpt lat="45.248872954398394" lon="6.954621551558375">
        <ele>2282.199951171875</ele>
        <time>2012-06-17T09:11:56Z</time>
      </trkpt>
      <trkpt lat="45.248985774815083" lon="6.954247802495956">
        <ele>2281.800048828125</ele>
        <time>2012-06-17T09:12:02Z</time>
      </trkpt>
      <trkpt lat="45.249099265784025" lon="6.953938845545054">
        <ele>2282.199951171875</ele>
        <time>2012-06-17T09:12:08Z</time>
      </trkpt>
      <trkpt lat="45.249118208885193" lon="6.953891320154071">
        <ele>2282.199951171875</ele>
        <time>2012-06-17T09:12:09Z</time>
      </trkpt>
      <trkpt lat="45.249178055673838" lon="6.95362888276577">
        <ele>2282.199951171875</ele>
        <time>2012-06-17T09:12:13Z</time>
      </trkpt>
      <trkpt lat="45.249175876379013" lon="6.953546991571784">
        <ele>2282</ele>
        <time>2012-06-17T09:12:14Z</time>
      </trkpt>
      <trkpt lat="45.249097421765327" lon="6.95319646038115">
        <ele>2279.60009765625</ele>
        <time>2012-06-17T09:12:18Z</time>
      </trkpt>
      <trkpt lat="45.24898418225348" lon="6.952693462371826">
        <ele>2276.60009765625</ele>
        <time>2012-06-17T09:12:23Z</time>
      </trkpt>
      <trkpt lat="45.248957108706236" lon="6.952445106580854">
        <ele>2275.39990234375</ele>
        <time>2012-06-17T09:12:25Z</time>
      </trkpt>
      <trkpt lat="45.248946128413081" lon="6.952202701941133">
        <ele>2273.800048828125</ele>
        <time>2012-06-17T09:12:27Z</time>
      </trkpt>
      <trkpt lat="45.248931460082531" lon="6.952091809362173">
        <ele>2272.800048828125</ele>
        <time>2012-06-17T09:12:28Z</time>
      </trkpt>
      <trkpt lat="45.248853089287877" lon="6.951890308409929">
        <ele>2270.199951171875</ele>
        <time>2012-06-17T09:12:30Z</time>
      </trkpt>
      <trkpt lat="45.24861085228622" lon="6.951385717839003">
        <ele>2263.39990234375</ele>
        <time>2012-06-17T09:12:35Z</time>
      </trkpt>
      <trkpt lat="45.248334333300591" lon="6.950960336253047">
        <ele>2256.39990234375</ele>
        <time>2012-06-17T09:12:40Z</time>
      </trkpt>
      <trkpt lat="45.248283287510276" lon="6.950904093682766">
        <ele>2255.199951171875</ele>
        <time>2012-06-17T09:12:41Z</time>
      </trkpt>
      <trkpt lat="45.248172394931316" lon="6.950773419812322">
        <ele>2252.800048828125</ele>
        <time>2012-06-17T09:12:43Z</time>
      </trkpt>
      <trkpt lat="45.248122103512287" lon="6.950694797560573">
        <ele>2252.199951171875</ele>
        <time>2012-06-17T09:12:44Z</time>
      </trkpt>
      <trkpt lat="45.247990842908621" lon="6.950475946068764">
        <ele>2250.39990234375</ele>
        <time>2012-06-17T09:12:47Z</time>
      </trkpt>
      <trkpt lat="45.247938707470894" lon="6.950420793145895">
        <ele>2249.60009765625</ele>
        <time>2012-06-17T09:12:48Z</time>
      </trkpt>
      <trkpt lat="45.247760256752372" lon="6.950243096798658">
        <ele>2246</ele>
        <time>2012-06-17T09:12:51Z</time>
      </trkpt>
      <trkpt lat="45.247554061934352" lon="6.950041009113193">
        <ele>2241.39990234375</ele>
        <time>2012-06-17T09:12:55Z</time>
      </trkpt>
      <trkpt lat="45.247433865442872" lon="6.949948305264115">
        <ele>2238.800048828125</ele>
        <time>2012-06-17T09:12:58Z</time>
      </trkpt>
      <trkpt lat="45.247328588739038" lon="6.949894158169627">
        <ele>2236.39990234375</ele>
        <time>2012-06-17T09:13:00Z</time>
      </trkpt>
      <trkpt lat="45.247226329520345" lon="6.949870688840747">
        <ele>2233.800048828125</ele>
        <time>2012-06-17T09:13:02Z</time>
      </trkpt>
      <trkpt lat="45.247108396142721" lon="6.949863312765956">
        <ele>2230.800048828125</ele>
        <time>2012-06-17T09:13:04Z</time>
      </trkpt>
      <trkpt lat="45.246947379782796" lon="6.949820313602686">
        <ele>2226.800048828125</ele>
        <time>2012-06-17T09:13:06Z</time>
      </trkpt>
      <trkpt lat="45.246872026473284" lon="6.949791647493839">
        <ele>2225.199951171875</ele>
        <time>2012-06-17T09:13:07Z</time>
      </trkpt>
      <trkpt lat="45.246555106714368" lon="6.949695674702525">
        <ele>2217</ele>
        <time>2012-06-17T09:13:11Z</time>
      </trkpt>
      <trkpt lat="45.2464878000319" lon="6.949655273929238">
        <ele>2215.39990234375</ele>
        <time>2012-06-17T09:13:12Z</time>
      </trkpt>
      <trkpt lat="45.246227793395519" lon="6.94949509575963">
        <ele>2209.199951171875</ele>
        <time>2012-06-17T09:13:16Z</time>
      </trkpt>
      <trkpt lat="45.246169622987509" lon="6.949446564540267">
        <ele>2208</ele>
        <time>2012-06-17T09:13:17Z</time>
      </trkpt>
      <trkpt lat="45.246118828654289" lon="6.949390908703208">
        <ele>2207</ele>
        <time>2012-06-17T09:13:18Z</time>
      </trkpt>
      <trkpt lat="45.24590190500021" lon="6.949178176000714">
        <ele>2203</ele>
        <time>2012-06-17T09:13:22Z</time>
      </trkpt>
      <trkpt lat="45.245662936940789" lon="6.948846001178026">
        <ele>2194.39990234375</ele>
        <time>2012-06-17T09:13:27Z</time>
      </trkpt>
      <trkpt lat="45.245628990232944" lon="6.948775593191385">
        <ele>2193</ele>
        <time>2012-06-17T09:13:28Z</time>
      </trkpt>
      <trkpt lat="45.245562857016921" lon="6.948561519384384">
        <ele>2190.39990234375</ele>
        <time>2012-06-17T09:13:31Z</time>
      </trkpt>
      <trkpt lat="45.245548859238625" lon="6.948505025357008">
        <ele>2189.800048828125</ele>
        <time>2012-06-17T09:13:32Z</time>
      </trkpt>
      <trkpt lat="45.245542908087373" lon="6.94844744168222">
        <ele>2189.60009765625</ele>
        <time>2012-06-17T09:13:33Z</time>
      </trkpt>
      <trkpt lat="45.245536034926772" lon="6.948305871337652">
        <ele>2189</ele>
        <time>2012-06-17T09:13:35Z</time>
      </trkpt>
      <trkpt lat="45.245537795126438" lon="6.948217106983066">
        <ele>2188.199951171875</ele>
        <time>2012-06-17T09:13:36Z</time>
      </trkpt>
      <trkpt lat="45.245548272505403" lon="6.948031615465879">
        <ele>2186.60009765625</ele>
        <time>2012-06-17T09:13:38Z</time>
      </trkpt>
      <trkpt lat="45.245560761541128" lon="6.947931367903948">
        <ele>2186</ele>
        <time>2012-06-17T09:13:39Z</time>
      </trkpt>
      <trkpt lat="45.245606107637286" lon="6.947725089266896">
        <ele>2186.199951171875</ele>
        <time>2012-06-17T09:13:41Z</time>
      </trkpt>
      <trkpt lat="45.245650699362159" lon="6.947507159784436">
        <ele>2186.199951171875</ele>
        <time>2012-06-17T09:13:43Z</time>
      </trkpt>
      <trkpt lat="45.245707528665662" lon="6.947169788181782">
        <ele>2182.60009765625</ele>
        <time>2012-06-17T09:13:47Z</time>
      </trkpt>
      <trkpt lat="45.245807021856308" lon="6.946699898689985">
        <ele>2177.60009765625</ele>
        <time>2012-06-17T09:13:52Z</time>
      </trkpt>
      <trkpt lat="45.246000979095697" lon="6.945988778024912">
        <ele>2174.60009765625</ele>
        <time>2012-06-17T09:13:58Z</time>
      </trkpt>
      <trkpt lat="45.246095191687346" lon="6.945597007870674">
        <ele>2172.800048828125</ele>
        <time>2012-06-17T09:14:02Z</time>
      </trkpt>
      <trkpt lat="45.246115559712052" lon="6.945542860776186">
        <ele>2173</ele>
        <time>2012-06-17T09:14:03Z</time>
      </trkpt>
      <trkpt lat="45.246136849746108" lon="6.945467088371515">
        <ele>2172.60009765625</ele>
        <time>2012-06-17T09:14:05Z</time>
      </trkpt>
      <trkpt lat="45.246185213327408" lon="6.945317555218935">
        <ele>2172.39990234375</ele>
        <time>2012-06-17T09:14:09Z</time>
      </trkpt>
      <trkpt lat="45.246217902749777" lon="6.945220744237304">
        <ele>2172</ele>
        <time>2012-06-17T09:14:12Z</time>
      </trkpt>
      <trkpt lat="45.24622687138617" lon="6.945186043158174">
        <ele>2171.800048828125</ele>
        <time>2012-06-17T09:14:13Z</time>
      </trkpt>
      <trkpt lat="45.246250843629241" lon="6.945044388994575">
        <ele>2170</ele>
        <time>2012-06-17T09:14:18Z</time>
      </trkpt>
      <trkpt lat="45.246318988502026" lon="6.944762924686074">
        <ele>2168.800048828125</ele>
        <time>2012-06-17T09:14:26Z</time>
      </trkpt>
      <trkpt lat="45.24637003429234" lon="6.944504259154201">
        <ele>2167.199951171875</ele>
        <time>2012-06-17T09:14:32Z</time>
      </trkpt>
      <trkpt lat="45.246431138366461" lon="6.944139562547207">
        <ele>2164.199951171875</ele>
        <time>2012-06-17T09:14:38Z</time>
      </trkpt>
      <trkpt lat="45.246431222185493" lon="6.944000674411655">
        <ele>2163.39990234375</ele>
        <time>2012-06-17T09:14:40Z</time>
      </trkpt>
      <trkpt lat="45.24642426520586" lon="6.943867234513164">
        <ele>2162.39990234375</ele>
        <time>2012-06-17T09:14:42Z</time>
      </trkpt>
      <trkpt lat="45.246412949636579" lon="6.943513099104166">
        <ele>2160</ele>
        <time>2012-06-17T09:14:48Z</time>
      </trkpt>
      <trkpt lat="45.246393503621221" lon="6.943476805463433">
        <ele>2159.199951171875</ele>
        <time>2012-06-17T09:14:49Z</time>
      </trkpt>
      <trkpt lat="45.246299123391509" lon="6.943439757451415">
        <ele>2156.39990234375</ele>
        <time>2012-06-17T09:14:52Z</time>
      </trkpt>
      <trkpt lat="45.246198121458292" lon="6.943382760509849">
        <ele>2153.199951171875</ele>
        <time>2012-06-17T09:14:56Z</time>
      </trkpt>
      <trkpt lat="45.246165348216891" lon="6.94324404001236">
        <ele>2151.800048828125</ele>
        <time>2012-06-17T09:14:59Z</time>
      </trkpt>
      <trkpt lat="45.246164593845606" lon="6.943202884867787">
        <ele>2151.800048828125</ele>
        <time>2012-06-17T09:15:00Z</time>
      </trkpt>
      <trkpt lat="45.24616576731205" lon="6.94303591735661">
        <ele>2151.199951171875</ele>
        <time>2012-06-17T09:15:05Z</time>
      </trkpt>
      <trkpt lat="45.246214047074318" lon="6.942841541022062">
        <ele>2152</ele>
        <time>2012-06-17T09:15:11Z</time>
      </trkpt>
      <trkpt lat="45.246294429525733" lon="6.942610116675496">
        <ele>2153.60009765625</ele>
        <time>2012-06-17T09:15:16Z</time>
      </trkpt>
      <trkpt lat="45.246346984058619" lon="6.942392187193036">
        <ele>2153.800048828125</ele>
        <time>2012-06-17T09:15:20Z</time>
      </trkpt>
      <trkpt lat="45.246400041505694" lon="6.942263273522258">
        <ele>2154</ele>
        <time>2012-06-17T09:15:24Z</time>
      </trkpt>
      <trkpt lat="45.246403310447931" lon="6.942220190539956">
        <ele>2153.60009765625</ele>
        <time>2012-06-17T09:15:25Z</time>
      </trkpt>
      <trkpt lat="45.246440777555108" lon="6.942089265212417">
        <ele>2153.199951171875</ele>
        <time>2012-06-17T09:15:28Z</time>
      </trkpt>
      <trkpt lat="45.246544545516372" lon="6.941853482276201">
        <ele>2153.199951171875</ele>
        <time>2012-06-17T09:15:35Z</time>
      </trkpt>
      <trkpt lat="45.246679410338402" lon="6.94157394580543">
        <ele>2152.800048828125</ele>
        <time>2012-06-17T09:15:43Z</time>
      </trkpt>
      <trkpt lat="45.246839001774788" lon="6.941283848136663">
        <ele>2153.199951171875</ele>
        <time>2012-06-17T09:15:52Z</time>
      </trkpt>
      <trkpt lat="45.246954001486301" lon="6.941044377163053">
        <ele>2153.199951171875</ele>
        <time>2012-06-17T09:15:59Z</time>
      </trkpt>
      <trkpt lat="45.247085513547063" lon="6.940746065229178">
        <ele>2153</ele>
        <time>2012-06-17T09:16:07Z</time>
      </trkpt>
      <trkpt lat="45.247159777209163" lon="6.940556718036532">
        <ele>2152.199951171875</ele>
        <time>2012-06-17T09:16:13Z</time>
      </trkpt>
      <trkpt lat="45.247198920696974" lon="6.940419087186456">
        <ele>2151.39990234375</ele>
        <time>2012-06-17T09:16:17Z</time>
      </trkpt>
      <trkpt lat="45.247274609282613" lon="6.940216328948736">
        <ele>2150.60009765625</ele>
        <time>2012-06-17T09:16:23Z</time>
      </trkpt>
      <trkpt lat="45.247310483828187" lon="6.940030921250582">
        <ele>2148.800048828125</ele>
        <time>2012-06-17T09:16:28Z</time>
      </trkpt>
      <trkpt lat="45.247330348938704" lon="6.939937546849251">
        <ele>2148</ele>
        <time>2012-06-17T09:16:31Z</time>
      </trkpt>
      <trkpt lat="45.247339317575097" lon="6.939889015629888">
        <ele>2147.60009765625</ele>
        <time>2012-06-17T09:16:32Z</time>
      </trkpt>
      <trkpt lat="45.247351638972759" lon="6.93971760571003">
        <ele>2145.199951171875</ele>
        <time>2012-06-17T09:16:36Z</time>
      </trkpt>
      <trkpt lat="45.247354405000806" lon="6.939692795276642">
        <ele>2145</ele>
        <time>2012-06-17T09:16:37Z</time>
      </trkpt>
      <trkpt lat="45.247339485213161" lon="6.939533958211541">
        <ele>2141.800048828125</ele>
        <time>2012-06-17T09:16:42Z</time>
      </trkpt>
      <trkpt lat="45.247368821874261" lon="6.939348382875323">
        <ele>2139.800048828125</ele>
        <time>2012-06-17T09:16:46Z</time>
      </trkpt>
      <trkpt lat="45.247397990897298" lon="6.939263138920069">
        <ele>2139.60009765625</ele>
        <time>2012-06-17T09:16:49Z</time>
      </trkpt>
      <trkpt lat="45.247403690591455" lon="6.939262300729752">
        <ele>2139.800048828125</ele>
        <time>2012-06-17T09:16:51Z</time>
      </trkpt>
      <trkpt lat="45.247447360306978" lon="6.939262803643942">
        <ele>2141.60009765625</ele>
        <time>2012-06-17T09:17:53Z</time>
      </trkpt>
      <trkpt lat="45.247506620362401" lon="6.939216116443276">
        <ele>2143.39990234375</ele>
        <time>2012-06-17T09:18:03Z</time>
      </trkpt>
      <trkpt lat="45.24755883961916" lon="6.939147803932428">
        <ele>2146</ele>
        <time>2012-06-17T09:18:14Z</time>
      </trkpt>
      <trkpt lat="45.247613489627838" lon="6.939051412045956">
        <ele>2148.39990234375</ele>
        <time>2012-06-17T09:18:25Z</time>
      </trkpt>
      <trkpt lat="45.247650789096951" lon="6.938959127292037">
        <ele>2149.39990234375</ele>
        <time>2012-06-17T09:18:35Z</time>
      </trkpt>
      <trkpt lat="45.247663781046867" lon="6.938930712640286">
        <ele>2149.800048828125</ele>
        <time>2012-06-17T09:18:42Z</time>
      </trkpt>
      <trkpt lat="45.247707786038518" lon="6.938838846981525">
        <ele>2151.199951171875</ele>
        <time>2012-06-17T09:18:49Z</time>
      </trkpt>
      <trkpt lat="45.247753635048866" lon="6.938737845048308">
        <ele>2152.39990234375</ele>
        <time>2012-06-17T09:18:57Z</time>
      </trkpt>
      <trkpt lat="45.247803758829832" lon="6.938631311058998">
        <ele>2153.800048828125</ele>
        <time>2012-06-17T09:19:06Z</time>
      </trkpt>
      <trkpt lat="45.247822618111968" lon="6.938598202541471">
        <ele>2154.39990234375</ele>
        <time>2012-06-17T09:19:10Z</time>
      </trkpt>
      <trkpt lat="45.247856983914971" lon="6.938466522842646">
        <ele>2154</ele>
        <time>2012-06-17T09:19:16Z</time>
      </trkpt>
      <trkpt lat="45.24787550792098" lon="6.93827860057354">
        <ele>2151.60009765625</ele>
        <time>2012-06-17T09:19:22Z</time>
      </trkpt>
      <trkpt lat="45.247891182079911" lon="6.938086235895753">
        <ele>2149.800048828125</ele>
        <time>2012-06-17T09:19:27Z</time>
      </trkpt>
      <trkpt lat="45.247918423265219" lon="6.937913652509451">
        <ele>2148.800048828125</ele>
        <time>2012-06-17T09:19:32Z</time>
      </trkpt>
      <trkpt lat="45.247956225648522" lon="6.937672840431333">
        <ele>2147.39990234375</ele>
        <time>2012-06-17T09:19:39Z</time>
      </trkpt>
      <trkpt lat="45.248018419370055" lon="6.937438063323498">
        <ele>2147.60009765625</ele>
        <time>2012-06-17T09:19:46Z</time>
      </trkpt>
      <trkpt lat="45.248079607263207" lon="6.937268162146211">
        <ele>2149.199951171875</ele>
        <time>2012-06-17T09:19:50Z</time>
      </trkpt>
      <trkpt lat="45.248181615024805" lon="6.936978567391634">
        <ele>2151.39990234375</ele>
        <time>2012-06-17T09:19:58Z</time>
      </trkpt>
      <trkpt lat="45.248230313882232" lon="6.936726858839393">
        <ele>2150.800048828125</ele>
        <time>2012-06-17T09:20:04Z</time>
      </trkpt>
      <trkpt lat="45.248260824009776" lon="6.936499876901507">
        <ele>2149.800048828125</ele>
        <time>2012-06-17T09:20:10Z</time>
      </trkpt>
      <trkpt lat="45.248322682455182" lon="6.936333244666457">
        <ele>2151</ele>
        <time>2012-06-17T09:20:15Z</time>
      </trkpt>
      <trkpt lat="45.248362328857183" lon="6.936261495575309">
        <ele>2152.39990234375</ele>
        <time>2012-06-17T09:20:18Z</time>
      </trkpt>
      <trkpt lat="45.2483562938869" lon="6.936237439513207">
        <ele>2151.800048828125</ele>
        <time>2012-06-17T09:20:19Z</time>
      </trkpt>
      <trkpt lat="45.248387055471539" lon="6.936092851683497">
        <ele>2152.199951171875</ele>
        <time>2012-06-17T09:20:24Z</time>
      </trkpt>
      <trkpt lat="45.248431647196412" lon="6.935887830331922">
        <ele>2152.60009765625</ele>
        <time>2012-06-17T09:20:29Z</time>
      </trkpt>
      <trkpt lat="45.248447740450501" lon="6.935721952468157">
        <ele>2151.800048828125</ele>
        <time>2012-06-17T09:20:34Z</time>
      </trkpt>
      <trkpt lat="45.248455787077546" lon="6.935491031035781">
        <ele>2150</ele>
        <time>2012-06-17T09:20:40Z</time>
      </trkpt>
      <trkpt lat="45.248474981635809" lon="6.935317190364003">
        <ele>2149.199951171875</ele>
        <time>2012-06-17T09:20:45Z</time>
      </trkpt>
      <trkpt lat="45.24850289337337" lon="6.935076294466853">
        <ele>2148.199951171875</ele>
        <time>2012-06-17T09:20:52Z</time>
      </trkpt>
      <trkpt lat="45.248561818152666" lon="6.934760548174381">
        <ele>2146.199951171875</ele>
        <time>2012-06-17T09:21:00Z</time>
      </trkpt>
      <trkpt lat="45.248563997447491" lon="6.934533650055528">
        <ele>2142.39990234375</ele>
        <time>2012-06-17T09:21:06Z</time>
      </trkpt>
      <trkpt lat="45.248607667163014" lon="6.934418817982078">
        <ele>2142.60009765625</ele>
        <time>2012-06-17T09:21:11Z</time>
      </trkpt>
      <trkpt lat="45.248728031292558" lon="6.934351259842515">
        <ele>2146.800048828125</ele>
        <time>2012-06-17T09:21:16Z</time>
      </trkpt>
      <trkpt lat="45.248842276632786" lon="6.934335920959711">
        <ele>2151.800048828125</ele>
        <time>2012-06-17T09:21:21Z</time>
      </trkpt>
      <trkpt lat="45.24904134683311" lon="6.934309266507626">
        <ele>2160.199951171875</ele>
        <time>2012-06-17T09:21:28Z</time>
      </trkpt>
      <trkpt lat="45.249097170308232" lon="6.934266770258546">
        <ele>2162</ele>
        <time>2012-06-17T09:21:32Z</time>
      </trkpt>
      <trkpt lat="45.249097254127264" lon="6.934205079451203">
        <ele>2160.60009765625</ele>
        <time>2012-06-17T09:21:42Z</time>
      </trkpt>
      <trkpt lat="45.249063977971673" lon="6.934143975377083">
        <ele>2158.39990234375</ele>
        <time>2012-06-17T09:21:50Z</time>
      </trkpt>
      <trkpt lat="45.249032881110907" lon="6.934073986485601">
        <ele>2156.800048828125</ele>
        <time>2012-06-17T09:21:58Z</time>
      </trkpt>
      <trkpt lat="45.24900714866817" lon="6.934028724208474">
        <ele>2155.60009765625</ele>
        <time>2012-06-17T09:22:05Z</time>
      </trkpt>
      <trkpt lat="45.24892165325582" lon="6.933935014531016">
        <ele>2151.39990234375</ele>
        <time>2012-06-17T09:22:09Z</time>
      </trkpt>
      <trkpt lat="45.248869182541966" lon="6.933872569352388">
        <ele>2148.60009765625</ele>
        <time>2012-06-17T09:22:13Z</time>
      </trkpt>
      <trkpt lat="45.248821992427111" lon="6.933747427538037">
        <ele>2145.60009765625</ele>
        <time>2012-06-17T09:22:19Z</time>
      </trkpt>
      <trkpt lat="45.248823501169682" lon="6.933586075901985">
        <ele>2144.800048828125</ele>
        <time>2012-06-17T09:22:24Z</time>
      </trkpt>
      <trkpt lat="45.248833727091551" lon="6.93330829963088">
        <ele>2144</ele>
        <time>2012-06-17T09:22:31Z</time>
      </trkpt>
      <trkpt lat="45.248862812295556" lon="6.932994481176138">
        <ele>2143.39990234375</ele>
        <time>2012-06-17T09:22:39Z</time>
      </trkpt>
      <trkpt lat="45.2488864492625" lon="6.932763811200857">
        <ele>2143</ele>
        <time>2012-06-17T09:22:45Z</time>
      </trkpt>
      <trkpt lat="45.248936070129275" lon="6.932574631646276">
        <ele>2144.60009765625</ele>
        <time>2012-06-17T09:22:51Z</time>
      </trkpt>
      <trkpt lat="45.248979991301894" lon="6.932466002181172">
        <ele>2146</ele>
        <time>2012-06-17T09:22:56Z</time>
      </trkpt>
      <trkpt lat="45.249068504199386" lon="6.93227481096983">
        <ele>2147</ele>
        <time>2012-06-17T09:23:01Z</time>
      </trkpt>
      <trkpt lat="45.249121896922588" lon="6.932092672213912">
        <ele>2145.800048828125</ele>
        <time>2012-06-17T09:23:06Z</time>
      </trkpt>
      <trkpt lat="45.249198842793703" lon="6.931949257850647">
        <ele>2146.39990234375</ele>
        <time>2012-06-17T09:23:11Z</time>
      </trkpt>
      <trkpt lat="45.249327840283513" lon="6.931746248155832">
        <ele>2148.199951171875</ele>
        <time>2012-06-17T09:23:18Z</time>
      </trkpt>
      <trkpt lat="45.249443259090185" lon="6.931537790223956">
        <ele>2148.800048828125</ele>
        <time>2012-06-17T09:23:25Z</time>
      </trkpt>
      <trkpt lat="45.249458346515894" lon="6.931505771353841">
        <ele>2148.800048828125</ele>
        <time>2012-06-17T09:23:28Z</time>
      </trkpt>
      <trkpt lat="45.249489946290851" lon="6.931416755542159">
        <ele>2148</ele>
        <time>2012-06-17T09:23:34Z</time>
      </trkpt>
      <trkpt lat="45.249527245759964" lon="6.931331427767873">
        <ele>2147.60009765625</ele>
        <time>2012-06-17T09:23:40Z</time>
      </trkpt>
      <trkpt lat="45.24958617053926" lon="6.931180721148849">
        <ele>2146.60009765625</ele>
        <time>2012-06-17T09:23:47Z</time>
      </trkpt>
      <trkpt lat="45.249588852748275" lon="6.931179882958531">
        <ele>2146.60009765625</ele>
        <time>2012-06-17T09:23:51Z</time>
      </trkpt>
      <trkpt lat="45.249593714252114" lon="6.931171584874392">
        <ele>2146.60009765625</ele>
        <time>2012-06-17T09:23:59Z</time>
      </trkpt>
      <trkpt lat="45.249616345390677" lon="6.931125400587916">
        <ele>2146.60009765625</ele>
        <time>2012-06-17T09:24:05Z</time>
      </trkpt>
      <trkpt lat="45.249633109197021" lon="6.93109480664134">
        <ele>2146.60009765625</ele>
        <time>2012-06-17T09:24:09Z</time>
      </trkpt>
      <trkpt lat="45.249711982905865" lon="6.930974358692765">
        <ele>2147</ele>
        <time>2012-06-17T09:24:16Z</time>
      </trkpt>
      <trkpt lat="45.249782055616379" lon="6.930862125009298">
        <ele>2147.39990234375</ele>
        <time>2012-06-17T09:24:21Z</time>
      </trkpt>
      <trkpt lat="45.249888002872467" lon="6.930725164711475">
        <ele>2149.39990234375</ele>
        <time>2012-06-17T09:24:27Z</time>
      </trkpt>
      <trkpt lat="45.250034183263779" lon="6.930575212463737">
        <ele>2152.800048828125</ele>
        <time>2012-06-17T09:24:34Z</time>
      </trkpt>
      <trkpt lat="45.250116661190987" lon="6.930467421188951">
        <ele>2154.60009765625</ele>
        <time>2012-06-17T09:24:39Z</time>
      </trkpt>
      <trkpt lat="45.250191427767277" lon="6.930317217484117">
        <ele>2155</ele>
        <time>2012-06-17T09:24:43Z</time>
      </trkpt>
      <trkpt lat="45.250286478549242" lon="6.930120494216681">
        <ele>2155.199951171875</ele>
        <time>2012-06-17T09:24:50Z</time>
      </trkpt>
      <trkpt lat="45.250381361693144" lon="6.930008511990309">
        <ele>2157.39990234375</ele>
        <time>2012-06-17T09:24:55Z</time>
      </trkpt>
      <trkpt lat="45.250442633405328" lon="6.929851938039064">
        <ele>2158</ele>
        <time>2012-06-17T09:24:59Z</time>
      </trkpt>
      <trkpt lat="45.250491835176945" lon="6.929737776517868">
        <ele>2158.60009765625</ele>
        <time>2012-06-17T09:25:04Z</time>
      </trkpt>
      <trkpt lat="45.250556794926524" lon="6.929621435701847">
        <ele>2159.800048828125</ele>
        <time>2012-06-17T09:25:08Z</time>
      </trkpt>
      <trkpt lat="45.250627789646387" lon="6.92941926419735">
        <ele>2159.800048828125</ele>
        <time>2012-06-17T09:25:14Z</time>
      </trkpt>
      <trkpt lat="45.250661484897137" lon="6.929203094914556">
        <ele>2157.800048828125</ele>
        <time>2012-06-17T09:25:19Z</time>
      </trkpt>
      <trkpt lat="45.25065578520298" lon="6.928952978923917">
        <ele>2156.800048828125</ele>
        <time>2012-06-17T09:25:25Z</time>
      </trkpt>
      <trkpt lat="45.250647235661745" lon="6.928773522377014">
        <ele>2156.39990234375</ele>
        <time>2012-06-17T09:25:30Z</time>
      </trkpt>
      <trkpt lat="45.250619659200311" lon="6.928582414984703">
        <ele>2154.800048828125</ele>
        <time>2012-06-17T09:25:35Z</time>
      </trkpt>
      <trkpt lat="45.250608846545219" lon="6.928537571802735">
        <ele>2154.199951171875</ele>
        <time>2012-06-17T09:25:39Z</time>
      </trkpt>
      <trkpt lat="45.250607253983617" lon="6.928509743884206">
        <ele>2154.199951171875</ele>
        <time>2012-06-17T09:25:48Z</time>
      </trkpt>
      <trkpt lat="45.250589232891798" lon="6.928462805226445">
        <ele>2153.199951171875</ele>
        <time>2012-06-17T09:25:54Z</time>
      </trkpt>
      <trkpt lat="45.250554196536541" lon="6.928372615948319">
        <ele>2151.39990234375</ele>
        <time>2012-06-17T09:26:00Z</time>
      </trkpt>
      <trkpt lat="45.250513711944222" lon="6.928153596818447">
        <ele>2149.199951171875</ele>
        <time>2012-06-17T09:26:06Z</time>
      </trkpt>
      <trkpt lat="45.250493008643389" lon="6.927918819710612">
        <ele>2148.39990234375</ele>
        <time>2012-06-17T09:26:12Z</time>
      </trkpt>
      <trkpt lat="45.250458978116512" lon="6.927638528868556">
        <ele>2146.39990234375</ele>
        <time>2012-06-17T09:26:19Z</time>
      </trkpt>
      <trkpt lat="45.250425282865763" lon="6.927356058731675">
        <ele>2142.39990234375</ele>
        <time>2012-06-17T09:26:26Z</time>
      </trkpt>
      <trkpt lat="45.250443890690804" lon="6.927146008238196">
        <ele>2140.60009765625</ele>
        <time>2012-06-17T09:26:31Z</time>
      </trkpt>
      <trkpt lat="45.250536678358912" lon="6.926875775679946">
        <ele>2142.800048828125</ele>
        <time>2012-06-17T09:26:39Z</time>
      </trkpt>
      <trkpt lat="45.25060691870749" lon="6.926616271957755">
        <ele>2143.60009765625</ele>
        <time>2012-06-17T09:26:46Z</time>
      </trkpt>
      <trkpt lat="45.250684786587954" lon="6.926397755742073">
        <ele>2143</ele>
        <time>2012-06-17T09:26:53Z</time>
      </trkpt>
      <trkpt lat="45.250805737450719" lon="6.926121069118381">
        <ele>2143.199951171875</ele>
        <time>2012-06-17T09:27:02Z</time>
      </trkpt>
      <trkpt lat="45.250915372744203" lon="6.9259128626436">
        <ele>2143.199951171875</ele>
        <time>2012-06-17T09:27:09Z</time>
      </trkpt>
      <trkpt lat="45.251011177897453" lon="6.925753019750118">
        <ele>2143.199951171875</ele>
        <time>2012-06-17T09:27:15Z</time>
      </trkpt>
      <trkpt lat="45.251144114881754" lon="6.925563085824251">
        <ele>2143.60009765625</ele>
        <time>2012-06-17T09:27:22Z</time>
      </trkpt>
      <trkpt lat="45.251307226717472" lon="6.925354292616248">
        <ele>2144.60009765625</ele>
        <time>2012-06-17T09:27:30Z</time>
      </trkpt>
      <trkpt lat="45.251434883102775" lon="6.925227893516421">
        <ele>2146.39990234375</ele>
        <time>2012-06-17T09:27:36Z</time>
      </trkpt>
      <trkpt lat="45.251453490927815" lon="6.925201406702399">
        <ele>2146.39990234375</ele>
        <time>2012-06-17T09:27:38Z</time>
      </trkpt>
      <trkpt lat="45.251468494534492" lon="6.925155138596892">
        <ele>2145.39990234375</ele>
        <time>2012-06-17T09:27:40Z</time>
      </trkpt>
      <trkpt lat="45.251536890864372" lon="6.925070900470018">
        <ele>2145.800048828125</ele>
        <time>2012-06-17T09:27:44Z</time>
      </trkpt>
      <trkpt lat="45.251557342708111" lon="6.925047598779202">
        <ele>2145.800048828125</ele>
        <time>2012-06-17T09:27:45Z</time>
      </trkpt>
      <trkpt lat="45.25176202878356" lon="6.924837632104754">
        <ele>2147.39990234375</ele>
        <time>2012-06-17T09:27:54Z</time>
      </trkpt>
      <trkpt lat="45.251909717917442" lon="6.924663120880723">
        <ele>2147.199951171875</ele>
        <time>2012-06-17T09:28:01Z</time>
      </trkpt>
      <trkpt lat="45.251993620768189" lon="6.924505708739162">
        <ele>2145.39990234375</ele>
        <time>2012-06-17T09:28:06Z</time>
      </trkpt>
      <trkpt lat="45.252177184447646" lon="6.924384841695428">
        <ele>2148.199951171875</ele>
        <time>2012-06-17T09:28:12Z</time>
      </trkpt>
      <trkpt lat="45.25227852165699" lon="6.9243258330971">
        <ele>2149.800048828125</ele>
        <time>2012-06-17T09:28:16Z</time>
      </trkpt>
      <trkpt lat="45.25240458548069" lon="6.92427109926939">
        <ele>2152.60009765625</ele>
        <time>2012-06-17T09:28:20Z</time>
      </trkpt>
      <trkpt lat="45.252472562715411" lon="6.924257101491094">
        <ele>2154.39990234375</ele>
        <time>2012-06-17T09:28:24Z</time>
      </trkpt>
      <trkpt lat="45.25252721272409" lon="6.924247713759542">
        <ele>2156.39990234375</ele>
        <time>2012-06-17T09:28:28Z</time>
      </trkpt>
      <trkpt lat="45.252543389797211" lon="6.924163894727826">
        <ele>2154.800048828125</ele>
        <time>2012-06-17T09:28:33Z</time>
      </trkpt>
      <trkpt lat="45.252555795013905" lon="6.924138078466058">
        <ele>2154.800048828125</ele>
        <time>2012-06-17T09:28:36Z</time>
      </trkpt>
      <trkpt lat="45.252591501921415" lon="6.92409859970212">
        <ele>2155.39990234375</ele>
        <time>2012-06-17T09:28:38Z</time>
      </trkpt>
      <trkpt lat="45.252680350095034" lon="6.923905313014984">
        <ele>2155</ele>
        <time>2012-06-17T09:28:44Z</time>
      </trkpt>
      <trkpt lat="45.252792919054627" lon="6.923705907538533">
        <ele>2156</ele>
        <time>2012-06-17T09:28:51Z</time>
      </trkpt>
      <trkpt lat="45.252868942916393" lon="6.923676403239369">
        <ele>2159</ele>
        <time>2012-06-17T09:28:55Z</time>
      </trkpt>
      <trkpt lat="45.25287514552474" lon="6.923655029386282">
        <ele>2158.800048828125</ele>
        <time>2012-06-17T09:28:56Z</time>
      </trkpt>
      <trkpt lat="45.252868691459298" lon="6.923582693561912">
        <ele>2157</ele>
        <time>2012-06-17T09:28:58Z</time>
      </trkpt>
      <trkpt lat="45.252899117767811" lon="6.923424359411001">
        <ele>2155</ele>
        <time>2012-06-17T09:29:03Z</time>
      </trkpt>
      <trkpt lat="45.252974387258291" lon="6.923163179308176">
        <ele>2153.39990234375</ele>
        <time>2012-06-17T09:29:10Z</time>
      </trkpt>
      <trkpt lat="45.253031048923731" lon="6.922923205420375">
        <ele>2151.60009765625</ele>
        <time>2012-06-17T09:29:16Z</time>
      </trkpt>
      <trkpt lat="45.253107324242592" lon="6.922639645636082">
        <ele>2149.800048828125</ele>
        <time>2012-06-17T09:29:23Z</time>
      </trkpt>
      <trkpt lat="45.253205057233572" lon="6.922372598201037">
        <ele>2150.199951171875</ele>
        <time>2012-06-17T09:29:30Z</time>
      </trkpt>
      <trkpt lat="45.253269849345088" lon="6.922227339819074">
        <ele>2151.39990234375</ele>
        <time>2012-06-17T09:29:35Z</time>
      </trkpt>
      <trkpt lat="45.253356518223882" lon="6.922023156657815">
        <ele>2153.199951171875</ele>
        <time>2012-06-17T09:29:41Z</time>
      </trkpt>
      <trkpt lat="45.253419047221541" lon="6.921782428398728">
        <ele>2153.800048828125</ele>
        <time>2012-06-17T09:29:47Z</time>
      </trkpt>
      <trkpt lat="45.253455676138401" lon="6.921643288806081">
        <ele>2154.199951171875</ele>
        <time>2012-06-17T09:29:53Z</time>
      </trkpt>
      <trkpt lat="45.253498759120703" lon="6.9214868824929">
        <ele>2155.39990234375</ele>
        <time>2012-06-17T09:29:58Z</time>
      </trkpt>
      <trkpt lat="45.253501441329718" lon="6.921480344608426">
        <ele>2155.39990234375</ele>
        <time>2012-06-17T09:30:01Z</time>
      </trkpt>
      <trkpt lat="45.253509487956762" lon="6.921467687934637">
        <ele>2155.800048828125</ele>
        <time>2012-06-17T09:30:07Z</time>
      </trkpt>
      <trkpt lat="45.25353379547596" lon="6.921450505033135">
        <ele>2157.39990234375</ele>
        <time>2012-06-17T09:30:12Z</time>
      </trkpt>
      <trkpt lat="45.25355089455843" lon="6.921434495598078">
        <ele>2158.199951171875</ele>
        <time>2012-06-17T09:30:18Z</time>
      </trkpt>
      <trkpt lat="45.253557432442904" lon="6.921332739293575">
        <ele>2157.39990234375</ele>
        <time>2012-06-17T09:30:24Z</time>
      </trkpt>
      <trkpt lat="45.253552906215191" lon="6.921240705996752">
        <ele>2156</ele>
        <time>2012-06-17T09:30:32Z</time>
      </trkpt>
      <trkpt lat="45.253553409129381" lon="6.921102236956358">
        <ele>2154.39990234375</ele>
        <time>2012-06-17T09:30:38Z</time>
      </trkpt>
      <trkpt lat="45.253565898165107" lon="6.920954547822475">
        <ele>2153.39990234375</ele>
        <time>2012-06-17T09:30:44Z</time>
      </trkpt>
      <trkpt lat="45.253585763275623" lon="6.920756986364722">
        <ele>2152.39990234375</ele>
        <time>2012-06-17T09:30:50Z</time>
      </trkpt>
      <trkpt lat="45.253615519031882" lon="6.920519191771746">
        <ele>2152.199951171875</ele>
        <time>2012-06-17T09:30:56Z</time>
      </trkpt>
      <trkpt lat="45.253626834601164" lon="6.920247618108988">
        <ele>2150.39990234375</ele>
        <time>2012-06-17T09:31:03Z</time>
      </trkpt>
      <trkpt lat="45.253662122413516" lon="6.920014601200819">
        <ele>2150.39990234375</ele>
        <time>2012-06-17T09:31:09Z</time>
      </trkpt>
      <trkpt lat="45.25371702387929" lon="6.919828439131379">
        <ele>2151.60009765625</ele>
        <time>2012-06-17T09:31:15Z</time>
      </trkpt>
      <trkpt lat="45.253785504028201" lon="6.919538341462612">
        <ele>2152</ele>
        <time>2012-06-17T09:31:22Z</time>
      </trkpt>
      <trkpt lat="45.253803776577115" lon="6.919387467205524">
        <ele>2151.39990234375</ele>
        <time>2012-06-17T09:31:27Z</time>
      </trkpt>
      <trkpt lat="45.253852475434542" lon="6.919183367863298">
        <ele>2151.800048828125</ele>
        <time>2012-06-17T09:31:32Z</time>
      </trkpt>
      <trkpt lat="45.253863455727696" lon="6.919031906872988">
        <ele>2150.60009765625</ele>
        <time>2012-06-17T09:31:36Z</time>
      </trkpt>
      <trkpt lat="45.253868317231536" lon="6.918718339875341">
        <ele>2147.39990234375</ele>
        <time>2012-06-17T09:31:43Z</time>
      </trkpt>
      <trkpt lat="45.253897905349731" lon="6.918527483940125">
        <ele>2147</ele>
        <time>2012-06-17T09:31:48Z</time>
      </trkpt>
      <trkpt lat="45.253940485417843" lon="6.91826437599957">
        <ele>2146.800048828125</ele>
        <time>2012-06-17T09:31:54Z</time>
      </trkpt>
      <trkpt lat="45.25393545627594" lon="6.917981822043657">
        <ele>2144.39990234375</ele>
        <time>2012-06-17T09:32:01Z</time>
      </trkpt>
      <trkpt lat="45.253944676369429" lon="6.917816614732146">
        <ele>2143.60009765625</ele>
        <time>2012-06-17T09:32:06Z</time>
      </trkpt>
      <trkpt lat="45.253979293629527" lon="6.917610252276063">
        <ele>2143.800048828125</ele>
        <time>2012-06-17T09:32:12Z</time>
      </trkpt>
      <trkpt lat="45.254022460430861" lon="6.917400285601616">
        <ele>2144</ele>
        <time>2012-06-17T09:32:18Z</time>
      </trkpt>
      <trkpt lat="45.254106530919671" lon="6.917146649211645">
        <ele>2145.60009765625</ele>
        <time>2012-06-17T09:32:25Z</time>
      </trkpt>
      <trkpt lat="45.254146009683609" lon="6.917022094130516">
        <ele>2146.199951171875</ele>
        <time>2012-06-17T09:32:29Z</time>
      </trkpt>
      <trkpt lat="45.25421055033803" lon="6.916865771636367">
        <ele>2147.39990234375</ele>
        <time>2012-06-17T09:32:34Z</time>
      </trkpt>
      <trkpt lat="45.254349606111646" lon="6.916748257353902">
        <ele>2152.199951171875</ele>
        <time>2012-06-17T09:32:40Z</time>
      </trkpt>
      <trkpt lat="45.254455218091607" lon="6.916589504107833">
        <ele>2154.39990234375</ele>
        <time>2012-06-17T09:32:46Z</time>
      </trkpt>
      <trkpt lat="45.254528811201453" lon="6.916368808597326">
        <ele>2153.800048828125</ele>
        <time>2012-06-17T09:32:52Z</time>
      </trkpt>
      <trkpt lat="45.254610283300281" lon="6.916173342615366">
        <ele>2153.800048828125</ele>
        <time>2012-06-17T09:32:58Z</time>
      </trkpt>
      <trkpt lat="45.254706759005785" lon="6.915990114212036">
        <ele>2154.800048828125</ele>
        <time>2012-06-17T09:33:04Z</time>
      </trkpt>
      <trkpt lat="45.25480767711997" lon="6.915829600766301">
        <ele>2156.39990234375</ele>
        <time>2012-06-17T09:33:11Z</time>
      </trkpt>
      <trkpt lat="45.254818657413125" lon="6.915820296853781">
        <ele>2156.800048828125</ele>
        <time>2012-06-17T09:33:15Z</time>
      </trkpt>
      <trkpt lat="45.254819914698601" lon="6.915823230519891">
        <ele>2156.800048828125</ele>
        <time>2012-06-17T09:33:32Z</time>
      </trkpt>
      <trkpt lat="45.254804659634829" lon="6.915861619636416">
        <ele>2156.800048828125</ele>
        <time>2012-06-17T09:34:27Z</time>
      </trkpt>
      <trkpt lat="45.254807341843843" lon="6.915863044559956">
        <ele>2157</ele>
        <time>2012-06-17T09:34:33Z</time>
      </trkpt>
      <trkpt lat="45.254822429269552" lon="6.915830271318555">
        <ele>2157</ele>
        <time>2012-06-17T09:35:04Z</time>
      </trkpt>
      <trkpt lat="45.254863668233156" lon="6.915771765634418">
        <ele>2158</ele>
        <time>2012-06-17T09:35:41Z</time>
      </trkpt>
      <trkpt lat="45.25490490719676" lon="6.915708063170314">
        <ele>2159</ele>
        <time>2012-06-17T09:35:48Z</time>
      </trkpt>
      <trkpt lat="45.254961820319295" lon="6.915556769818068">
        <ele>2159.39990234375</ele>
        <time>2012-06-17T09:35:59Z</time>
      </trkpt>
      <trkpt lat="45.254994761198759" lon="6.9154342263937">
        <ele>2159</ele>
        <time>2012-06-17T09:36:07Z</time>
      </trkpt>
      <trkpt lat="45.25503390468657" lon="6.915284609422088">
        <ele>2158.60009765625</ele>
        <time>2012-06-17T09:36:18Z</time>
      </trkpt>
      <trkpt lat="45.255071204155684" lon="6.915175728499889">
        <ele>2158.800048828125</ele>
        <time>2012-06-17T09:36:28Z</time>
      </trkpt>
      <trkpt lat="45.255146054551005" lon="6.915084701031447">
        <ele>2160.800048828125</ele>
        <time>2012-06-17T09:36:39Z</time>
      </trkpt>
      <trkpt lat="45.255212942138314" lon="6.915003396570683">
        <ele>2162.60009765625</ele>
        <time>2012-06-17T09:36:49Z</time>
      </trkpt>
      <trkpt lat="45.255278656259179" lon="6.9149265345186">
        <ele>2163.800048828125</ele>
        <time>2012-06-17T09:36:59Z</time>
      </trkpt>
      <trkpt lat="45.255307741463184" lon="6.914896611124277">
        <ele>2164.39990234375</ele>
        <time>2012-06-17T09:37:08Z</time>
      </trkpt>
      <trkpt lat="45.255357697606087" lon="6.914851348847151">
        <ele>2165.800048828125</ele>
        <time>2012-06-17T09:37:23Z</time>
      </trkpt>
      <trkpt lat="45.255443695932627" lon="6.914785215631127">
        <ele>2168</ele>
        <time>2012-06-17T09:37:36Z</time>
      </trkpt>
      <trkpt lat="45.255474206060171" lon="6.914809690788388">
        <ele>2169.800048828125</ele>
        <time>2012-06-17T09:37:44Z</time>
      </trkpt>
      <trkpt lat="45.255466243252158" lon="6.914893006905913">
        <ele>2171.39990234375</ele>
        <time>2012-06-17T09:37:52Z</time>
      </trkpt>
      <trkpt lat="45.255468003451824" lon="6.914969952777028">
        <ele>2173.199951171875</ele>
        <time>2012-06-17T09:37:59Z</time>
      </trkpt>
      <trkpt lat="45.255463644862175" lon="6.915019657462835">
        <ele>2174</ele>
        <time>2012-06-17T09:38:05Z</time>
      </trkpt>
      <trkpt lat="45.255456771701574" lon="6.915086125954986">
        <ele>2174.800048828125</ele>
        <time>2012-06-17T09:38:21Z</time>
      </trkpt>
      <trkpt lat="45.255439253523946" lon="6.91519626416266">
        <ele>2176</ele>
        <time>2012-06-17T09:38:30Z</time>
      </trkpt>
      <trkpt lat="45.255418801680207" lon="6.915338672697544">
        <ele>2177.39990234375</ele>
        <time>2012-06-17T09:38:42Z</time>
      </trkpt>
      <trkpt lat="45.255402624607086" lon="6.915436908602715">
        <ele>2178.39990234375</ele>
        <time>2012-06-17T09:38:52Z</time>
      </trkpt>
      <trkpt lat="45.255391392856836" lon="6.915520895272493">
        <ele>2179.39990234375</ele>
        <time>2012-06-17T09:39:00Z</time>
      </trkpt>
      <trkpt lat="45.255384687334299" lon="6.915585771203041">
        <ele>2180.199951171875</ele>
        <time>2012-06-17T09:39:07Z</time>
      </trkpt>
      <trkpt lat="45.25539449416101" lon="6.91559205763042">
        <ele>2180.800048828125</ele>
        <time>2012-06-17T09:39:15Z</time>
      </trkpt>
      <trkpt lat="45.255417292937636" lon="6.915556434541941">
        <ele>2181.199951171875</ele>
        <time>2012-06-17T09:39:21Z</time>
      </trkpt>
      <trkpt lat="45.255450149998069" lon="6.915513854473829">
        <ele>2182</ele>
        <time>2012-06-17T09:39:27Z</time>
      </trkpt>
      <trkpt lat="45.255495076999068" lon="6.915451744571328">
        <ele>2183</ele>
        <time>2012-06-17T09:39:36Z</time>
      </trkpt>
      <trkpt lat="45.255550146102905" lon="6.91538829356432">
        <ele>2184.60009765625</ele>
        <time>2012-06-17T09:39:46Z</time>
      </trkpt>
      <trkpt lat="45.255603455007076" lon="6.915330123156309">
        <ele>2186</ele>
        <time>2012-06-17T09:39:56Z</time>
      </trkpt>
      <trkpt lat="45.25563589297235" lon="6.915286621078849">
        <ele>2186.60009765625</ele>
        <time>2012-06-17T09:40:02Z</time>
      </trkpt>
      <trkpt lat="45.255690794438124" lon="6.915233228355646">
        <ele>2188.199951171875</ele>
        <time>2012-06-17T09:40:13Z</time>
      </trkpt>
      <trkpt lat="45.255741756409407" lon="6.915188049897552">
        <ele>2189.60009765625</ele>
        <time>2012-06-17T09:40:22Z</time>
      </trkpt>
      <trkpt lat="45.255791880190372" lon="6.915138177573681">
        <ele>2191</ele>
        <time>2012-06-17T09:40:32Z</time>
      </trkpt>
      <trkpt lat="45.255850302055478" lon="6.91508294083178">
        <ele>2192.39990234375</ele>
        <time>2012-06-17T09:40:42Z</time>
      </trkpt>
      <trkpt lat="45.255904532968998" lon="6.915028039366007">
        <ele>2193.39990234375</ele>
        <time>2012-06-17T09:40:52Z</time>
      </trkpt>
      <trkpt lat="45.255955494940281" lon="6.914982944726944">
        <ele>2194.199951171875</ele>
        <time>2012-06-17T09:41:00Z</time>
      </trkpt>
      <trkpt lat="45.256012575700879" lon="6.914936173707247">
        <ele>2195.39990234375</ele>
        <time>2012-06-17T09:41:09Z</time>
      </trkpt>
      <trkpt lat="45.256074937060475" lon="6.914899293333292">
        <ele>2196.800048828125</ele>
        <time>2012-06-17T09:41:18Z</time>
      </trkpt>
      <trkpt lat="45.256132939830422" lon="6.914869118481875">
        <ele>2198.39990234375</ele>
        <time>2012-06-17T09:41:26Z</time>
      </trkpt>
      <trkpt lat="45.256195468828082" lon="6.91485763527453">
        <ele>2200.39990234375</ele>
        <time>2012-06-17T09:41:35Z</time>
      </trkpt>
      <trkpt lat="45.256210891529918" lon="6.914797788485885">
        <ele>2199.60009765625</ele>
        <time>2012-06-17T09:41:40Z</time>
      </trkpt>
      <trkpt lat="45.256261769682169" lon="6.914743976667523">
        <ele>2200.39990234375</ele>
        <time>2012-06-17T09:41:47Z</time>
      </trkpt>
      <trkpt lat="45.256322035565972" lon="6.91468563862145">
        <ele>2201.199951171875</ele>
        <time>2012-06-17T09:41:55Z</time>
      </trkpt>
      <trkpt lat="45.256333015859127" lon="6.914684632793069">
        <ele>2201.60009765625</ele>
        <time>2012-06-17T09:42:00Z</time>
      </trkpt>
      <trkpt lat="45.256344750523567" lon="6.914687231183052">
        <ele>2202.199951171875</ele>
        <time>2012-06-17T09:42:30Z</time>
      </trkpt>
      <trkpt lat="45.256351372227073" lon="6.914683375507593">
        <ele>2202.199951171875</ele>
        <time>2012-06-17T09:43:30Z</time>
      </trkpt>
      <trkpt lat="45.256359670311213" lon="6.91469251178205">
        <ele>2202.800048828125</ele>
        <time>2012-06-17T09:43:49Z</time>
      </trkpt>
      <trkpt lat="45.256395796313882" lon="6.91463727504015">
        <ele>2202.800048828125</ele>
        <time>2012-06-17T09:43:59Z</time>
      </trkpt>
      <trkpt lat="45.256445249542594" lon="6.914512300863862">
        <ele>2201.800048828125</ele>
        <time>2012-06-17T09:44:04Z</time>
      </trkpt>
      <trkpt lat="45.256498558446765" lon="6.914386823773384">
        <ele>2200.800048828125</ele>
        <time>2012-06-17T09:44:09Z</time>
      </trkpt>
      <trkpt lat="45.256498055532575" lon="6.914219772443175">
        <ele>2196.800048828125</ele>
        <time>2012-06-17T09:44:13Z</time>
      </trkpt>
      <trkpt lat="45.256533678621054" lon="6.914057414978743">
        <ele>2195</ele>
        <time>2012-06-17T09:44:17Z</time>
      </trkpt>
      <trkpt lat="45.256588747724891" lon="6.913862200453877">
        <ele>2193.800048828125</ele>
        <time>2012-06-17T09:44:22Z</time>
      </trkpt>
      <trkpt lat="45.256585814058781" lon="6.913688275963068">
        <ele>2190.60009765625</ele>
        <time>2012-06-17T09:44:26Z</time>
      </trkpt>
      <trkpt lat="45.256615905091166" lon="6.913444027304649">
        <ele>2187.39990234375</ele>
        <time>2012-06-17T09:44:31Z</time>
      </trkpt>
      <trkpt lat="45.256677931174636" lon="6.913179745897651">
        <ele>2185.199951171875</ele>
        <time>2012-06-17T09:44:36Z</time>
      </trkpt>
      <trkpt lat="45.256767449900508" lon="6.912876321002841">
        <ele>2183.39990234375</ele>
        <time>2012-06-17T09:44:42Z</time>
      </trkpt>
      <trkpt lat="45.256814388558269" lon="6.912621092051268">
        <ele>2180.60009765625</ele>
        <time>2012-06-17T09:44:46Z</time>
      </trkpt>
      <trkpt lat="45.256872726604342" lon="6.912329150363803">
        <ele>2178.199951171875</ele>
        <time>2012-06-17T09:44:51Z</time>
      </trkpt>
      <trkpt lat="45.256941039115191" lon="6.912151370197535">
        <ele>2177.60009765625</ele>
        <time>2012-06-17T09:44:54Z</time>
      </trkpt>
      <trkpt lat="45.256960233673453" lon="6.912084817886353">
        <ele>2177</ele>
        <time>2012-06-17T09:44:55Z</time>
      </trkpt>
      <trkpt lat="45.257131056860089" lon="6.911605373024941">
        <ele>2173.60009765625</ele>
        <time>2012-06-17T09:45:02Z</time>
      </trkpt>
      <trkpt lat="45.257181013002992" lon="6.911474196240306">
        <ele>2171.800048828125</ele>
        <time>2012-06-17T09:45:04Z</time>
      </trkpt>
      <trkpt lat="45.257239183411002" lon="6.911364728584886">
        <ele>2170.60009765625</ele>
        <time>2012-06-17T09:45:06Z</time>
      </trkpt>
      <trkpt lat="45.257307915017009" lon="6.911227768287063">
        <ele>2168.800048828125</ele>
        <time>2012-06-17T09:45:09Z</time>
      </trkpt>
      <trkpt lat="45.257341861724854" lon="6.91118904389441">
        <ele>2168.39990234375</ele>
        <time>2012-06-17T09:45:10Z</time>
      </trkpt>
      <trkpt lat="45.25737882591784" lon="6.911155767738819">
        <ele>2168</ele>
        <time>2012-06-17T09:45:11Z</time>
      </trkpt>
      <trkpt lat="45.257512517273426" lon="6.911078318953514">
        <ele>2168</ele>
        <time>2012-06-17T09:45:15Z</time>
      </trkpt>
      <trkpt lat="45.257529783993959" lon="6.911061806604266">
        <ele>2168</ele>
        <time>2012-06-17T09:45:16Z</time>
      </trkpt>
      <trkpt lat="45.25761729106307" lon="6.910993158817291">
        <ele>2168.199951171875</ele>
        <time>2012-06-17T09:45:20Z</time>
      </trkpt>
      <trkpt lat="45.257677724584937" lon="6.9109271094203">
        <ele>2167.800048828125</ele>
        <time>2012-06-17T09:45:25Z</time>
      </trkpt>
      <trkpt lat="45.257671438157558" lon="6.910927444696426">
        <ele>2167.800048828125</ele>
        <time>2012-06-17T09:45:42Z</time>
      </trkpt>
      <trkpt lat="45.257692392915487" lon="6.910870112478733">
        <ele>2166.800048828125</ele>
        <time>2012-06-17T09:45:50Z</time>
      </trkpt>
      <trkpt lat="45.257745198905468" lon="6.910799285396934">
        <ele>2166.199951171875</ele>
        <time>2012-06-17T09:45:57Z</time>
      </trkpt>
      <trkpt lat="45.257754335179925" lon="6.910798698663712">
        <ele>2166.199951171875</ele>
        <time>2012-06-17T09:45:58Z</time>
      </trkpt>
      <trkpt lat="45.257805967703462" lon="6.910787718370557">
        <ele>2166.800048828125</ele>
        <time>2012-06-17T09:46:03Z</time>
      </trkpt>
      <trkpt lat="45.257838908582926" lon="6.910770032554865">
        <ele>2167</ele>
        <time>2012-06-17T09:46:07Z</time>
      </trkpt>
      <trkpt lat="45.257843937724829" lon="6.91073214635253">
        <ele>2166.199951171875</ele>
        <time>2012-06-17T09:46:10Z</time>
      </trkpt>
      <trkpt lat="45.257815103977919" lon="6.910675819963217">
        <ele>2164.60009765625</ele>
        <time>2012-06-17T09:46:14Z</time>
      </trkpt>
      <trkpt lat="45.257802782580256" lon="6.910643298178911">
        <ele>2163.800048828125</ele>
        <time>2012-06-17T09:46:15Z</time>
      </trkpt>
      <trkpt lat="45.257784593850374" lon="6.910572219640017">
        <ele>2162</ele>
        <time>2012-06-17T09:46:18Z</time>
      </trkpt>
      <trkpt lat="45.257783671841025" lon="6.910573225468397">
        <ele>2162</ele>
        <time>2012-06-17T09:46:19Z</time>
      </trkpt>
      <trkpt lat="45.257765734568238" lon="6.910552941262722">
        <ele>2161.199951171875</ele>
        <time>2012-06-17T09:46:36Z</time>
      </trkpt>
      <trkpt lat="45.257779229432344" lon="6.910500722005963">
        <ele>2160.39990234375</ele>
        <time>2012-06-17T09:46:44Z</time>
      </trkpt>
      <trkpt lat="45.257849469780922" lon="6.910490412265062">
        <ele>2161.199951171875</ele>
        <time>2012-06-17T09:46:48Z</time>
      </trkpt>
      <trkpt lat="45.257902191951871" lon="6.910449676215649">
        <ele>2161.199951171875</ele>
        <time>2012-06-17T09:46:50Z</time>
      </trkpt>
      <trkpt lat="45.257940581068397" lon="6.91034909337759">
        <ele>2159.800048828125</ele>
        <time>2012-06-17T09:46:52Z</time>
      </trkpt>
      <trkpt lat="45.257920380681753" lon="6.910176509991288">
        <ele>2155.800048828125</ele>
        <time>2012-06-17T09:46:55Z</time>
      </trkpt>
      <trkpt lat="45.257938988506794" lon="6.909971321001649">
        <ele>2151.800048828125</ele>
        <time>2012-06-17T09:47:00Z</time>
      </trkpt>
      <trkpt lat="45.258058346807957" lon="6.909724557772279">
        <ele>2148.39990234375</ele>
        <time>2012-06-17T09:47:05Z</time>
      </trkpt>
      <trkpt lat="45.258182398974895" lon="6.909518111497164">
        <ele>2146</ele>
        <time>2012-06-17T09:47:09Z</time>
      </trkpt>
      <trkpt lat="45.258204778656363" lon="6.90939037129283">
        <ele>2143.60009765625</ele>
        <time>2012-06-17T09:47:11Z</time>
      </trkpt>
      <trkpt lat="45.258257333189249" lon="6.909221056848764">
        <ele>2140.800048828125</ele>
        <time>2012-06-17T09:47:14Z</time>
      </trkpt>
      <trkpt lat="45.258268397301435" lon="6.909178728237748">
        <ele>2140</ele>
        <time>2012-06-17T09:47:15Z</time>
      </trkpt>
      <trkpt lat="45.258308630436659" lon="6.909063057973981">
        <ele>2138.60009765625</ele>
        <time>2012-06-17T09:47:18Z</time>
      </trkpt>
      <trkpt lat="45.258345594629645" lon="6.908966582268477">
        <ele>2137.800048828125</ele>
        <time>2012-06-17T09:47:21Z</time>
      </trkpt>
      <trkpt lat="45.258424216881394" lon="6.908868011087179">
        <ele>2138.199951171875</ele>
        <time>2012-06-17T09:47:26Z</time>
      </trkpt>
      <trkpt lat="45.258544413372874" lon="6.908674640581012">
        <ele>2138</ele>
        <time>2012-06-17T09:47:32Z</time>
      </trkpt>
      <trkpt lat="45.258670141920447" lon="6.90846593119204">
        <ele>2137.199951171875</ele>
        <time>2012-06-17T09:47:37Z</time>
      </trkpt>
      <trkpt lat="45.258808610960841" lon="6.908257808536291">
        <ele>2136.39990234375</ele>
        <time>2012-06-17T09:47:43Z</time>
      </trkpt>
      <trkpt lat="45.258910534903407" lon="6.908078519627452">
        <ele>2135</ele>
        <time>2012-06-17T09:47:48Z</time>
      </trkpt>
      <trkpt lat="45.25905386544764" lon="6.907936362549663">
        <ele>2135</ele>
        <time>2012-06-17T09:47:53Z</time>
      </trkpt>
      <trkpt lat="45.259167607873678" lon="6.907759672030807">
        <ele>2133.199951171875</ele>
        <time>2012-06-17T09:47:57Z</time>
      </trkpt>
      <trkpt lat="45.259275399148464" lon="6.9075614400208">
        <ele>2131</ele>
        <time>2012-06-17T09:48:02Z</time>
      </trkpt>
      <trkpt lat="45.25939928367734" lon="6.90738458186388">
        <ele>2130.39990234375</ele>
        <time>2012-06-17T09:48:06Z</time>
      </trkpt>
      <trkpt lat="45.259538842365146" lon="6.907110074535012">
        <ele>2128.39990234375</ele>
        <time>2012-06-17T09:48:11Z</time>
      </trkpt>
      <trkpt lat="45.259604556486011" lon="6.906951991841197">
        <ele>2127</ele>
        <time>2012-06-17T09:48:15Z</time>
      </trkpt>
      <trkpt lat="45.259601874276996" lon="6.90691938623786">
        <ele>2126.199951171875</ele>
        <time>2012-06-17T09:48:16Z</time>
      </trkpt>
      <trkpt lat="45.259547224268317" lon="6.90680455416441">
        <ele>2122.800048828125</ele>
        <time>2012-06-17T09:48:19Z</time>
      </trkpt>
      <trkpt lat="45.259522581472993" lon="6.906762141734362">
        <ele>2121.60009765625</ele>
        <time>2012-06-17T09:48:20Z</time>
      </trkpt>
      <trkpt lat="45.259405234828591" lon="6.906532645225525">
        <ele>2115</ele>
        <time>2012-06-17T09:48:25Z</time>
      </trkpt>
      <trkpt lat="45.259338766336441" lon="6.906319158151746">
        <ele>2110.199951171875</ele>
        <time>2012-06-17T09:48:30Z</time>
      </trkpt>
      <trkpt lat="45.259361313655972" lon="6.906074909493327">
        <ele>2106.800048828125</ele>
        <time>2012-06-17T09:48:35Z</time>
      </trkpt>
      <trkpt lat="45.259367432445288" lon="6.905922526493669">
        <ele>2104.60009765625</ele>
        <time>2012-06-17T09:48:39Z</time>
      </trkpt>
      <trkpt lat="45.259410012513399" lon="6.905752373859286">
        <ele>2103</ele>
        <time>2012-06-17T09:48:42Z</time>
      </trkpt>
      <trkpt lat="45.259571531787515" lon="6.905457498505712">
        <ele>2102.60009765625</ele>
        <time>2012-06-17T09:48:47Z</time>
      </trkpt>
      <trkpt lat="45.259627774357796" lon="6.905319364741445">
        <ele>2101.800048828125</ele>
        <time>2012-06-17T09:48:49Z</time>
      </trkpt>
      <trkpt lat="45.259703043848276" lon="6.905119037255645">
        <ele>2100.800048828125</ele>
        <time>2012-06-17T09:48:52Z</time>
      </trkpt>
      <trkpt lat="45.259865904226899" lon="6.904668593779206">
        <ele>2100</ele>
        <time>2012-06-17T09:48:58Z</time>
      </trkpt>
      <trkpt lat="45.260087521746755" lon="6.904192920774221">
        <ele>2099</ele>
        <time>2012-06-17T09:49:04Z</time>
      </trkpt>
      <trkpt lat="45.2601801417768" lon="6.904014470055699">
        <ele>2098.800048828125</ele>
        <time>2012-06-17T09:49:07Z</time>
      </trkpt>
      <trkpt lat="45.2601801417768" lon="6.90395730547607">
        <ele>2098.39990234375</ele>
        <time>2012-06-17T09:49:08Z</time>
      </trkpt>
      <trkpt lat="45.260098418220878" lon="6.903791427612305">
        <ele>2097</ele>
        <time>2012-06-17T09:49:11Z</time>
      </trkpt>
      <trkpt lat="45.260055586695671" lon="6.903467299416661">
        <ele>2095.39990234375</ele>
        <time>2012-06-17T09:49:15Z</time>
      </trkpt>
      <trkpt lat="45.260152565315366" lon="6.903220703825355">
        <ele>2094.60009765625</ele>
        <time>2012-06-17T09:49:18Z</time>
      </trkpt>
      <trkpt lat="45.260210232809186" lon="6.903064800426364">
        <ele>2094.199951171875</ele>
        <time>2012-06-17T09:49:20Z</time>
      </trkpt>
      <trkpt lat="45.26024074293673" lon="6.902863215655088">
        <ele>2093.800048828125</ele>
        <time>2012-06-17T09:49:23Z</time>
      </trkpt>
      <trkpt lat="45.260244347155094" lon="6.902827927842736">
        <ele>2093.800048828125</ele>
        <time>2012-06-17T09:49:24Z</time>
      </trkpt>
      <trkpt lat="45.260253818705678" lon="6.902734972536564">
        <ele>2093.60009765625</ele>
        <time>2012-06-17T09:49:27Z</time>
      </trkpt>
      <trkpt lat="45.260239904746413" lon="6.902602622285485">
        <ele>2093.39990234375</ele>
        <time>2012-06-17T09:49:33Z</time>
      </trkpt>
      <trkpt lat="45.26021090336144" lon="6.90238636918366">
        <ele>2093.199951171875</ele>
        <time>2012-06-17T09:49:39Z</time>
      </trkpt>
      <trkpt lat="45.260128006339073" lon="6.90208638086915">
        <ele>2092.60009765625</ele>
        <time>2012-06-17T09:49:46Z</time>
      </trkpt>
      <trkpt lat="45.260125575587153" lon="6.902015386149287">
        <ele>2092.199951171875</ele>
        <time>2012-06-17T09:49:48Z</time>
      </trkpt>
      <trkpt lat="45.260139992460608" lon="6.901943888515234">
        <ele>2092</ele>
        <time>2012-06-17T09:49:50Z</time>
      </trkpt>
      <trkpt lat="45.260183410719037" lon="6.901824865490198">
        <ele>2091.60009765625</ele>
        <time>2012-06-17T09:49:53Z</time>
      </trkpt>
      <trkpt lat="45.260232947766781" lon="6.90167591907084">
        <ele>2091</ele>
        <time>2012-06-17T09:49:56Z</time>
      </trkpt>
      <trkpt lat="45.260337051004171" lon="6.901439297944307">
        <ele>2089.800048828125</ele>
        <time>2012-06-17T09:50:02Z</time>
      </trkpt>
      <trkpt lat="45.260349120944738" lon="6.901232767850161">
        <ele>2088.60009765625</ele>
        <time>2012-06-17T09:50:08Z</time>
      </trkpt>
      <trkpt lat="45.260325567796826" lon="6.901042079553008">
        <ele>2087.60009765625</ele>
        <time>2012-06-17T09:50:14Z</time>
      </trkpt>
      <trkpt lat="45.260311486199498" lon="6.901018861681223">
        <ele>2087.39990234375</ele>
        <time>2012-06-17T09:50:19Z</time>
      </trkpt>
      <trkpt lat="45.260311905294657" lon="6.901022801175714">
        <ele>2087.39990234375</ele>
        <time>2012-06-17T09:50:25Z</time>
      </trkpt>
      <trkpt lat="45.260297991335392" lon="6.901041157543659">
        <ele>2087.60009765625</ele>
        <time>2012-06-17T09:51:38Z</time>
      </trkpt>
      <trkpt lat="45.26028566993773" lon="6.901050293818116">
        <ele>2087.60009765625</ele>
        <time>2012-06-17T09:51:48Z</time>
      </trkpt>
      <trkpt lat="45.260338056832552" lon="6.901053478941321">
        <ele>2087.60009765625</ele>
        <time>2012-06-17T09:52:07Z</time>
      </trkpt>
      <trkpt lat="45.260342415422201" lon="6.901049455627799">
        <ele>2087.60009765625</ele>
        <time>2012-06-17T09:52:13Z</time>
      </trkpt>
      <trkpt lat="45.260332860052586" lon="6.901043253019452">
        <ele>2087.60009765625</ele>
        <time>2012-06-17T09:52:18Z</time>
      </trkpt>
      <trkpt lat="45.260322885587811" lon="6.90105046145618">
        <ele>2087.60009765625</ele>
        <time>2012-06-17T09:52:25Z</time>
      </trkpt>
      <trkpt lat="45.260267145931721" lon="6.901059346273542">
        <ele>2087.60009765625</ele>
        <time>2012-06-17T09:52:32Z</time>
      </trkpt>
      <trkpt lat="45.260209310799837" lon="6.90106906928122">
        <ele>2087.60009765625</ele>
        <time>2012-06-17T09:52:38Z</time>
      </trkpt>
      <trkpt lat="45.260141836479306" lon="6.901025315746665">
        <ele>2087.199951171875</ele>
        <time>2012-06-17T09:52:45Z</time>
      </trkpt>
      <trkpt lat="45.260120211169124" lon="6.901017352938652">
        <ele>2087.199951171875</ele>
        <time>2012-06-17T09:52:47Z</time>
      </trkpt>
      <trkpt lat="45.260105961933732" lon="6.901002349331975">
        <ele>2087.199951171875</ele>
        <time>2012-06-17T09:52:53Z</time>
      </trkpt>
      <trkpt lat="45.260146530345082" lon="6.901004612445831">
        <ele>2087.199951171875</ele>
        <time>2012-06-17T09:52:58Z</time>
      </trkpt>
      <trkpt lat="45.260221548378468" lon="6.901029590517283">
        <ele>2087.39990234375</ele>
        <time>2012-06-17T09:53:06Z</time>
      </trkpt>
      <trkpt lat="45.260280054062605" lon="6.901037972420454">
        <ele>2087.39990234375</ele>
        <time>2012-06-17T09:53:13Z</time>
      </trkpt>
      <trkpt lat="45.260344929993153" lon="6.901015508919954">
        <ele>2087.39990234375</ele>
        <time>2012-06-17T09:53:34Z</time>
      </trkpt>
      <trkpt lat="45.260354401543736" lon="6.901022298261523">
        <ele>2087.39990234375</ele>
        <time>2012-06-17T09:53:35Z</time>
      </trkpt>
      <trkpt lat="45.260353982448578" lon="6.901037972420454">
        <ele>2087.60009765625</ele>
        <time>2012-06-17T09:53:39Z</time>
      </trkpt>
      <trkpt lat="45.260311737656593" lon="6.901004863902926">
        <ele>2087.39990234375</ele>
        <time>2012-06-17T09:55:07Z</time>
      </trkpt>
      <trkpt lat="45.260312911123037" lon="6.901009725406766">
        <ele>2087.39990234375</ele>
        <time>2012-06-17T09:55:13Z</time>
      </trkpt>
      <trkpt lat="45.260340655222535" lon="6.900904281064868">
        <ele>2086.800048828125</ele>
        <time>2012-06-17T09:56:26Z</time>
      </trkpt>
      <trkpt lat="45.260337218642235" lon="6.900685848668218">
        <ele>2086.39990234375</ele>
        <time>2012-06-17T09:56:32Z</time>
      </trkpt>
      <trkpt lat="45.260360520333052" lon="6.900600101798773">
        <ele>2086.39990234375</ele>
        <time>2012-06-17T09:56:36Z</time>
      </trkpt>
      <trkpt lat="45.260405950248241" lon="6.900449814274907">
        <ele>2086</ele>
        <time>2012-06-17T09:56:41Z</time>
      </trkpt>
      <trkpt lat="45.260418187826872" lon="6.900387536734343">
        <ele>2086</ele>
        <time>2012-06-17T09:56:44Z</time>
      </trkpt>
      <trkpt lat="45.260411985218525" lon="6.900377562269568">
        <ele>2086</ele>
        <time>2012-06-17T09:56:45Z</time>
      </trkpt>
      <trkpt lat="45.260356413200498" lon="6.900315117090941">
        <ele>2086.39990234375</ele>
        <time>2012-06-17T09:56:48Z</time>
      </trkpt>
      <trkpt lat="45.260329255834222" lon="6.900285026058555">
        <ele>2086.60009765625</ele>
        <time>2012-06-17T09:56:49Z</time>
      </trkpt>
      <trkpt lat="45.260242084041238" lon="6.900214282795787">
        <ele>2087.39990234375</ele>
        <time>2012-06-17T09:56:54Z</time>
      </trkpt>
      <trkpt lat="45.260177878662944" lon="6.900222413241863">
        <ele>2088</ele>
        <time>2012-06-17T09:57:00Z</time>
      </trkpt>
      <trkpt lat="45.260180309414864" lon="6.900225514546037">
        <ele>2088</ele>
        <time>2012-06-17T09:57:09Z</time>
      </trkpt>
      <trkpt lat="45.260136974975467" lon="6.900277147069573">
        <ele>2088.199951171875</ele>
        <time>2012-06-17T09:57:16Z</time>
      </trkpt>
      <trkpt lat="45.260044354945421" lon="6.900425758212805">
        <ele>2088.199951171875</ele>
        <time>2012-06-17T09:57:23Z</time>
      </trkpt>
      <trkpt lat="45.259961960837245" lon="6.900556599721313">
        <ele>2087.800048828125</ele>
        <time>2012-06-17T09:57:30Z</time>
      </trkpt>
      <trkpt lat="45.259955758228898" lon="6.900578560307622">
        <ele>2087.60009765625</ele>
        <time>2012-06-17T09:57:34Z</time>
      </trkpt>
      <trkpt lat="45.25993388146162" lon="6.900632036849856">
        <ele>2087.199951171875</ele>
        <time>2012-06-17T09:58:03Z</time>
      </trkpt>
      <trkpt lat="45.259860288351774" lon="6.900792885571718">
        <ele>2086.199951171875</ele>
        <time>2012-06-17T09:58:08Z</time>
      </trkpt>
      <trkpt lat="45.259751575067639" lon="6.90099916420877">
        <ele>2086.199951171875</ele>
        <time>2012-06-17T09:58:15Z</time>
      </trkpt>
      <trkpt lat="45.259622158482671" lon="6.90111349336803">
        <ele>2086</ele>
        <time>2012-06-17T09:58:21Z</time>
      </trkpt>
      <trkpt lat="45.259509421885014" lon="6.9013153295964">
        <ele>2085.60009765625</ele>
        <time>2012-06-17T09:58:28Z</time>
      </trkpt>
      <trkpt lat="45.259457370266318" lon="6.901541221886873">
        <ele>2085.199951171875</ele>
        <time>2012-06-17T09:58:35Z</time>
      </trkpt>
      <trkpt lat="45.259336503222585" lon="6.90177314914763">
        <ele>2084.199951171875</ele>
        <time>2012-06-17T09:58:43Z</time>
      </trkpt>
      <trkpt lat="45.259230136871338" lon="6.901975991204381">
        <ele>2083.39990234375</ele>
        <time>2012-06-17T09:58:50Z</time>
      </trkpt>
      <trkpt lat="45.259156711399555" lon="6.902117813006043">
        <ele>2083</ele>
        <time>2012-06-17T09:58:57Z</time>
      </trkpt>
      <trkpt lat="45.259084710851312" lon="6.902253767475486">
        <ele>2082</ele>
        <time>2012-06-17T09:59:04Z</time>
      </trkpt>
      <trkpt lat="45.258994270116091" lon="6.902467589825392">
        <ele>2080.800048828125</ele>
        <time>2012-06-17T09:59:10Z</time>
      </trkpt>
      <trkpt lat="45.25888723321259" lon="6.902821892872453">
        <ele>2079.39990234375</ele>
        <time>2012-06-17T09:59:17Z</time>
      </trkpt>
      <trkpt lat="45.258758990094066" lon="6.903345678001642">
        <ele>2077.199951171875</ele>
        <time>2012-06-17T09:59:25Z</time>
      </trkpt>
      <trkpt lat="45.258579282090068" lon="6.903829062357545">
        <ele>2074.800048828125</ele>
        <time>2012-06-17T09:59:32Z</time>
      </trkpt>
      <trkpt lat="45.258356407284737" lon="6.904319571331143">
        <ele>2072.199951171875</ele>
        <time>2012-06-17T09:59:39Z</time>
      </trkpt>
      <trkpt lat="45.258105453103781" lon="6.904823491349816">
        <ele>2071.39990234375</ele>
        <time>2012-06-17T09:59:45Z</time>
      </trkpt>
      <trkpt lat="45.257790880277753" lon="6.905185505747795">
        <ele>2070.60009765625</ele>
        <time>2012-06-17T09:59:50Z</time>
      </trkpt>
      <trkpt lat="45.257469099014997" lon="6.905332105234265">
        <ele>2068.39990234375</ele>
        <time>2012-06-17T09:59:54Z</time>
      </trkpt>
      <trkpt lat="45.257030641660094" lon="6.905482644215226">
        <ele>2065.800048828125</ele>
        <time>2012-06-17T10:00:00Z</time>
      </trkpt>
      <trkpt lat="45.256552118808031" lon="6.905654389411211">
        <ele>2062.60009765625</ele>
        <time>2012-06-17T10:00:08Z</time>
      </trkpt>
      <trkpt lat="45.256471820175648" lon="6.905672578141093">
        <ele>2062</ele>
        <time>2012-06-17T10:00:11Z</time>
      </trkpt>
      <trkpt lat="45.256457068026066" lon="6.90566411241889">
        <ele>2061.800048828125</ele>
        <time>2012-06-17T10:00:12Z</time>
      </trkpt>
      <trkpt lat="45.256435442715883" lon="6.90562161616981">
        <ele>2061.199951171875</ele>
        <time>2012-06-17T10:00:15Z</time>
      </trkpt>
      <trkpt lat="45.256428821012378" lon="6.905609043315053">
        <ele>2061</ele>
        <time>2012-06-17T10:00:16Z</time>
      </trkpt>
      <trkpt lat="45.256405351683497" lon="6.905452385544777">
        <ele>2059.60009765625</ele>
        <time>2012-06-17T10:00:21Z</time>
      </trkpt>
      <trkpt lat="45.256311055272818" lon="6.905312910676003">
        <ele>2057.60009765625</ele>
        <time>2012-06-17T10:00:25Z</time>
      </trkpt>
      <trkpt lat="45.256122881546617" lon="6.905292794108391">
        <ele>2055.39990234375</ele>
        <time>2012-06-17T10:00:29Z</time>
      </trkpt>
      <trkpt lat="45.255762543529272" lon="6.905355658382177">
        <ele>2052.39990234375</ele>
        <time>2012-06-17T10:00:35Z</time>
      </trkpt>
      <trkpt lat="45.255326014012098" lon="6.905434112995863">
        <ele>2050</ele>
        <time>2012-06-17T10:00:41Z</time>
      </trkpt>
      <trkpt lat="45.254914965480566" lon="6.905458504334092">
        <ele>2047.5999755859375</ele>
        <time>2012-06-17T10:00:46Z</time>
      </trkpt>
      <trkpt lat="45.254831733182073" lon="6.90541684627533">
        <ele>2046.4000244140625</ele>
        <time>2012-06-17T10:00:47Z</time>
      </trkpt>
      <trkpt lat="45.254501067101955" lon="6.905168909579516">
        <ele>2041.199951171875</ele>
        <time>2012-06-17T10:00:51Z</time>
      </trkpt>
      <trkpt lat="45.254159504547715" lon="6.904892977327108">
        <ele>2036</ele>
        <time>2012-06-17T10:00:55Z</time>
      </trkpt>
      <trkpt lat="45.254067722707987" lon="6.9048554264009">
        <ele>2034</ele>
        <time>2012-06-17T10:00:56Z</time>
      </trkpt>
      <trkpt lat="45.253803608939052" lon="6.904932288452983">
        <ele>2029.800048828125</ele>
        <time>2012-06-17T10:00:59Z</time>
      </trkpt>
      <trkpt lat="45.253687687218189" lon="6.9051627907902">
        <ele>2029.199951171875</ele>
        <time>2012-06-17T10:01:01Z</time>
      </trkpt>
      <trkpt lat="45.253579812124372" lon="6.905549364164472">
        <ele>2030.199951171875</ele>
        <time>2012-06-17T10:01:04Z</time>
      </trkpt>
      <trkpt lat="45.25332760065794" lon="6.906351931393147">
        <ele>2032.5999755859375</ele>
        <time>2012-06-17T10:01:10Z</time>
      </trkpt>
      <trkpt lat="45.253255013376474" lon="6.906471708789468">
        <ele>2032</ele>
        <time>2012-06-17T10:01:11Z</time>
      </trkpt>
      <trkpt lat="45.253093661740422" lon="6.906702127307653">
        <ele>2029.800048828125</ele>
        <time>2012-06-17T10:01:13Z</time>
      </trkpt>
      <trkpt lat="45.252909176051617" lon="6.906902454793453">
        <ele>2026.5999755859375</ele>
        <time>2012-06-17T10:01:15Z</time>
      </trkpt>
      <trkpt lat="45.25247348472476" lon="6.907407799735665">
        <ele>2018</ele>
        <time>2012-06-17T10:01:20Z</time>
      </trkpt>
      <trkpt lat="45.252405172213912" lon="6.907538641244173">
        <ele>2017.199951171875</ele>
        <time>2012-06-17T10:01:21Z</time>
      </trkpt>
      <trkpt lat="45.252199564129114" lon="6.908107856288552">
        <ele>2016.199951171875</ele>
        <time>2012-06-17T10:01:25Z</time>
      </trkpt>
      <trkpt lat="45.251971241086721" lon="6.908764829859138">
        <ele>2012</ele>
        <time>2012-06-17T10:01:30Z</time>
      </trkpt>
      <trkpt lat="45.251891277730465" lon="6.909012934193015">
        <ele>2010.199951171875</ele>
        <time>2012-06-17T10:01:33Z</time>
      </trkpt>
      <trkpt lat="45.251867054030299" lon="6.909066578373313">
        <ele>2009.5999755859375</ele>
        <time>2012-06-17T10:01:34Z</time>
      </trkpt>
      <trkpt lat="45.25178893469274" lon="6.909212004393339">
        <ele>2007</ele>
        <time>2012-06-17T10:01:37Z</time>
      </trkpt>
      <trkpt lat="45.251763872802258" lon="6.909270510077477">
        <ele>2006.199951171875</ele>
        <time>2012-06-17T10:01:38Z</time>
      </trkpt>
      <trkpt lat="45.251733530312777" lon="6.909335637465119">
        <ele>2005</ele>
        <time>2012-06-17T10:01:40Z</time>
      </trkpt>
      <trkpt lat="45.251723723486066" lon="6.90934837795794">
        <ele>2004.800048828125</ele>
        <time>2012-06-17T10:01:41Z</time>
      </trkpt>
      <trkpt lat="45.251668989658356" lon="6.909315772354603">
        <ele>2002.4000244140625</ele>
        <time>2012-06-17T10:01:45Z</time>
      </trkpt>
      <trkpt lat="45.251707630231977" lon="6.909210328012705">
        <ele>2003.800048828125</ele>
        <time>2012-06-17T10:01:48Z</time>
      </trkpt>
      <trkpt lat="45.251776110380888" lon="6.909057777374983">
        <ele>2005.800048828125</ele>
        <time>2012-06-17T10:01:55Z</time>
      </trkpt>
      <trkpt lat="45.251837968826294" lon="6.908854432404041">
        <ele>2007.199951171875</ele>
        <time>2012-06-17T10:02:02Z</time>
      </trkpt>
      <trkpt lat="45.251892115920782" lon="6.908535752445459">
        <ele>2007.4000244140625</ele>
        <time>2012-06-17T10:02:09Z</time>
      </trkpt>
      <trkpt lat="45.251960176974535" lon="6.908164350315929">
        <ele>2007.4000244140625</ele>
        <time>2012-06-17T10:02:15Z</time>
      </trkpt>
      <trkpt lat="45.252044582739472" lon="6.90786830149591">
        <ele>2007.800048828125</ele>
        <time>2012-06-17T10:02:19Z</time>
      </trkpt>
      <trkpt lat="45.252055060118437" lon="6.907784063369036">
        <ele>2007.4000244140625</ele>
        <time>2012-06-17T10:02:20Z</time>
      </trkpt>
      <trkpt lat="45.252082888036966" lon="6.907207136973739">
        <ele>2004</ele>
        <time>2012-06-17T10:02:26Z</time>
      </trkpt>
      <trkpt lat="45.252047851681709" lon="6.906917961314321">
        <ele>2001.4000244140625</ele>
        <time>2012-06-17T10:02:29Z</time>
      </trkpt>
      <trkpt lat="45.252059753984213" lon="6.906812014058232">
        <ele>2001.199951171875</ele>
        <time>2012-06-17T10:02:30Z</time>
      </trkpt>
      <trkpt lat="45.252007786184549" lon="6.906399624422193">
        <ele>2001</ele>
        <time>2012-06-17T10:02:34Z</time>
      </trkpt>
      <trkpt lat="45.251828413456678" lon="6.906213294714689">
        <ele>1999.800048828125</ele>
        <time>2012-06-17T10:02:37Z</time>
      </trkpt>
      <trkpt lat="45.251651471480727" lon="6.906208600848913">
        <ele>1998.199951171875</ele>
        <time>2012-06-17T10:02:40Z</time>
      </trkpt>
      <trkpt lat="45.25155290029943" lon="6.906244559213519">
        <ele>1998.800048828125</ele>
        <time>2012-06-17T10:02:42Z</time>
      </trkpt>
      <trkpt lat="45.251414682716131" lon="6.906305914744735">
        <ele>1999.199951171875</ele>
        <time>2012-06-17T10:02:45Z</time>
      </trkpt>
      <trkpt lat="45.251320134848356" lon="6.906327288597822">
        <ele>1999.800048828125</ele>
        <time>2012-06-17T10:02:47Z</time>
      </trkpt>
      <trkpt lat="45.251224413514137" lon="6.906290994957089">
        <ele>2001.4000244140625</ele>
        <time>2012-06-17T10:02:49Z</time>
      </trkpt>
      <trkpt lat="45.251025846228004" lon="6.906350674107671">
        <ele>2002.199951171875</ele>
        <time>2012-06-17T10:02:53Z</time>
      </trkpt>
      <trkpt lat="45.250920318067074" lon="6.90648159943521">
        <ele>2000</ele>
        <time>2012-06-17T10:02:56Z</time>
      </trkpt>
      <trkpt lat="45.250853765755892" lon="6.906567262485623">
        <ele>1998.4000244140625</ele>
        <time>2012-06-17T10:02:58Z</time>
      </trkpt>
      <trkpt lat="45.250540701672435" lon="6.90694629214704">
        <ele>1996</ele>
        <time>2012-06-17T10:03:07Z</time>
      </trkpt>
      <trkpt lat="45.250499295070767" lon="6.906976466998458">
        <ele>1996</ele>
        <time>2012-06-17T10:03:08Z</time>
      </trkpt>
      <trkpt lat="45.250347750261426" lon="6.906999265775085">
        <ele>1997.800048828125</ele>
        <time>2012-06-17T10:03:11Z</time>
      </trkpt>
      <trkpt lat="45.250142645090818" lon="6.907081324607134">
        <ele>1998.5999755859375</ele>
        <time>2012-06-17T10:03:15Z</time>
      </trkpt>
      <trkpt lat="45.249788677319884" lon="6.907284585759044">
        <ele>1996.4000244140625</ele>
        <time>2012-06-17T10:03:23Z</time>
      </trkpt>
      <trkpt lat="45.249656746163964" lon="6.907379301264882">
        <ele>1994.4000244140625</ele>
        <time>2012-06-17T10:03:27Z</time>
      </trkpt>
      <trkpt lat="45.249591451138258" lon="6.907419366762042">
        <ele>1993.5999755859375</ele>
        <time>2012-06-17T10:03:29Z</time>
      </trkpt>
      <trkpt lat="45.249321050941944" lon="6.907534198835492">
        <ele>1991.800048828125</ele>
        <time>2012-06-17T10:03:35Z</time>
      </trkpt>
      <trkpt lat="45.249045705422759" lon="6.9077168405056">
        <ele>1987.4000244140625</ele>
        <time>2012-06-17T10:03:42Z</time>
      </trkpt>
      <trkpt lat="45.249006897211075" lon="6.907732347026467">
        <ele>1987</ele>
        <time>2012-06-17T10:03:43Z</time>
      </trkpt>
      <trkpt lat="45.24884931743145" lon="6.907719438895583">
        <ele>1987.5999755859375</ele>
        <time>2012-06-17T10:03:47Z</time>
      </trkpt>
      <trkpt lat="45.248766001313925" lon="6.907689431682229">
        <ele>1988.5999755859375</ele>
        <time>2012-06-17T10:03:49Z</time>
      </trkpt>
      <trkpt lat="45.248577743768692" lon="6.90761860460043">
        <ele>1990.4000244140625</ele>
        <time>2012-06-17T10:03:53Z</time>
      </trkpt>
      <trkpt lat="45.248178681358695" lon="6.907512154430151">
        <ele>1990.199951171875</ele>
        <time>2012-06-17T10:04:00Z</time>
      </trkpt>
      <trkpt lat="45.247928565368056" lon="6.90744954161346">
        <ele>1987.4000244140625</ele>
        <time>2012-06-17T10:04:05Z</time>
      </trkpt>
      <trkpt lat="45.24789503775537" lon="6.907420456409454">
        <ele>1987.5999755859375</ele>
        <time>2012-06-17T10:04:06Z</time>
      </trkpt>
      <trkpt lat="45.247805770486593" lon="6.907242005690932">
        <ele>1990.4000244140625</ele>
        <time>2012-06-17T10:04:10Z</time>
      </trkpt>
      <trkpt lat="45.247786324471235" lon="6.907195318490267">
        <ele>1991.199951171875</ele>
        <time>2012-06-17T10:04:11Z</time>
      </trkpt>
      <trkpt lat="45.247630421072245" lon="6.906942185014486">
        <ele>1994.5999755859375</ele>
        <time>2012-06-17T10:04:17Z</time>
      </trkpt>
      <trkpt lat="45.24744400754571" lon="6.906818635761738">
        <ele>1994.4000244140625</ele>
        <time>2012-06-17T10:04:22Z</time>
      </trkpt>
      <trkpt lat="45.247173272073269" lon="6.9067307934165">
        <ele>1992.199951171875</ele>
        <time>2012-06-17T10:04:30Z</time>
      </trkpt>
      <trkpt lat="45.246917037293315" lon="6.906581846997142">
        <ele>1993.199951171875</ele>
        <time>2012-06-17T10:04:38Z</time>
      </trkpt>
      <trkpt lat="45.246602548286319" lon="6.906367857009172">
        <ele>1996.5999755859375</ele>
        <time>2012-06-17T10:04:48Z</time>
      </trkpt>
      <trkpt lat="45.2463548630476" lon="6.906290743499994">
        <ele>1995.5999755859375</ele>
        <time>2012-06-17T10:04:55Z</time>
      </trkpt>
      <trkpt lat="45.246022855862975" lon="6.90621480345726">
        <ele>1993.4000244140625</ele>
        <time>2012-06-17T10:05:04Z</time>
      </trkpt>
      <trkpt lat="45.245757233351469" lon="6.90617180429399">
        <ele>1991</ele>
        <time>2012-06-17T10:05:10Z</time>
      </trkpt>
      <trkpt lat="45.245637455955148" lon="6.906142635270953">
        <ele>1990.199951171875</ele>
        <time>2012-06-17T10:05:12Z</time>
      </trkpt>
      <trkpt lat="45.245467973873019" lon="6.90609653480351">
        <ele>1989.4000244140625</ele>
        <time>2012-06-17T10:05:15Z</time>
      </trkpt>
      <trkpt lat="45.245152981951833" lon="6.905989414080977">
        <ele>1988.5999755859375</ele>
        <time>2012-06-17T10:05:22Z</time>
      </trkpt>
      <trkpt lat="45.244986349716783" lon="6.905945828184485">
        <ele>1987.5999755859375</ele>
        <time>2012-06-17T10:05:26Z</time>
      </trkpt>
      <trkpt lat="45.244892807677388" lon="6.905916659161449">
        <ele>1988.4000244140625</ele>
        <time>2012-06-17T10:05:28Z</time>
      </trkpt>
      <trkpt lat="45.244588712230325" lon="6.905761174857616">
        <ele>1993.199951171875</ele>
        <time>2012-06-17T10:05:35Z</time>
      </trkpt>
      <trkpt lat="45.244214711710811" lon="6.905618933960795">
        <ele>1997.5999755859375</ele>
        <time>2012-06-17T10:05:43Z</time>
      </trkpt>
      <trkpt lat="45.243863929063082" lon="6.905596889555454">
        <ele>1997.5999755859375</ele>
        <time>2012-06-17T10:05:50Z</time>
      </trkpt>
      <trkpt lat="45.243536029011011" lon="6.905675511807203">
        <ele>1993.199951171875</ele>
        <time>2012-06-17T10:05:57Z</time>
      </trkpt>
      <trkpt lat="45.24322715587914" lon="6.905703758820891">
        <ele>1992.199951171875</ele>
        <time>2012-06-17T10:06:04Z</time>
      </trkpt>
      <trkpt lat="45.242941500619054" lon="6.90582538023591">
        <ele>1988.5999755859375</ele>
        <time>2012-06-17T10:06:11Z</time>
      </trkpt>
      <trkpt lat="45.242864135652781" lon="6.905831163749099">
        <ele>1989</ele>
        <time>2012-06-17T10:06:13Z</time>
      </trkpt>
      <trkpt lat="45.242747040465474" lon="6.905811885371804">
        <ele>1990.4000244140625</ele>
        <time>2012-06-17T10:06:16Z</time>
      </trkpt>
      <trkpt lat="45.242386450991035" lon="6.905714822933078">
        <ele>1994.800048828125</ele>
        <time>2012-06-17T10:06:25Z</time>
      </trkpt>
      <trkpt lat="45.241899043321609" lon="6.905569061636925">
        <ele>1996.5999755859375</ele>
        <time>2012-06-17T10:06:35Z</time>
      </trkpt>
      <trkpt lat="45.241848416626453" lon="6.905569061636925">
        <ele>1996.199951171875</ele>
        <time>2012-06-17T10:06:36Z</time>
      </trkpt>
      <trkpt lat="45.241539711132646" lon="6.905555063858628">
        <ele>1995.5999755859375</ele>
        <time>2012-06-17T10:06:42Z</time>
      </trkpt>
      <trkpt lat="45.241038138046861" lon="6.905535282567143">
        <ele>1997</ele>
        <time>2012-06-17T10:06:52Z</time>
      </trkpt>
      <trkpt lat="45.240744017064571" lon="6.90561574883759">
        <ele>1996.199951171875</ele>
        <time>2012-06-17T10:06:58Z</time>
      </trkpt>
      <trkpt lat="45.240371357649565" lon="6.905724378302693">
        <ele>1999.5999755859375</ele>
        <time>2012-06-17T10:07:06Z</time>
      </trkpt>
      <trkpt lat="45.240010600537062" lon="6.905902996659279">
        <ele>2001</ele>
        <time>2012-06-17T10:07:14Z</time>
      </trkpt>
      <trkpt lat="45.239757131785154" lon="6.906148670241237">
        <ele>1998</ele>
        <time>2012-06-17T10:07:21Z</time>
      </trkpt>
      <trkpt lat="45.239443313330412" lon="6.90636383369565">
        <ele>1997</ele>
        <time>2012-06-17T10:07:29Z</time>
      </trkpt>
      <trkpt lat="45.239173248410225" lon="6.906435247510672">
        <ele>1999</ele>
        <time>2012-06-17T10:07:36Z</time>
      </trkpt>
      <trkpt lat="45.238884408026934" lon="6.906408593058586">
        <ele>1998.800048828125</ele>
        <time>2012-06-17T10:07:44Z</time>
      </trkpt>
      <trkpt lat="45.23857788182795" lon="6.906359475106001">
        <ele>1998.800048828125</ele>
        <time>2012-06-17T10:07:52Z</time>
      </trkpt>
      <trkpt lat="45.238386271521449" lon="6.90632276237011">
        <ele>1998.800048828125</ele>
        <time>2012-06-17T10:07:58Z</time>
      </trkpt>
      <trkpt lat="45.238240929320455" lon="6.906161913648248">
        <ele>1998.4000244140625</ele>
        <time>2012-06-17T10:08:03Z</time>
      </trkpt>
      <trkpt lat="45.238044122233987" lon="6.905854884535074">
        <ele>1996.4000244140625</ele>
        <time>2012-06-17T10:08:08Z</time>
      </trkpt>
      <trkpt lat="45.237828539684415" lon="6.905395975336433">
        <ele>1995</ele>
        <time>2012-06-17T10:08:13Z</time>
      </trkpt>
      <trkpt lat="45.237702559679747" lon="6.904892139136791">
        <ele>1996.4000244140625</ele>
        <time>2012-06-17T10:08:17Z</time>
      </trkpt>
      <trkpt lat="45.237542716786265" lon="6.904366258531809">
        <ele>1998.5999755859375</ele>
        <time>2012-06-17T10:08:21Z</time>
      </trkpt>
      <trkpt lat="45.23749116808176" lon="6.904266430065036">
        <ele>1998.4000244140625</ele>
        <time>2012-06-17T10:08:22Z</time>
      </trkpt>
      <trkpt lat="45.237224707379937" lon="6.903920425102115">
        <ele>2000</ele>
        <time>2012-06-17T10:08:26Z</time>
      </trkpt>
      <trkpt lat="45.237022619694471" lon="6.903666621074081">
        <ele>2000.4000244140625</ele>
        <time>2012-06-17T10:08:30Z</time>
      </trkpt>
      <trkpt lat="45.236834948882461" lon="6.903372835367918">
        <ele>2001.199951171875</ele>
        <time>2012-06-17T10:08:36Z</time>
      </trkpt>
      <trkpt lat="45.236668819561601" lon="6.903056753799319">
        <ele>2002.800048828125</ele>
        <time>2012-06-17T10:08:43Z</time>
      </trkpt>
      <trkpt lat="45.236531188711524" lon="6.902825077995658">
        <ele>2005.800048828125</ele>
        <time>2012-06-17T10:08:50Z</time>
      </trkpt>
      <trkpt lat="45.236355839297175" lon="6.902562640607357">
        <ele>2008.800048828125</ele>
        <time>2012-06-17T10:08:59Z</time>
      </trkpt>
      <trkpt lat="45.236162468791008" lon="6.902418890967965">
        <ele>2008.5999755859375</ele>
        <time>2012-06-17T10:09:07Z</time>
      </trkpt>
      <trkpt lat="45.235958369448781" lon="6.902264831587672">
        <ele>2007.800048828125</ele>
        <time>2012-06-17T10:09:16Z</time>
      </trkpt>
      <trkpt lat="45.235841106623411" lon="6.902051260694861">
        <ele>2008.5999755859375</ele>
        <time>2012-06-17T10:09:24Z</time>
      </trkpt>
      <trkpt lat="45.235712863504887" lon="6.901807598769665">
        <ele>2011</ele>
        <time>2012-06-17T10:09:33Z</time>
      </trkpt>
      <trkpt lat="45.235614627599716" lon="6.901704920455813">
        <ele>2011.800048828125</ele>
        <time>2012-06-17T10:09:39Z</time>
      </trkpt>
      <trkpt lat="45.235442547127604" lon="6.901579611003399">
        <ele>2012.4000244140625</ele>
        <time>2012-06-17T10:09:46Z</time>
      </trkpt>
      <trkpt lat="45.23523417301476" lon="6.901498138904572">
        <ele>2012.5999755859375</ele>
        <time>2012-06-17T10:09:55Z</time>
      </trkpt>
      <trkpt lat="45.235001910477877" lon="6.901398058980703">
        <ele>2012.5999755859375</ele>
        <time>2012-06-17T10:10:05Z</time>
      </trkpt>
      <trkpt lat="45.234778113663197" lon="6.901357406750321">
        <ele>2012.800048828125</ele>
        <time>2012-06-17T10:10:13Z</time>
      </trkpt>
      <trkpt lat="45.234504779800773" lon="6.901265038177371">
        <ele>2013.5999755859375</ele>
        <time>2012-06-17T10:10:23Z</time>
      </trkpt>
      <trkpt lat="45.234271679073572" lon="6.901152972131968">
        <ele>2014.4000244140625</ele>
        <time>2012-06-17T10:10:33Z</time>
      </trkpt>
      <trkpt lat="45.234195068478584" lon="6.901086587458849">
        <ele>2014.800048828125</ele>
        <time>2012-06-17T10:10:39Z</time>
      </trkpt>
      <trkpt lat="45.234189284965396" lon="6.901083821430802">
        <ele>2015</ele>
        <time>2012-06-17T10:10:45Z</time>
      </trkpt>
      <trkpt lat="45.234142933040857" lon="6.901056412607431">
        <ele>2014.800048828125</ele>
        <time>2012-06-17T10:10:49Z</time>
      </trkpt>
      <trkpt lat="45.234062634408474" lon="6.90095566213131">
        <ele>2014.800048828125</ele>
        <time>2012-06-17T10:10:54Z</time>
      </trkpt>
      <trkpt lat="45.233905389904976" lon="6.900772098451853">
        <ele>2014.5999755859375</ele>
        <time>2012-06-17T10:11:01Z</time>
      </trkpt>
      <trkpt lat="45.233746385201812" lon="6.90048317424953">
        <ele>2015.800048828125</ele>
        <time>2012-06-17T10:11:06Z</time>
      </trkpt>
      <trkpt lat="45.233636330813169" lon="6.900320565328002">
        <ele>2015.5999755859375</ele>
        <time>2012-06-17T10:11:09Z</time>
      </trkpt>
      <trkpt lat="45.233568185940385" lon="6.900238087400794">
        <ele>2015.4000244140625</ele>
        <time>2012-06-17T10:11:11Z</time>
      </trkpt>
      <trkpt lat="45.233455868437886" lon="6.900114705786109">
        <ele>2014.4000244140625</ele>
        <time>2012-06-17T10:11:15Z</time>
      </trkpt>
      <trkpt lat="45.233398033306003" lon="6.900067515671253">
        <ele>2013.800048828125</ele>
        <time>2012-06-17T10:11:17Z</time>
      </trkpt>
      <trkpt lat="45.23337003774941" lon="6.900033736601472">
        <ele>2013.4000244140625</ele>
        <time>2012-06-17T10:11:18Z</time>
      </trkpt>
      <trkpt lat="45.233220504596829" lon="6.899862997233868">
        <ele>2014</ele>
        <time>2012-06-17T10:11:23Z</time>
      </trkpt>
      <trkpt lat="45.233124364167452" lon="6.899764593690634">
        <ele>2014.5999755859375</ele>
        <time>2012-06-17T10:11:28Z</time>
      </trkpt>
      <trkpt lat="45.233011627569795" lon="6.899652192369103">
        <ele>2015.199951171875</ele>
        <time>2012-06-17T10:11:33Z</time>
      </trkpt>
      <trkpt lat="45.232810294255614" lon="6.899549011141062">
        <ele>2015</ele>
        <time>2012-06-17T10:11:40Z</time>
      </trkpt>
      <trkpt lat="45.232609799131751" lon="6.899397969245911">
        <ele>2014.5999755859375</ele>
        <time>2012-06-17T10:11:47Z</time>
      </trkpt>
      <trkpt lat="45.232532769441605" lon="6.899258410558105">
        <ele>2014.800048828125</ele>
        <time>2012-06-17T10:11:52Z</time>
      </trkpt>
      <trkpt lat="45.232533272355795" lon="6.899238210171461">
        <ele>2015</ele>
        <time>2012-06-17T10:11:53Z</time>
      </trkpt>
      <trkpt lat="45.232510222122073" lon="6.899192947894335">
        <ele>2015</ele>
        <time>2012-06-17T10:11:56Z</time>
      </trkpt>
      <trkpt lat="45.232496475800872" lon="6.899172831326723">
        <ele>2015</ele>
        <time>2012-06-17T10:11:57Z</time>
      </trkpt>
      <trkpt lat="45.232464708387852" lon="6.899109128862619">
        <ele>2015.4000244140625</ele>
        <time>2012-06-17T10:12:00Z</time>
      </trkpt>
      <trkpt lat="45.232417182996869" lon="6.899011563509703">
        <ele>2016</ele>
        <time>2012-06-17T10:12:04Z</time>
      </trkpt>
      <trkpt lat="45.232297573238611" lon="6.898796819150448">
        <ele>2017.199951171875</ele>
        <time>2012-06-17T10:12:12Z</time>
      </trkpt>
      <trkpt lat="45.232140496373177" lon="6.898537985980511">
        <ele>2018.199951171875</ele>
        <time>2012-06-17T10:12:20Z</time>
      </trkpt>
      <trkpt lat="45.231924830004573" lon="6.898182509467006">
        <ele>2019.199951171875</ele>
        <time>2012-06-17T10:12:30Z</time>
      </trkpt>
      <trkpt lat="45.231659207493067" lon="6.897801551967859">
        <ele>2020.4000244140625</ele>
        <time>2012-06-17T10:12:42Z</time>
      </trkpt>
      <trkpt lat="45.231421999633312" lon="6.897494019940496">
        <ele>2021.4000244140625</ele>
        <time>2012-06-17T10:12:52Z</time>
      </trkpt>
      <trkpt lat="45.231247404590249" lon="6.897188918665052">
        <ele>2023.4000244140625</ele>
        <time>2012-06-17T10:13:01Z</time>
      </trkpt>
      <trkpt lat="45.231066774576902" lon="6.896957159042358">
        <ele>2024.5999755859375</ele>
        <time>2012-06-17T10:13:10Z</time>
      </trkpt>
      <trkpt lat="45.230934089049697" lon="6.896843081340194">
        <ele>2024.800048828125</ele>
        <time>2012-06-17T10:13:18Z</time>
      </trkpt>
      <trkpt lat="45.230762427672744" lon="6.896679131314158">
        <ele>2025.4000244140625</ele>
        <time>2012-06-17T10:13:27Z</time>
      </trkpt>
      <trkpt lat="45.230559753254056" lon="6.896494226530194">
        <ele>2026.199951171875</ele>
        <time>2012-06-17T10:13:37Z</time>
      </trkpt>
      <trkpt lat="45.230332855135202" lon="6.896324073895812">
        <ele>2026.4000244140625</ele>
        <time>2012-06-17T10:13:47Z</time>
      </trkpt>
      <trkpt lat="45.230175442993641" lon="6.89610849134624">
        <ele>2027.199951171875</ele>
        <time>2012-06-17T10:13:55Z</time>
      </trkpt>
      <trkpt lat="45.23002783767879" lon="6.895918473601341">
        <ele>2027.5999755859375</ele>
        <time>2012-06-17T10:14:02Z</time>
      </trkpt>
      <trkpt lat="45.22978057153523" lon="6.895570456981659">
        <ele>2030</ele>
        <time>2012-06-17T10:14:13Z</time>
      </trkpt>
      <trkpt lat="45.229603964835405" lon="6.89527390524745">
        <ele>2030.800048828125</ele>
        <time>2012-06-17T10:14:21Z</time>
      </trkpt>
      <trkpt lat="45.229456443339586" lon="6.895018676295877">
        <ele>2030.199951171875</ele>
        <time>2012-06-17T10:14:29Z</time>
      </trkpt>
      <trkpt lat="45.229288218542933" lon="6.894829161465168">
        <ele>2030</ele>
        <time>2012-06-17T10:14:35Z</time>
      </trkpt>
      <trkpt lat="45.229122005403042" lon="6.89458248205483">
        <ele>2031.4000244140625</ele>
        <time>2012-06-17T10:14:39Z</time>
      </trkpt>
      <trkpt lat="45.228971214964986" lon="6.894409395754337">
        <ele>2032.800048828125</ele>
        <time>2012-06-17T10:14:42Z</time>
      </trkpt>
      <trkpt lat="45.228864010423422" lon="6.894325241446495">
        <ele>2033.4000244140625</ele>
        <time>2012-06-17T10:14:44Z</time>
      </trkpt>
      <trkpt lat="45.228577433153987" lon="6.894182246178389">
        <ele>2033.4000244140625</ele>
        <time>2012-06-17T10:14:50Z</time>
      </trkpt>
      <trkpt lat="45.228534182533622" lon="6.894177552312613">
        <ele>2033.199951171875</ele>
        <time>2012-06-17T10:14:51Z</time>
      </trkpt>
      <trkpt lat="45.228375177830458" lon="6.894210996106267">
        <ele>2031.800048828125</ele>
        <time>2012-06-17T10:14:55Z</time>
      </trkpt>
      <trkpt lat="45.228281887248158" lon="6.894276458770037">
        <ele>2031.199951171875</ele>
        <time>2012-06-17T10:14:58Z</time>
      </trkpt>
      <trkpt lat="45.228158254176378" lon="6.894370336085558">
        <ele>2031</ele>
        <time>2012-06-17T10:15:02Z</time>
      </trkpt>
      <trkpt lat="45.227969828993082" lon="6.894465638324618">
        <ele>2030.800048828125</ele>
        <time>2012-06-17T10:15:09Z</time>
      </trkpt>
      <trkpt lat="45.227777883410454" lon="6.894537219777703">
        <ele>2030.800048828125</ele>
        <time>2012-06-17T10:15:17Z</time>
      </trkpt>
      <trkpt lat="45.227593649178743" lon="6.894534202292562">
        <ele>2031.5999755859375</ele>
        <time>2012-06-17T10:15:24Z</time>
      </trkpt>
      <trkpt lat="45.227447804063559" lon="6.894454574212432">
        <ele>2032.5999755859375</ele>
        <time>2012-06-17T10:15:31Z</time>
      </trkpt>
      <trkpt lat="45.227322746068239" lon="6.894285930320621">
        <ele>2034.199951171875</ele>
        <time>2012-06-17T10:15:38Z</time>
      </trkpt>
      <trkpt lat="45.227150246500969" lon="6.894057355821133">
        <ele>2036.800048828125</ele>
        <time>2012-06-17T10:15:48Z</time>
      </trkpt>
      <trkpt lat="45.227129459381104" lon="6.894023912027478">
        <ele>2037.199951171875</ele>
        <time>2012-06-17T10:15:53Z</time>
      </trkpt>
      <trkpt lat="45.227137422189116" lon="6.894028186798096">
        <ele>2037.199951171875</ele>
        <time>2012-06-17T10:16:09Z</time>
      </trkpt>
      <trkpt lat="45.227143121883273" lon="6.894022235646844">
        <ele>2037.199951171875</ele>
        <time>2012-06-17T10:16:23Z</time>
      </trkpt>
      <trkpt lat="45.227145720273256" lon="6.8940176256001">
        <ele>2037.199951171875</ele>
        <time>2012-06-17T10:16:32Z</time>
      </trkpt>
      <trkpt lat="45.227167513221502" lon="6.894029108807445">
        <ele>2037.199951171875</ele>
        <time>2012-06-17T10:17:36Z</time>
      </trkpt>
      <trkpt lat="45.22713758982718" lon="6.894049812108278">
        <ele>2036.800048828125</ele>
        <time>2012-06-17T10:19:10Z</time>
      </trkpt>
      <trkpt lat="45.227134320884943" lon="6.894028102979064">
        <ele>2037.199951171875</ele>
        <time>2012-06-17T10:19:52Z</time>
      </trkpt>
      <trkpt lat="45.227142535150051" lon="6.894020810723305">
        <ele>2037.199951171875</ele>
        <time>2012-06-17T10:20:01Z</time>
      </trkpt>
      <trkpt lat="45.227132057771087" lon="6.89403816126287">
        <ele>2037</ele>
        <time>2012-06-17T10:27:20Z</time>
      </trkpt>
      <trkpt lat="45.227135242894292" lon="6.894032126292586">
        <ele>2037.199951171875</ele>
        <time>2012-06-17T10:32:47Z</time>
      </trkpt>
      <trkpt lat="45.227146474644542" lon="6.894023241475225">
        <ele>2037.199951171875</ele>
        <time>2012-06-17T10:46:40Z</time>
      </trkpt>
      <trkpt lat="45.227100374177098" lon="6.894007818773389">
        <ele>2037.4000244140625</ele>
        <time>2012-06-17T10:46:48Z</time>
      </trkpt>
      <trkpt lat="45.227075144648552" lon="6.893985019996762">
        <ele>2037.800048828125</ele>
        <time>2012-06-17T10:46:55Z</time>
      </trkpt>
      <trkpt lat="45.227056453004479" lon="6.893973955884576">
        <ele>2038</ele>
        <time>2012-06-17T10:47:00Z</time>
      </trkpt>
      <trkpt lat="45.227031307294965" lon="6.893957024440169">
        <ele>2038.199951171875</ele>
        <time>2012-06-17T10:47:02Z</time>
      </trkpt>
      <trkpt lat="45.226972298696637" lon="6.893868762999773">
        <ele>2039.4000244140625</ele>
        <time>2012-06-17T10:47:08Z</time>
      </trkpt>
      <trkpt lat="45.226860316470265" lon="6.893763318657875">
        <ele>2041</ele>
        <time>2012-06-17T10:47:15Z</time>
      </trkpt>
      <trkpt lat="45.226672310382128" lon="6.893658209592104">
        <ele>2042.800048828125</ele>
        <time>2012-06-17T10:47:26Z</time>
      </trkpt>
      <trkpt lat="45.226538786664605" lon="6.893567685037851">
        <ele>2044.4000244140625</ele>
        <time>2012-06-17T10:47:34Z</time>
      </trkpt>
      <trkpt lat="45.226422362029552" lon="6.893471293151379">
        <ele>2046</ele>
        <time>2012-06-17T10:47:42Z</time>
      </trkpt>
      <trkpt lat="45.226283054798841" lon="6.893376158550382">
        <ele>2047.199951171875</ele>
        <time>2012-06-17T10:47:51Z</time>
      </trkpt>
      <trkpt lat="45.226126899942756" lon="6.893262499943376">
        <ele>2048.60009765625</ele>
        <time>2012-06-17T10:48:01Z</time>
      </trkpt>
      <trkpt lat="45.225993543863297" lon="6.893159234896302">
        <ele>2050</ele>
        <time>2012-06-17T10:48:10Z</time>
      </trkpt>
      <trkpt lat="45.225833365693688" lon="6.893038703128696">
        <ele>2051.60009765625</ele>
        <time>2012-06-17T10:48:20Z</time>
      </trkpt>
      <trkpt lat="45.225658770650625" lon="6.892962846904993">
        <ele>2053</ele>
        <time>2012-06-17T10:48:30Z</time>
      </trkpt>
      <trkpt lat="45.22547822445631" lon="6.89286544919014">
        <ele>2054.60009765625</ele>
        <time>2012-06-17T10:48:40Z</time>
      </trkpt>
      <trkpt lat="45.225408654659986" lon="6.892713820561767">
        <ele>2056.60009765625</ele>
        <time>2012-06-17T10:48:47Z</time>
      </trkpt>
      <trkpt lat="45.225371690467" lon="6.892522210255265">
        <ele>2058.800048828125</ele>
        <time>2012-06-17T10:48:55Z</time>
      </trkpt>
      <trkpt lat="45.225344868376851" lon="6.892315596342087">
        <ele>2061.39990234375</ele>
        <time>2012-06-17T10:49:03Z</time>
      </trkpt>
      <trkpt lat="45.22534872405231" lon="6.892103450372815">
        <ele>2063.800048828125</ele>
        <time>2012-06-17T10:49:12Z</time>
      </trkpt>
      <trkpt lat="45.225347215309739" lon="6.891947882249951">
        <ele>2065.800048828125</ele>
        <time>2012-06-17T10:49:19Z</time>
      </trkpt>
      <trkpt lat="45.225312178954482" lon="6.891769682988524">
        <ele>2067.60009765625</ele>
        <time>2012-06-17T10:49:27Z</time>
      </trkpt>
      <trkpt lat="45.225254008546472" lon="6.891608750447631">
        <ele>2069.199951171875</ele>
        <time>2012-06-17T10:49:34Z</time>
      </trkpt>
      <trkpt lat="45.225167674943805" lon="6.891423845663667">
        <ele>2071</ele>
        <time>2012-06-17T10:49:43Z</time>
      </trkpt>
      <trkpt lat="45.225056279450655" lon="6.891295434907079">
        <ele>2071.800048828125</ele>
        <time>2012-06-17T10:49:51Z</time>
      </trkpt>
      <trkpt lat="45.22489626891911" lon="6.891200384125114">
        <ele>2072.199951171875</ele>
        <time>2012-06-17T10:50:00Z</time>
      </trkpt>
      <trkpt lat="45.224734246730804" lon="6.891176160424948">
        <ele>2072</ele>
        <time>2012-06-17T10:50:09Z</time>
      </trkpt>
      <trkpt lat="45.224588569253683" lon="6.891172640025616">
        <ele>2071.60009765625</ele>
        <time>2012-06-17T10:50:17Z</time>
      </trkpt>
      <trkpt lat="45.224464349448681" lon="6.891101645305753">
        <ele>2071.800048828125</ele>
        <time>2012-06-17T10:50:24Z</time>
      </trkpt>
      <trkpt lat="45.224325293675065" lon="6.890937276184559">
        <ele>2072.800048828125</ele>
        <time>2012-06-17T10:50:33Z</time>
      </trkpt>
      <trkpt lat="45.224249688908458" lon="6.890788748860359">
        <ele>2073.800048828125</ele>
        <time>2012-06-17T10:50:40Z</time>
      </trkpt>
      <trkpt lat="45.224156146869063" lon="6.890532849356532">
        <ele>2075</ele>
        <time>2012-06-17T10:50:49Z</time>
      </trkpt>
      <trkpt lat="45.224069561809301" lon="6.8903031013906">
        <ele>2076.199951171875</ele>
        <time>2012-06-17T10:50:56Z</time>
      </trkpt>
      <trkpt lat="45.223957328125834" lon="6.889972351491451">
        <ele>2077.800048828125</ele>
        <time>2012-06-17T10:51:07Z</time>
      </trkpt>
      <trkpt lat="45.223864540457726" lon="6.889771688729525">
        <ele>2080</ele>
        <time>2012-06-17T10:51:15Z</time>
      </trkpt>
      <trkpt lat="45.22369078360498" lon="6.889658030122519">
        <ele>2080.199951171875</ele>
        <time>2012-06-17T10:51:24Z</time>
      </trkpt>
      <trkpt lat="45.223495317623019" lon="6.889696503058076">
        <ele>2078</ele>
        <time>2012-06-17T10:51:32Z</time>
      </trkpt>
      <trkpt lat="45.223225504159927" lon="6.889788703992963">
        <ele>2075</ele>
        <time>2012-06-17T10:51:40Z</time>
      </trkpt>
      <trkpt lat="45.222901962697506" lon="6.88985550776124">
        <ele>2072.39990234375</ele>
        <time>2012-06-17T10:51:48Z</time>
      </trkpt>
      <trkpt lat="45.22275754250586" lon="6.889710165560246">
        <ele>2073.60009765625</ele>
        <time>2012-06-17T10:51:53Z</time>
      </trkpt>
      <trkpt lat="45.222576409578323" lon="6.889441609382629">
        <ele>2076.39990234375</ele>
        <time>2012-06-17T10:52:01Z</time>
      </trkpt>
      <trkpt lat="45.222320007160306" lon="6.889160815626383">
        <ele>2079</ele>
        <time>2012-06-17T10:52:12Z</time>
      </trkpt>
      <trkpt lat="45.222120685502887" lon="6.888997033238411">
        <ele>2080.39990234375</ele>
        <time>2012-06-17T10:52:21Z</time>
      </trkpt>
      <trkpt lat="45.221915915608406" lon="6.88898672349751">
        <ele>2079.39990234375</ele>
        <time>2012-06-17T10:52:29Z</time>
      </trkpt>
      <trkpt lat="45.221701925620437" lon="6.888981610536575">
        <ele>2078</ele>
        <time>2012-06-17T10:52:37Z</time>
      </trkpt>
      <trkpt lat="45.221469411626458" lon="6.888992004096508">
        <ele>2078</ele>
        <time>2012-06-17T10:52:46Z</time>
      </trkpt>
      <trkpt lat="45.221193144097924" lon="6.888956716284156">
        <ele>2079</ele>
        <time>2012-06-17T10:52:57Z</time>
      </trkpt>
      <trkpt lat="45.221125334501266" lon="6.888828473165631">
        <ele>2080.39990234375</ele>
        <time>2012-06-17T10:53:02Z</time>
      </trkpt>
      <trkpt lat="45.221129776909947" lon="6.888546422123909">
        <ele>2083.199951171875</ele>
        <time>2012-06-17T10:53:11Z</time>
      </trkpt>
      <trkpt lat="45.221103457733989" lon="6.888279290869832">
        <ele>2085.800048828125</ele>
        <time>2012-06-17T10:53:20Z</time>
      </trkpt>
      <trkpt lat="45.221097338944674" lon="6.888014003634453">
        <ele>2088.60009765625</ele>
        <time>2012-06-17T10:53:29Z</time>
      </trkpt>
      <trkpt lat="45.22103950381279" lon="6.887771850451827">
        <ele>2090.800048828125</ele>
        <time>2012-06-17T10:53:38Z</time>
      </trkpt>
      <trkpt lat="45.220945626497269" lon="6.887485021725297">
        <ele>2092.39990234375</ele>
        <time>2012-06-17T10:53:49Z</time>
      </trkpt>
      <trkpt lat="45.220877649262547" lon="6.887208670377731">
        <ele>2094.39990234375</ele>
        <time>2012-06-17T10:53:59Z</time>
      </trkpt>
      <trkpt lat="45.220822496339679" lon="6.886973390355706">
        <ele>2096.199951171875</ele>
        <time>2012-06-17T10:54:08Z</time>
      </trkpt>
      <trkpt lat="45.220777820795774" lon="6.886771051213145">
        <ele>2098.39990234375</ele>
        <time>2012-06-17T10:54:16Z</time>
      </trkpt>
      <trkpt lat="45.220682267099619" lon="6.886641215533018">
        <ele>2100.60009765625</ele>
        <time>2012-06-17T10:54:23Z</time>
      </trkpt>
      <trkpt lat="45.220531392842531" lon="6.886622523888946">
        <ele>2102</ele>
        <time>2012-06-17T10:54:30Z</time>
      </trkpt>
      <trkpt lat="45.220353277400136" lon="6.886676084250212">
        <ele>2103</ele>
        <time>2012-06-17T10:54:39Z</time>
      </trkpt>
      <trkpt lat="45.220247162505984" lon="6.886800974607468">
        <ele>2102.199951171875</ele>
        <time>2012-06-17T10:54:45Z</time>
      </trkpt>
      <trkpt lat="45.220116572454572" lon="6.886983029544354">
        <ele>2101</ele>
        <time>2012-06-17T10:54:54Z</time>
      </trkpt>
      <trkpt lat="45.219945413991809" lon="6.887193163856864">
        <ele>2099.199951171875</ele>
        <time>2012-06-17T10:55:04Z</time>
      </trkpt>
      <trkpt lat="45.219809962436557" lon="6.887394413352013">
        <ele>2097.199951171875</ele>
        <time>2012-06-17T10:55:13Z</time>
      </trkpt>
      <trkpt lat="45.219742739573121" lon="6.887587113305926">
        <ele>2095.199951171875</ele>
        <time>2012-06-17T10:55:21Z</time>
      </trkpt>
      <trkpt lat="45.219672415405512" lon="6.887691468000412">
        <ele>2094.39990234375</ele>
        <time>2012-06-17T10:55:27Z</time>
      </trkpt>
      <trkpt lat="45.219573425129056" lon="6.887722229585052">
        <ele>2094.60009765625</ele>
        <time>2012-06-17T10:55:33Z</time>
      </trkpt>
      <trkpt lat="45.219521708786488" lon="6.887606140226126">
        <ele>2096.199951171875</ele>
        <time>2012-06-17T10:55:38Z</time>
      </trkpt>
      <trkpt lat="45.219492120668292" lon="6.887301960960031">
        <ele>2099.39990234375</ele>
        <time>2012-06-17T10:55:49Z</time>
      </trkpt>
      <trkpt lat="45.219411822035909" lon="6.88704933039844">
        <ele>2102.199951171875</ele>
        <time>2012-06-17T10:55:59Z</time>
      </trkpt>
      <trkpt lat="45.219318363815546" lon="6.886814050376415">
        <ele>2104.60009765625</ele>
        <time>2012-06-17T10:56:08Z</time>
      </trkpt>
      <trkpt lat="45.219281818717718" lon="6.886571394279599">
        <ele>2106.60009765625</ele>
        <time>2012-06-17T10:56:17Z</time>
      </trkpt>
      <trkpt lat="45.219303108751774" lon="6.886293031275272">
        <ele>2108.60009765625</ele>
        <time>2012-06-17T10:56:27Z</time>
      </trkpt>
      <trkpt lat="45.219336217269301" lon="6.886121369898319">
        <ele>2109.800048828125</ele>
        <time>2012-06-17T10:56:33Z</time>
      </trkpt>
      <trkpt lat="45.219442499801517" lon="6.885962532833219">
        <ele>2110.800048828125</ele>
        <time>2012-06-17T10:56:41Z</time>
      </trkpt>
      <trkpt lat="45.2195745985955" lon="6.885874690487981">
        <ele>2111.199951171875</ele>
        <time>2012-06-17T10:56:49Z</time>
      </trkpt>
      <trkpt lat="45.219700494781137" lon="6.885817525908351">
        <ele>2111.39990234375</ele>
        <time>2012-06-17T10:56:58Z</time>
      </trkpt>
      <trkpt lat="45.219790348783135" lon="6.885769497603178">
        <ele>2111.60009765625</ele>
        <time>2012-06-17T10:57:05Z</time>
      </trkpt>
      <trkpt lat="45.219872994348407" lon="6.885662460699678">
        <ele>2112.39990234375</ele>
        <time>2012-06-17T10:57:12Z</time>
      </trkpt>
      <trkpt lat="45.219896715134382" lon="6.885513346642256">
        <ele>2113.39990234375</ele>
        <time>2012-06-17T10:57:20Z</time>
      </trkpt>
      <trkpt lat="45.219899648800492" lon="6.88538895919919">
        <ele>2114.199951171875</ele>
        <time>2012-06-17T10:57:28Z</time>
      </trkpt>
      <trkpt lat="45.219901157543063" lon="6.885371692478657">
        <ele>2114.39990234375</ele>
        <time>2012-06-17T10:57:29Z</time>
      </trkpt>
      <trkpt lat="45.219912808388472" lon="6.885321652516723">
        <ele>2114.60009765625</ele>
        <time>2012-06-17T10:57:33Z</time>
      </trkpt>
      <trkpt lat="45.219918172806501" lon="6.88529952429235">
        <ele>2114.800048828125</ele>
        <time>2012-06-17T10:57:38Z</time>
      </trkpt>
      <trkpt lat="45.219902666285634" lon="6.885363394394517">
        <ele>2114.39990234375</ele>
        <time>2012-06-17T11:04:58Z</time>
      </trkpt>
      <trkpt lat="45.219890093430877" lon="6.885377978906035">
        <ele>2114.199951171875</ele>
        <time>2012-06-17T11:04:59Z</time>
      </trkpt>
      <trkpt lat="45.219826810061932" lon="6.885384349152446">
        <ele>2114.199951171875</ele>
        <time>2012-06-17T11:05:02Z</time>
      </trkpt>
      <trkpt lat="45.219713235273957" lon="6.885320479050279">
        <ele>2114.60009765625</ele>
        <time>2012-06-17T11:05:05Z</time>
      </trkpt>
      <trkpt lat="45.219659255817533" lon="6.885289466008544">
        <ele>2114.800048828125</ele>
        <time>2012-06-17T11:05:06Z</time>
      </trkpt>
      <trkpt lat="45.219359183683991" lon="6.885174885392189">
        <ele>2115.199951171875</ele>
        <time>2012-06-17T11:05:10Z</time>
      </trkpt>
      <trkpt lat="45.219059530645609" lon="6.885032895952463">
        <ele>2116</ele>
        <time>2012-06-17T11:05:14Z</time>
      </trkpt>
      <trkpt lat="45.21893254481256" lon="6.884983275085688">
        <ele>2116.60009765625</ele>
        <time>2012-06-17T11:05:17Z</time>
      </trkpt>
      <trkpt lat="45.218887282535434" lon="6.884974054992199">
        <ele>2116.800048828125</ele>
        <time>2012-06-17T11:05:20Z</time>
      </trkpt>
      <trkpt lat="45.218883259221911" lon="6.884976653382182">
        <ele>2116.800048828125</ele>
        <time>2012-06-17T11:05:21Z</time>
      </trkpt>
      <trkpt lat="45.218832045793533" lon="6.884977743029594">
        <ele>2116.800048828125</ele>
        <time>2012-06-17T11:06:00Z</time>
      </trkpt>
      <trkpt lat="45.218723751604557" lon="6.884984532371163">
        <ele>2117</ele>
        <time>2012-06-17T11:06:06Z</time>
      </trkpt>
      <trkpt lat="45.218569440767169" lon="6.88499366864562">
        <ele>2117.39990234375</ele>
        <time>2012-06-17T11:06:14Z</time>
      </trkpt>
      <trkpt lat="45.218375567346811" lon="6.884983191266656">
        <ele>2118</ele>
        <time>2012-06-17T11:06:23Z</time>
      </trkpt>
      <trkpt lat="45.21821228787303" lon="6.884943125769496">
        <ele>2118.60009765625</ele>
        <time>2012-06-17T11:06:30Z</time>
      </trkpt>
      <trkpt lat="45.21803786046803" lon="6.884902389720082">
        <ele>2119.60009765625</ele>
        <time>2012-06-17T11:06:38Z</time>
      </trkpt>
      <trkpt lat="45.21779453381896" lon="6.884881015866995">
        <ele>2120.60009765625</ele>
        <time>2012-06-17T11:06:47Z</time>
      </trkpt>
      <trkpt lat="45.217741476371884" lon="6.884728632867336">
        <ele>2121</ele>
        <time>2012-06-17T11:06:52Z</time>
      </trkpt>
      <trkpt lat="45.217640725895762" lon="6.884519001469016">
        <ele>2121.60009765625</ele>
        <time>2012-06-17T11:06:58Z</time>
      </trkpt>
      <trkpt lat="45.217416761443019" lon="6.884331665933132">
        <ele>2122.60009765625</ele>
        <time>2012-06-17T11:07:07Z</time>
      </trkpt>
      <trkpt lat="45.217211237177253" lon="6.884145755320787">
        <ele>2123.199951171875</ele>
        <time>2012-06-17T11:07:16Z</time>
      </trkpt>
      <trkpt lat="45.217007305473089" lon="6.884006699547172">
        <ele>2123.39990234375</ele>
        <time>2012-06-17T11:07:24Z</time>
      </trkpt>
      <trkpt lat="45.216802870854735" lon="6.883859764784575">
        <ele>2123</ele>
        <time>2012-06-17T11:07:32Z</time>
      </trkpt>
      <trkpt lat="45.216565076261759" lon="6.883646277710795">
        <ele>2122.60009765625</ele>
        <time>2012-06-17T11:07:42Z</time>
      </trkpt>
      <trkpt lat="45.216334238648415" lon="6.883540162816644">
        <ele>2123.800048828125</ele>
        <time>2012-06-17T11:07:49Z</time>
      </trkpt>
      <trkpt lat="45.216114465147257" lon="6.883417451754212">
        <ele>2124.60009765625</ele>
        <time>2012-06-17T11:07:57Z</time>
      </trkpt>
      <trkpt lat="45.215998711064458" lon="6.883329274132848">
        <ele>2124.60009765625</ele>
        <time>2012-06-17T11:08:03Z</time>
      </trkpt>
      <trkpt lat="45.215986641123891" lon="6.883313432335854">
        <ele>2124.60009765625</ele>
        <time>2012-06-17T11:08:05Z</time>
      </trkpt>
      <trkpt lat="45.215977840125561" lon="6.883321898058057">
        <ele>2124.800048828125</ele>
        <time>2012-06-17T11:08:07Z</time>
      </trkpt>
      <trkpt lat="45.215980103239417" lon="6.883333716541529">
        <ele>2124.800048828125</ele>
        <time>2012-06-17T11:08:09Z</time>
      </trkpt>
      <trkpt lat="45.215988904237747" lon="6.883345870301127">
        <ele>2124.800048828125</ele>
        <time>2012-06-17T11:08:13Z</time>
      </trkpt>
      <trkpt lat="45.215990832075477" lon="6.883338494226337">
        <ele>2124.800048828125</ele>
        <time>2012-06-17T11:08:22Z</time>
      </trkpt>
      <trkpt lat="45.215987898409367" lon="6.883294153958559">
        <ele>2124.39990234375</ele>
        <time>2012-06-17T11:08:28Z</time>
      </trkpt>
      <trkpt lat="45.21589620038867" lon="6.883203880861402">
        <ele>2124.60009765625</ele>
        <time>2012-06-17T11:08:38Z</time>
      </trkpt>
      <trkpt lat="45.215809531509876" lon="6.883170269429684">
        <ele>2125.39990234375</ele>
        <time>2012-06-17T11:08:47Z</time>
      </trkpt>
      <trkpt lat="45.215802239254117" lon="6.883171442896128">
        <ele>2125.39990234375</ele>
        <time>2012-06-17T11:08:48Z</time>
      </trkpt>
      <trkpt lat="45.215783966705203" lon="6.883180076256394">
        <ele>2126</ele>
        <time>2012-06-17T11:08:51Z</time>
      </trkpt>
      <trkpt lat="45.215778350830078" lon="6.883184434846044">
        <ele>2126</ele>
        <time>2012-06-17T11:08:54Z</time>
      </trkpt>
      <trkpt lat="45.215753875672817" lon="6.883211508393288">
        <ele>2126.800048828125</ele>
        <time>2012-06-17T11:09:04Z</time>
      </trkpt>
      <trkpt lat="45.215756138786674" lon="6.88321016728878">
        <ele>2126.800048828125</ele>
        <time>2012-06-17T11:09:15Z</time>
      </trkpt>
      <trkpt lat="45.215788828209043" lon="6.88318083062768">
        <ele>2125.800048828125</ele>
        <time>2012-06-17T11:09:24Z</time>
      </trkpt>
      <trkpt lat="45.215802155435085" lon="6.883192397654057">
        <ele>2125.60009765625</ele>
        <time>2012-06-17T11:09:34Z</time>
      </trkpt>
      <trkpt lat="45.215809782966971" lon="6.88323313370347">
        <ele>2125.800048828125</ele>
        <time>2012-06-17T11:09:41Z</time>
      </trkpt>
      <trkpt lat="45.215786565095186" lon="6.883256854489446">
        <ele>2126.39990234375</ele>
        <time>2012-06-17T11:09:48Z</time>
      </trkpt>
      <trkpt lat="45.215786648914218" lon="6.883260374888778">
        <ele>2126.39990234375</ele>
        <time>2012-06-17T11:10:08Z</time>
      </trkpt>
      <trkpt lat="45.215802909806371" lon="6.883250735700131">
        <ele>2126</ele>
        <time>2012-06-17T11:10:29Z</time>
      </trkpt>
      <trkpt lat="45.215822691097856" lon="6.883276216685772">
        <ele>2125.800048828125</ele>
        <time>2012-06-17T11:10:34Z</time>
      </trkpt>
      <trkpt lat="45.215853452682495" lon="6.883232211694121">
        <ele>2125.199951171875</ele>
        <time>2012-06-17T11:10:40Z</time>
      </trkpt>
      <trkpt lat="45.215858817100525" lon="6.883239671587944">
        <ele>2125.199951171875</ele>
        <time>2012-06-17T11:10:41Z</time>
      </trkpt>
      <trkpt lat="45.215867199003696" lon="6.883276635780931">
        <ele>2125.39990234375</ele>
        <time>2012-06-17T11:10:44Z</time>
      </trkpt>
      <trkpt lat="45.215871054679155" lon="6.883342685177922">
        <ele>2125.800048828125</ele>
        <time>2012-06-17T11:10:51Z</time>
      </trkpt>
      <trkpt lat="45.215836940333247" lon="6.883380739018321">
        <ele>2126.60009765625</ele>
        <time>2012-06-17T11:10:52Z</time>
      </trkpt>
      <trkpt lat="45.215842723846436" lon="6.883428599685431">
        <ele>2127</ele>
        <time>2012-06-17T11:11:39Z</time>
      </trkpt>
      <trkpt lat="45.215791258960962" lon="6.883217543363571">
        <ele>2126</ele>
        <time>2012-06-17T11:11:40Z</time>
      </trkpt>
      <trkpt lat="45.215800646692514" lon="6.883200779557228">
        <ele>2125.800048828125</ele>
        <time>2012-06-17T11:11:46Z</time>
      </trkpt>
      <trkpt lat="45.215799976140261" lon="6.883194074034691">
        <ele>2125.60009765625</ele>
        <time>2012-06-17T11:11:47Z</time>
      </trkpt>
      <trkpt lat="45.215803580358624" lon="6.88317010179162">
        <ele>2125.39990234375</ele>
        <time>2012-06-17T11:11:51Z</time>
      </trkpt>
      <trkpt lat="45.2158048376441" lon="6.883162641897798">
        <ele>2125.39990234375</ele>
        <time>2012-06-17T11:12:14Z</time>
      </trkpt>
      <trkpt lat="45.215817075222731" lon="6.883181584998965">
        <ele>2125.199951171875</ele>
        <time>2012-06-17T11:12:37Z</time>
      </trkpt>
      <trkpt lat="45.215830570086837" lon="6.883202958852053">
        <ele>2125.199951171875</ele>
        <time>2012-06-17T11:19:45Z</time>
      </trkpt>
      <trkpt lat="45.215817578136921" lon="6.883240761235356">
        <ele>2125.60009765625</ele>
        <time>2012-06-17T11:19:51Z</time>
      </trkpt>
      <trkpt lat="45.215789331123233" lon="6.883275713771582">
        <ele>2126.60009765625</ele>
        <time>2012-06-17T11:19:55Z</time>
      </trkpt>
      <trkpt lat="45.21578187122941" lon="6.88326733186841">
        <ele>2126.60009765625</ele>
        <time>2012-06-17T11:19:57Z</time>
      </trkpt>
      <trkpt lat="45.215801652520895" lon="6.883251657709479">
        <ele>2126.199951171875</ele>
        <time>2012-06-17T11:20:02Z</time>
      </trkpt>
      <trkpt lat="45.215828474611044" lon="6.883266661316156">
        <ele>2125.60009765625</ele>
        <time>2012-06-17T11:20:08Z</time>
      </trkpt>
      <trkpt lat="45.215860828757286" lon="6.883340924978256">
        <ele>2125.800048828125</ele>
        <time>2012-06-17T11:20:14Z</time>
      </trkpt>
      <trkpt lat="45.215751193463802" lon="6.883423235267401">
        <ele>2129.199951171875</ele>
        <time>2012-06-17T11:21:34Z</time>
      </trkpt>
      <trkpt lat="45.21549261175096" lon="6.883012102916837">
        <ele>2130</ele>
        <time>2012-06-17T12:38:45Z</time>
      </trkpt>
      <trkpt lat="45.215504094958305" lon="6.883007660508156">
        <ele>2129.800048828125</ele>
        <time>2012-06-17T12:38:46Z</time>
      </trkpt>
      <trkpt lat="45.215516835451126" lon="6.883004978299141">
        <ele>2129.60009765625</ele>
        <time>2012-06-17T12:38:47Z</time>
      </trkpt>
      <trkpt lat="45.215546423569322" lon="6.883007241412997">
        <ele>2129</ele>
        <time>2012-06-17T12:38:49Z</time>
      </trkpt>
      <trkpt lat="45.215570311993361" lon="6.88299173489213">
        <ele>2128.39990234375</ele>
        <time>2012-06-17T12:38:51Z</time>
      </trkpt>
      <trkpt lat="45.215598056092858" lon="6.882943622767925">
        <ele>2127.39990234375</ele>
        <time>2012-06-17T12:38:55Z</time>
      </trkpt>
      <trkpt lat="45.215612556785345" lon="6.882945382967591">
        <ele>2127.199951171875</ele>
        <time>2012-06-17T12:38:57Z</time>
      </trkpt>
      <trkpt lat="45.215616412460804" lon="6.882939850911498">
        <ele>2127</ele>
        <time>2012-06-17T12:39:00Z</time>
      </trkpt>
      <trkpt lat="45.215597301721573" lon="6.882970528677106">
        <ele>2127.60009765625</ele>
        <time>2012-06-17T12:39:41Z</time>
      </trkpt>
      <trkpt lat="45.215586740523577" lon="6.882999530062079">
        <ele>2128.199951171875</ele>
        <time>2012-06-17T12:39:53Z</time>
      </trkpt>
      <trkpt lat="45.215635858476162" lon="6.882963655516505">
        <ele>2126.800048828125</ele>
        <time>2012-06-17T12:39:56Z</time>
      </trkpt>
      <trkpt lat="45.215725293383002" lon="6.883038589730859">
        <ele>2126</ele>
        <time>2012-06-17T12:40:15Z</time>
      </trkpt>
      <trkpt lat="45.215852865949273" lon="6.883074464276433">
        <ele>2124</ele>
        <time>2012-06-17T12:45:15Z</time>
      </trkpt>
      <trkpt lat="45.21582243964076" lon="6.883137077093124">
        <ele>2124.800048828125</ele>
        <time>2012-06-17T12:45:38Z</time>
      </trkpt>
      <trkpt lat="45.215812465175986" lon="6.883130874484778">
        <ele>2125</ele>
        <time>2012-06-17T12:45:52Z</time>
      </trkpt>
      <trkpt lat="45.215783463791013" lon="6.883126851171255">
        <ele>2125.60009765625</ele>
        <time>2012-06-17T12:46:34Z</time>
      </trkpt>
      <trkpt lat="45.215780613943934" lon="6.883135568350554">
        <ele>2125.60009765625</ele>
        <time>2012-06-17T12:46:44Z</time>
      </trkpt>
      <trkpt lat="45.215790504589677" lon="6.883146800100803">
        <ele>2125.60009765625</ele>
        <time>2012-06-17T12:47:06Z</time>
      </trkpt>
      <trkpt lat="45.215801317244768" lon="6.883124504238367">
        <ele>2125.199951171875</ele>
        <time>2012-06-17T12:47:34Z</time>
      </trkpt>
      <trkpt lat="45.21579553373158" lon="6.883130287751555">
        <ele>2125.39990234375</ele>
        <time>2012-06-17T12:47:50Z</time>
      </trkpt>
      <trkpt lat="45.215802490711212" lon="6.883137999102473">
        <ele>2125.199951171875</ele>
        <time>2012-06-17T12:48:06Z</time>
      </trkpt>
      <trkpt lat="45.215789750218391" lon="6.883143279701471">
        <ele>2125.60009765625</ele>
        <time>2012-06-17T12:48:23Z</time>
      </trkpt>
      <trkpt lat="45.215789247304201" lon="6.883131712675095">
        <ele>2125.39990234375</ele>
        <time>2012-06-17T12:48:28Z</time>
      </trkpt>
      <trkpt lat="45.215784888714552" lon="6.883132047951222">
        <ele>2125.60009765625</ele>
        <time>2012-06-17T12:48:38Z</time>
      </trkpt>
      <trkpt lat="45.215787654742599" lon="6.883122827857733">
        <ele>2125.39990234375</ele>
        <time>2012-06-17T12:48:50Z</time>
      </trkpt>
      <trkpt lat="45.215777009725571" lon="6.883152164518833">
        <ele>2125.800048828125</ele>
        <time>2012-06-17T12:48:54Z</time>
      </trkpt>
      <trkpt lat="45.215776758268476" lon="6.883125929161906">
        <ele>2125.60009765625</ele>
        <time>2012-06-17T12:48:59Z</time>
      </trkpt>
      <trkpt lat="45.215798048302531" lon="6.883123833686113">
        <ele>2125.199951171875</ele>
        <time>2012-06-17T12:49:04Z</time>
      </trkpt>
      <trkpt lat="45.215789247304201" lon="6.883122827857733">
        <ele>2125.39990234375</ele>
        <time>2012-06-17T12:49:08Z</time>
      </trkpt>
      <trkpt lat="45.215784888714552" lon="6.883127940818667">
        <ele>2125.39990234375</ele>
        <time>2012-06-17T12:49:15Z</time>
      </trkpt>
      <trkpt lat="45.215780446305871" lon="6.883133975788951">
        <ele>2125.60009765625</ele>
        <time>2012-06-17T12:49:24Z</time>
      </trkpt>
      <trkpt lat="45.21578673273325" lon="6.883156942203641">
        <ele>2125.60009765625</ele>
        <time>2012-06-17T12:49:29Z</time>
      </trkpt>
      <trkpt lat="45.215767035260797" lon="6.88313590362668">
        <ele>2126</ele>
        <time>2012-06-17T12:49:49Z</time>
      </trkpt>
      <trkpt lat="45.215755635872483" lon="6.883120145648718">
        <ele>2126</ele>
        <time>2012-06-17T12:50:41Z</time>
      </trkpt>
      <trkpt lat="45.215755552053452" lon="6.883123079314828">
        <ele>2126</ele>
        <time>2012-06-17T12:50:50Z</time>
      </trkpt>
      <trkpt lat="45.215768124908209" lon="6.883126934990287">
        <ele>2125.800048828125</ele>
        <time>2012-06-17T12:51:02Z</time>
      </trkpt>
      <trkpt lat="45.215803496539593" lon="6.88314126804471">
        <ele>2125.199951171875</ele>
        <time>2012-06-17T12:51:21Z</time>
      </trkpt>
      <trkpt lat="45.21579897031188" lon="6.883146548643708">
        <ele>2125.39990234375</ele>
        <time>2012-06-17T12:51:27Z</time>
      </trkpt>
      <trkpt lat="45.21580240689218" lon="6.88314076513052">
        <ele>2125.199951171875</ele>
        <time>2012-06-17T12:51:33Z</time>
      </trkpt>
      <trkpt lat="45.215799557045102" lon="6.883140094578266">
        <ele>2125.199951171875</ele>
        <time>2012-06-17T12:51:40Z</time>
      </trkpt>
      <trkpt lat="45.215797880664468" lon="6.883125174790621">
        <ele>2125.199951171875</ele>
        <time>2012-06-17T12:52:02Z</time>
      </trkpt>
      <trkpt lat="45.215782541781664" lon="6.883132047951222">
        <ele>2125.60009765625</ele>
        <time>2012-06-17T12:52:18Z</time>
      </trkpt>
      <trkpt lat="45.215755300596356" lon="6.883161887526512">
        <ele>2126.39990234375</ele>
        <time>2012-06-17T12:52:48Z</time>
      </trkpt>
      <trkpt lat="45.215773405507207" lon="6.883154511451721">
        <ele>2126</ele>
        <time>2012-06-17T12:52:51Z</time>
      </trkpt>
      <trkpt lat="45.215778518468142" lon="6.883162222802639">
        <ele>2125.800048828125</ele>
        <time>2012-06-17T12:52:59Z</time>
      </trkpt>
      <trkpt lat="45.215781284496188" lon="6.883147303014994">
        <ele>2125.800048828125</ele>
        <time>2012-06-17T12:53:05Z</time>
      </trkpt>
      <trkpt lat="45.215775836259127" lon="6.883125593885779">
        <ele>2125.60009765625</ele>
        <time>2012-06-17T12:53:48Z</time>
      </trkpt>
      <trkpt lat="45.215775836259127" lon="6.883142776787281">
        <ele>2125.800048828125</ele>
        <time>2012-06-17T12:54:09Z</time>
      </trkpt>
      <trkpt lat="45.215788660570979" lon="6.883136993274093">
        <ele>2125.39990234375</ele>
        <time>2012-06-17T12:54:15Z</time>
      </trkpt>
      <trkpt lat="45.215780530124903" lon="6.883149482309818">
        <ele>2125.800048828125</ele>
        <time>2012-06-17T12:54:26Z</time>
      </trkpt>
      <trkpt lat="45.215777177363634" lon="6.883141854777932">
        <ele>2125.800048828125</ele>
        <time>2012-06-17T12:54:32Z</time>
      </trkpt>
      <trkpt lat="45.215784134343266" lon="6.883117714896798">
        <ele>2125.39990234375</ele>
        <time>2012-06-17T12:55:24Z</time>
      </trkpt>
      <trkpt lat="45.215775836259127" lon="6.88311880454421">
        <ele>2125.60009765625</ele>
        <time>2012-06-17T12:55:43Z</time>
      </trkpt>
      <trkpt lat="45.215783128514886" lon="6.883123498409987">
        <ele>2125.39990234375</ele>
        <time>2012-06-17T12:55:49Z</time>
      </trkpt>
      <trkpt lat="45.215787906199694" lon="6.883123582229018">
        <ele>2125.39990234375</ele>
        <time>2012-06-17T12:56:23Z</time>
      </trkpt>
      <trkpt lat="45.215807016938925" lon="6.883119642734528">
        <ele>2125</ele>
        <time>2012-06-17T12:56:33Z</time>
      </trkpt>
      <trkpt lat="45.215794192627072" lon="6.883142441511154">
        <ele>2125.39990234375</ele>
        <time>2012-06-17T12:57:11Z</time>
      </trkpt>
      <trkpt lat="45.215783547610044" lon="6.883139843121171">
        <ele>2125.60009765625</ele>
        <time>2012-06-17T12:57:25Z</time>
      </trkpt>
      <trkpt lat="45.215787822380662" lon="6.883118385449052">
        <ele>2125.39990234375</ele>
        <time>2012-06-17T12:58:51Z</time>
      </trkpt>
      <trkpt lat="45.215795366093516" lon="6.883097011595964">
        <ele>2125</ele>
        <time>2012-06-17T12:59:03Z</time>
      </trkpt>
      <trkpt lat="45.215796204283834" lon="6.883100448176265">
        <ele>2125</ele>
        <time>2012-06-17T12:59:07Z</time>
      </trkpt>
      <trkpt lat="45.21578723564744" lon="6.883092066273093">
        <ele>2125.199951171875</ele>
        <time>2012-06-17T13:01:36Z</time>
      </trkpt>
      <trkpt lat="45.215734178200364" lon="6.883046803995967">
        <ele>2125.800048828125</ele>
        <time>2012-06-17T13:02:45Z</time>
      </trkpt>
      <trkpt lat="45.215723533183336" lon="6.883026352152228">
        <ele>2125.800048828125</ele>
        <time>2012-06-17T13:02:51Z</time>
      </trkpt>
      <trkpt lat="45.215671481564641" lon="6.882971953600645">
        <ele>2126.39990234375</ele>
        <time>2012-06-17T13:02:58Z</time>
      </trkpt>
      <trkpt lat="45.215667206794024" lon="6.882965164259076">
        <ele>2126.39990234375</ele>
        <time>2012-06-17T13:03:04Z</time>
      </trkpt>
      <trkpt lat="45.215626219287515" lon="6.882936917245388">
        <ele>2126.800048828125</ele>
        <time>2012-06-17T13:03:10Z</time>
      </trkpt>
      <trkpt lat="45.215567713603377" lon="6.882910262793303">
        <ele>2127.60009765625</ele>
        <time>2012-06-17T13:03:17Z</time>
      </trkpt>
      <trkpt lat="45.215545920655131" lon="6.882909424602985">
        <ele>2128</ele>
        <time>2012-06-17T13:03:25Z</time>
      </trkpt>
      <trkpt lat="45.215558242052794" lon="6.882952759042382">
        <ele>2128.199951171875</ele>
        <time>2012-06-17T13:03:45Z</time>
      </trkpt>
      <trkpt lat="45.215619849041104" lon="6.882954854518175">
        <ele>2127</ele>
        <time>2012-06-17T13:05:50Z</time>
      </trkpt>
      <trkpt lat="45.215673157945275" lon="6.883009672164917">
        <ele>2126.60009765625</ele>
        <time>2012-06-17T13:05:57Z</time>
      </trkpt>
      <trkpt lat="45.215705092996359" lon="6.883032638579607">
        <ele>2126.199951171875</ele>
        <time>2012-06-17T13:06:02Z</time>
      </trkpt>
      <trkpt lat="45.215717079117894" lon="6.883043199777603">
        <ele>2126.199951171875</ele>
        <time>2012-06-17T13:06:04Z</time>
      </trkpt>
      <trkpt lat="45.215747253969312" lon="6.883081421256065">
        <ele>2125.800048828125</ele>
        <time>2012-06-17T13:06:11Z</time>
      </trkpt>
      <trkpt lat="45.215763263404369" lon="6.883087875321508">
        <ele>2125.60009765625</ele>
        <time>2012-06-17T13:06:16Z</time>
      </trkpt>
      <trkpt lat="45.215785559266806" lon="6.883116876706481">
        <ele>2125.39990234375</ele>
        <time>2012-06-17T13:06:45Z</time>
      </trkpt>
      <trkpt lat="45.215783966705203" lon="6.883118720725179">
        <ele>2125.39990234375</ele>
        <time>2012-06-17T13:07:08Z</time>
      </trkpt>
      <trkpt lat="45.215795114636421" lon="6.883108746260405">
        <ele>2125.199951171875</ele>
        <time>2012-06-17T13:07:18Z</time>
      </trkpt>
      <trkpt lat="45.2158014010638" lon="6.88309533521533">
        <ele>2125</ele>
        <time>2012-06-17T13:07:52Z</time>
      </trkpt>
      <trkpt lat="45.215803747996688" lon="6.883064154535532">
        <ele>2124.60009765625</ele>
        <time>2012-06-17T13:09:11Z</time>
      </trkpt>
      <trkpt lat="45.215797545388341" lon="6.883090222254396">
        <ele>2125</ele>
        <time>2012-06-17T13:09:20Z</time>
      </trkpt>
      <trkpt lat="45.215793270617723" lon="6.883097179234028">
        <ele>2125</ele>
        <time>2012-06-17T13:09:29Z</time>
      </trkpt>
      <trkpt lat="45.215788409113884" lon="6.883099609985948">
        <ele>2125.199951171875</ele>
        <time>2012-06-17T13:11:01Z</time>
      </trkpt>
      <trkpt lat="45.215778350830078" lon="6.883102292194963">
        <ele>2125.39990234375</ele>
        <time>2012-06-17T13:11:38Z</time>
      </trkpt>
      <trkpt lat="45.215745912864804" lon="6.883109584450722">
        <ele>2126.199951171875</ele>
        <time>2012-06-17T13:17:59Z</time>
      </trkpt>
      <trkpt lat="45.215767957270145" lon="6.883125342428684">
        <ele>2125.800048828125</ele>
        <time>2012-06-17T13:18:27Z</time>
      </trkpt>
      <trkpt lat="45.21575253456831" lon="6.883091982454062">
        <ele>2125.800048828125</ele>
        <time>2012-06-17T13:18:35Z</time>
      </trkpt>
      <trkpt lat="45.215763431042433" lon="6.883080499246717">
        <ele>2125.60009765625</ele>
        <time>2012-06-17T13:18:42Z</time>
      </trkpt>
      <trkpt lat="45.215793019160628" lon="6.88307530246675">
        <ele>2125</ele>
        <time>2012-06-17T13:18:53Z</time>
      </trkpt>
      <trkpt lat="45.2158014010638" lon="6.883061556145549">
        <ele>2124.60009765625</ele>
        <time>2012-06-17T13:19:30Z</time>
      </trkpt>
      <trkpt lat="45.215823026373982" lon="6.883048480376601">
        <ele>2124.199951171875</ele>
        <time>2012-06-17T13:19:49Z</time>
      </trkpt>
      <trkpt lat="45.215851273387671" lon="6.883106399327517">
        <ele>2124.199951171875</ele>
        <time>2012-06-17T13:19:59Z</time>
      </trkpt>
      <trkpt lat="45.215840041637421" lon="6.883115703240037">
        <ele>2124.39990234375</ele>
        <time>2012-06-17T13:20:04Z</time>
      </trkpt>
      <trkpt lat="45.215859320014715" lon="6.883162306621671">
        <ele>2124.60009765625</ele>
        <time>2012-06-17T13:20:09Z</time>
      </trkpt>
      <trkpt lat="45.21594800055027" lon="6.883264733478427">
        <ele>2124.60009765625</ele>
        <time>2012-06-17T13:20:15Z</time>
      </trkpt>
      <trkpt lat="45.216113375499845" lon="6.883422061800957">
        <ele>2124.60009765625</ele>
        <time>2012-06-17T13:20:22Z</time>
      </trkpt>
      <trkpt lat="45.216345051303506" lon="6.88352876342833">
        <ele>2123.60009765625</ele>
        <time>2012-06-17T13:20:30Z</time>
      </trkpt>
      <trkpt lat="45.216585611924529" lon="6.883652145043016">
        <ele>2122.39990234375</ele>
        <time>2012-06-17T13:20:37Z</time>
      </trkpt>
      <trkpt lat="45.216769678518176" lon="6.883825482800603">
        <ele>2122.800048828125</ele>
        <time>2012-06-17T13:20:43Z</time>
      </trkpt>
      <trkpt lat="45.217043599113822" lon="6.884018266573548">
        <ele>2123.199951171875</ele>
        <time>2012-06-17T13:20:51Z</time>
      </trkpt>
      <trkpt lat="45.217334199696779" lon="6.884208619594574">
        <ele>2122.800048828125</ele>
        <time>2012-06-17T13:20:59Z</time>
      </trkpt>
      <trkpt lat="45.217621196061373" lon="6.884412718936801">
        <ele>2121.60009765625</ele>
        <time>2012-06-17T13:21:07Z</time>
      </trkpt>
      <trkpt lat="45.217779781669378" lon="6.884637353941798">
        <ele>2121</ele>
        <time>2012-06-17T13:21:13Z</time>
      </trkpt>
      <trkpt lat="45.217815656214952" lon="6.884758388623595">
        <ele>2120.800048828125</ele>
        <time>2012-06-17T13:21:17Z</time>
      </trkpt>
      <trkpt lat="45.217877263203263" lon="6.884855534881353">
        <ele>2120.39990234375</ele>
        <time>2012-06-17T13:21:21Z</time>
      </trkpt>
      <trkpt lat="45.217921687290072" lon="6.884854445233941">
        <ele>2120.199951171875</ele>
        <time>2012-06-17T13:21:23Z</time>
      </trkpt>
      <trkpt lat="45.218039788305759" lon="6.884871544316411">
        <ele>2119.60009765625</ele>
        <time>2012-06-17T13:21:28Z</time>
      </trkpt>
      <trkpt lat="45.218212874606252" lon="6.884931642562151">
        <ele>2118.800048828125</ele>
        <time>2012-06-17T13:21:33Z</time>
      </trkpt>
      <trkpt lat="45.218467684462667" lon="6.884991237893701">
        <ele>2117.60009765625</ele>
        <time>2012-06-17T13:21:39Z</time>
      </trkpt>
      <trkpt lat="45.218749903142452" lon="6.884988471865654">
        <ele>2117</ele>
        <time>2012-06-17T13:21:45Z</time>
      </trkpt>
      <trkpt lat="45.21881184540689" lon="6.884986208751798">
        <ele>2116.800048828125</ele>
        <time>2012-06-17T13:21:46Z</time>
      </trkpt>
      <trkpt lat="45.21912650205195" lon="6.885047229006887">
        <ele>2115.800048828125</ele>
        <time>2012-06-17T13:21:50Z</time>
      </trkpt>
      <trkpt lat="45.219220295548439" lon="6.885088048875332">
        <ele>2115.60009765625</ele>
        <time>2012-06-17T13:21:51Z</time>
      </trkpt>
      <trkpt lat="45.219476781785488" lon="6.885193828493357">
        <ele>2115.199951171875</ele>
        <time>2012-06-17T13:21:54Z</time>
      </trkpt>
      <trkpt lat="45.219691107049584" lon="6.885293321684003">
        <ele>2114.800048828125</ele>
        <time>2012-06-17T13:21:58Z</time>
      </trkpt>
      <trkpt lat="45.21983552724123" lon="6.885376805439591">
        <ele>2114.199951171875</ele>
        <time>2012-06-17T13:22:03Z</time>
      </trkpt>
      <trkpt lat="45.219869641587138" lon="6.885388037189841">
        <ele>2114.199951171875</ele>
        <time>2012-06-17T13:22:05Z</time>
      </trkpt>
      <trkpt lat="45.219898978248239" lon="6.885347720235586">
        <ele>2114.39990234375</ele>
        <time>2012-06-17T13:22:08Z</time>
      </trkpt>
      <trkpt lat="45.219975924119353" lon="6.885286532342434">
        <ele>2115</ele>
        <time>2012-06-17T13:22:13Z</time>
      </trkpt>
      <trkpt lat="45.220001488924026" lon="6.885282006114721">
        <ele>2115</ele>
        <time>2012-06-17T13:22:14Z</time>
      </trkpt>
      <trkpt lat="45.220079272985458" lon="6.885194331407547">
        <ele>2115.800048828125</ele>
        <time>2012-06-17T13:22:17Z</time>
      </trkpt>
      <trkpt lat="45.22014532238245" lon="6.885114200413227">
        <ele>2116.60009765625</ele>
        <time>2012-06-17T13:22:21Z</time>
      </trkpt>
      <trkpt lat="45.220156386494637" lon="6.885123588144779">
        <ele>2116.60009765625</ele>
        <time>2012-06-17T13:22:22Z</time>
      </trkpt>
      <trkpt lat="45.220240708440542" lon="6.885147979483008">
        <ele>2116.60009765625</ele>
        <time>2012-06-17T13:22:25Z</time>
      </trkpt>
      <trkpt lat="45.220297705382109" lon="6.885149655863643">
        <ele>2116.60009765625</ele>
        <time>2012-06-17T13:22:26Z</time>
      </trkpt>
      <trkpt lat="45.220435839146376" lon="6.885177148506045">
        <ele>2116.800048828125</ele>
        <time>2012-06-17T13:22:29Z</time>
      </trkpt>
      <trkpt lat="45.220626862719655" lon="6.885239845141769">
        <ele>2116.39990234375</ele>
        <time>2012-06-17T13:22:33Z</time>
      </trkpt>
      <trkpt lat="45.220652930438519" lon="6.885278569534421">
        <ele>2116</ele>
        <time>2012-06-17T13:22:34Z</time>
      </trkpt>
      <trkpt lat="45.220755022019148" lon="6.885351911187172">
        <ele>2115.199951171875</ele>
        <time>2012-06-17T13:22:37Z</time>
      </trkpt>
      <trkpt lat="45.220843451097608" lon="6.885424498468638">
        <ele>2114.60009765625</ele>
        <time>2012-06-17T13:22:40Z</time>
      </trkpt>
      <trkpt lat="45.220882510766387" lon="6.885484680533409">
        <ele>2114.199951171875</ele>
        <time>2012-06-17T13:22:42Z</time>
      </trkpt>
      <trkpt lat="45.221022572368383" lon="6.88572465442121">
        <ele>2113</ele>
        <time>2012-06-17T13:22:49Z</time>
      </trkpt>
      <trkpt lat="45.221210243180394" lon="6.885944176465273">
        <ele>2112.60009765625</ele>
        <time>2012-06-17T13:22:55Z</time>
      </trkpt>
      <trkpt lat="45.221424736082554" lon="6.886124722659588">
        <ele>2113.39990234375</ele>
        <time>2012-06-17T13:23:00Z</time>
      </trkpt>
      <trkpt lat="45.22145482711494" lon="6.886174762621522">
        <ele>2113.199951171875</ele>
        <time>2012-06-17T13:23:01Z</time>
      </trkpt>
      <trkpt lat="45.221519703045487" lon="6.886337455362082">
        <ele>2112</ele>
        <time>2012-06-17T13:23:04Z</time>
      </trkpt>
      <trkpt lat="45.221547111868858" lon="6.886388417333365">
        <ele>2111.800048828125</ele>
        <time>2012-06-17T13:23:05Z</time>
      </trkpt>
      <trkpt lat="45.221680467948318" lon="6.886634761467576">
        <ele>2110.39990234375</ele>
        <time>2012-06-17T13:23:10Z</time>
      </trkpt>
      <trkpt lat="45.221737548708916" lon="6.886706342920661">
        <ele>2110</ele>
        <time>2012-06-17T13:23:12Z</time>
      </trkpt>
      <trkpt lat="45.221825055778027" lon="6.886831484735012">
        <ele>2109</ele>
        <time>2012-06-17T13:23:15Z</time>
      </trkpt>
      <trkpt lat="45.221979534253478" lon="6.887075481936336">
        <ele>2106.800048828125</ele>
        <time>2012-06-17T13:23:20Z</time>
      </trkpt>
      <trkpt lat="45.221993280574679" lon="6.887111105024815">
        <ele>2106.39990234375</ele>
        <time>2012-06-17T13:23:21Z</time>
      </trkpt>
      <trkpt lat="45.222005350515246" lon="6.887193834409118">
        <ele>2105.39990234375</ele>
        <time>2012-06-17T13:23:23Z</time>
      </trkpt>
      <trkpt lat="45.222060671076179" lon="6.887401454150677">
        <ele>2102.800048828125</ele>
        <time>2012-06-17T13:23:26Z</time>
      </trkpt>
      <trkpt lat="45.222089923918247" lon="6.887479657307267">
        <ele>2101.800048828125</ele>
        <time>2012-06-17T13:23:27Z</time>
      </trkpt>
      <trkpt lat="45.222128564491868" lon="6.887537995353341">
        <ele>2101</ele>
        <time>2012-06-17T13:23:28Z</time>
      </trkpt>
      <trkpt lat="45.222279019653797" lon="6.887688366696239">
        <ele>2099.39990234375</ele>
        <time>2012-06-17T13:23:31Z</time>
      </trkpt>
      <trkpt lat="45.222528045997024" lon="6.887830104678869">
        <ele>2098.60009765625</ele>
        <time>2012-06-17T13:23:35Z</time>
      </trkpt>
      <trkpt lat="45.222795847803354" lon="6.888041412457824">
        <ele>2097.39990234375</ele>
        <time>2012-06-17T13:23:40Z</time>
      </trkpt>
      <trkpt lat="45.222901208326221" lon="6.88829580321908">
        <ele>2094.39990234375</ele>
        <time>2012-06-17T13:23:44Z</time>
      </trkpt>
      <trkpt lat="45.223083263263106" lon="6.888608448207378">
        <ele>2090.39990234375</ele>
        <time>2012-06-17T13:23:49Z</time>
      </trkpt>
      <trkpt lat="45.223265569657087" lon="6.888912627473474">
        <ele>2086.39990234375</ele>
        <time>2012-06-17T13:23:54Z</time>
      </trkpt>
      <trkpt lat="45.22343136370182" lon="6.889206832274795">
        <ele>2083.60009765625</ele>
        <time>2012-06-17T13:23:59Z</time>
      </trkpt>
      <trkpt lat="45.223509650677443" lon="6.88932191580534">
        <ele>2083</ele>
        <time>2012-06-17T13:24:01Z</time>
      </trkpt>
      <trkpt lat="45.223643593490124" lon="6.889546047896147">
        <ele>2081.199951171875</ele>
        <time>2012-06-17T13:24:04Z</time>
      </trkpt>
      <trkpt lat="45.223841574043036" lon="6.889796582981944">
        <ele>2079.60009765625</ele>
        <time>2012-06-17T13:24:08Z</time>
      </trkpt>
      <trkpt lat="45.223892033100128" lon="6.889866655692458">
        <ele>2079</ele>
        <time>2012-06-17T13:24:09Z</time>
      </trkpt>
      <trkpt lat="45.223995633423328" lon="6.89012423157692">
        <ele>2077</ele>
        <time>2012-06-17T13:24:12Z</time>
      </trkpt>
      <trkpt lat="45.224023712798953" lon="6.89021316356957">
        <ele>2076.39990234375</ele>
        <time>2012-06-17T13:24:13Z</time>
      </trkpt>
      <trkpt lat="45.224207025021315" lon="6.890677940100431">
        <ele>2074.39990234375</ele>
        <time>2012-06-17T13:24:19Z</time>
      </trkpt>
      <trkpt lat="45.224317666143179" lon="6.890934929251671">
        <ele>2072.800048828125</ele>
        <time>2012-06-17T13:24:23Z</time>
      </trkpt>
      <trkpt lat="45.224396707490087" lon="6.891056969761848">
        <ele>2072</ele>
        <time>2012-06-17T13:24:25Z</time>
      </trkpt>
      <trkpt lat="45.224479520693421" lon="6.891147242859006">
        <ele>2071.39990234375</ele>
        <time>2012-06-17T13:24:27Z</time>
      </trkpt>
      <trkpt lat="45.224593179300427" lon="6.891216980293393">
        <ele>2071.199951171875</ele>
        <time>2012-06-17T13:24:30Z</time>
      </trkpt>
      <trkpt lat="45.224712872877717" lon="6.891203485429287">
        <ele>2071.60009765625</ele>
        <time>2012-06-17T13:24:33Z</time>
      </trkpt>
      <trkpt lat="45.22475017234683" lon="6.891208430752158">
        <ele>2071.800048828125</ele>
        <time>2012-06-17T13:24:34Z</time>
      </trkpt>
      <trkpt lat="45.224883444607258" lon="6.89124514348805">
        <ele>2071.800048828125</ele>
        <time>2012-06-17T13:24:39Z</time>
      </trkpt>
      <trkpt lat="45.22490993142128" lon="6.891224524006248">
        <ele>2072</ele>
        <time>2012-06-17T13:24:41Z</time>
      </trkpt>
      <trkpt lat="45.224887216463685" lon="6.891214298084378">
        <ele>2072</ele>
        <time>2012-06-17T13:24:43Z</time>
      </trkpt>
      <trkpt lat="45.224851090461016" lon="6.891207341104746">
        <ele>2072</ele>
        <time>2012-06-17T13:24:45Z</time>
      </trkpt>
      <trkpt lat="45.224803062155843" lon="6.8912339117378">
        <ele>2071.60009765625</ele>
        <time>2012-06-17T13:24:48Z</time>
      </trkpt>
      <trkpt lat="45.224762577563524" lon="6.891355533152819">
        <ele>2070.199951171875</ele>
        <time>2012-06-17T13:24:52Z</time>
      </trkpt>
      <trkpt lat="45.224784035235643" lon="6.891590896993876">
        <ele>2067.60009765625</ele>
        <time>2012-06-17T13:24:57Z</time>
      </trkpt>
      <trkpt lat="45.224923342466354" lon="6.89183933660388">
        <ele>2065.39990234375</ele>
        <time>2012-06-17T13:25:01Z</time>
      </trkpt>
      <trkpt lat="45.225084023550153" lon="6.892070258036256">
        <ele>2063.800048828125</ele>
        <time>2012-06-17T13:25:06Z</time>
      </trkpt>
      <trkpt lat="45.225140517577529" lon="6.892181737348437">
        <ele>2062.800048828125</ele>
        <time>2012-06-17T13:25:10Z</time>
      </trkpt>
      <trkpt lat="45.22514739073813" lon="6.89238072372973">
        <ele>2060.800048828125</ele>
        <time>2012-06-17T13:25:14Z</time>
      </trkpt>
      <trkpt lat="45.225214278325438" lon="6.892624385654926">
        <ele>2058.199951171875</ele>
        <time>2012-06-17T13:25:19Z</time>
      </trkpt>
      <trkpt lat="45.225241603329778" lon="6.892671659588814">
        <ele>2057.60009765625</ele>
        <time>2012-06-17T13:25:20Z</time>
      </trkpt>
      <trkpt lat="45.225267922505736" lon="6.89282588660717">
        <ele>2055.800048828125</ele>
        <time>2012-06-17T13:25:23Z</time>
      </trkpt>
      <trkpt lat="45.225286530330777" lon="6.892879111692309">
        <ele>2055</ele>
        <time>2012-06-17T13:25:25Z</time>
      </trkpt>
      <trkpt lat="45.225335480645299" lon="6.892918422818184">
        <ele>2054.39990234375</ele>
        <time>2012-06-17T13:25:27Z</time>
      </trkpt>
      <trkpt lat="45.225382503122091" lon="6.89295438118279">
        <ele>2054</ele>
        <time>2012-06-17T13:25:31Z</time>
      </trkpt>
      <trkpt lat="45.225493647158146" lon="6.892970139160752">
        <ele>2053.39990234375</ele>
        <time>2012-06-17T13:25:35Z</time>
      </trkpt>
      <trkpt lat="45.225706966593862" lon="6.893024789169431">
        <ele>2052.199951171875</ele>
        <time>2012-06-17T13:25:40Z</time>
      </trkpt>
      <trkpt lat="45.225833700969815" lon="6.893079271540046">
        <ele>2051</ele>
        <time>2012-06-17T13:25:44Z</time>
      </trkpt>
      <trkpt lat="45.225906707346439" lon="6.893134508281946">
        <ele>2050.39990234375</ele>
        <time>2012-06-17T13:25:49Z</time>
      </trkpt>
      <trkpt lat="45.225899498909712" lon="6.893156049773097">
        <ele>2050</ele>
        <time>2012-06-17T13:25:53Z</time>
      </trkpt>
      <trkpt lat="45.225959597155452" lon="6.893214052543044">
        <ele>2049.39990234375</ele>
        <time>2012-06-17T13:25:59Z</time>
      </trkpt>
      <trkpt lat="45.226059928536415" lon="6.893293764442205">
        <ele>2048.199951171875</ele>
        <time>2012-06-17T13:26:05Z</time>
      </trkpt>
      <trkpt lat="45.226132767274976" lon="6.893354700878263">
        <ele>2047.5999755859375</ele>
        <time>2012-06-17T13:26:10Z</time>
      </trkpt>
      <trkpt lat="45.226210970431566" lon="6.893495852127671">
        <ele>2046.4000244140625</ele>
        <time>2012-06-17T13:26:15Z</time>
      </trkpt>
      <trkpt lat="45.226331669837236" lon="6.893746387213469">
        <ele>2043.800048828125</ele>
        <time>2012-06-17T13:26:19Z</time>
      </trkpt>
      <trkpt lat="45.226432420313358" lon="6.893975045531988">
        <ele>2040.800048828125</ele>
        <time>2012-06-17T13:26:23Z</time>
      </trkpt>
      <trkpt lat="45.226463936269283" lon="6.894013769924641">
        <ele>2040</ele>
        <time>2012-06-17T13:26:24Z</time>
      </trkpt>
      <trkpt lat="45.226587234064937" lon="6.894119549542666">
        <ele>2037.5999755859375</ele>
        <time>2012-06-17T13:26:27Z</time>
      </trkpt>
      <trkpt lat="45.226622438058257" lon="6.894124075770378">
        <ele>2037</ele>
        <time>2012-06-17T13:26:28Z</time>
      </trkpt>
      <trkpt lat="45.226704999804497" lon="6.894165985286236">
        <ele>2036</ele>
        <time>2012-06-17T13:26:31Z</time>
      </trkpt>
      <trkpt lat="45.226741628721356" lon="6.894182246178389">
        <ele>2035.800048828125</ele>
        <time>2012-06-17T13:26:32Z</time>
      </trkpt>
      <trkpt lat="45.226965760812163" lon="6.894328342750669">
        <ele>2034.5999755859375</ele>
        <time>2012-06-17T13:26:38Z</time>
      </trkpt>
      <trkpt lat="45.226997109130025" lon="6.894312417134643">
        <ele>2034.5999755859375</ele>
        <time>2012-06-17T13:26:39Z</time>
      </trkpt>
      <trkpt lat="45.227073132991791" lon="6.894307723268867">
        <ele>2034.5999755859375</ele>
        <time>2012-06-17T13:26:41Z</time>
      </trkpt>
      <trkpt lat="45.227159550413489" lon="6.894351141527295">
        <ele>2034</ele>
        <time>2012-06-17T13:26:44Z</time>
      </trkpt>
      <trkpt lat="45.227199532091618" lon="6.894364133477211">
        <ele>2033.800048828125</ele>
        <time>2012-06-17T13:26:45Z</time>
      </trkpt>
      <trkpt lat="45.227352753281593" lon="6.894485922530294">
        <ele>2032.5999755859375</ele>
        <time>2012-06-17T13:26:49Z</time>
      </trkpt>
      <trkpt lat="45.22746498696506" lon="6.894586756825447">
        <ele>2031.5999755859375</ele>
        <time>2012-06-17T13:26:54Z</time>
      </trkpt>
      <trkpt lat="45.227469177916646" lon="6.894605867564678">
        <ele>2031.4000244140625</ele>
        <time>2012-06-17T13:26:58Z</time>
      </trkpt>
      <trkpt lat="45.227549895644188" lon="6.894644424319267">
        <ele>2030.800048828125</ele>
        <time>2012-06-17T13:27:03Z</time>
      </trkpt>
      <trkpt lat="45.227643521502614" lon="6.894704271107912">
        <ele>2030</ele>
        <time>2012-06-17T13:27:07Z</time>
      </trkpt>
      <trkpt lat="45.227680737152696" lon="6.894704857841134">
        <ele>2029.800048828125</ele>
        <time>2012-06-17T13:27:08Z</time>
      </trkpt>
      <trkpt lat="45.227804873138666" lon="6.894699577242136">
        <ele>2029.4000244140625</ele>
        <time>2012-06-17T13:27:11Z</time>
      </trkpt>
      <trkpt lat="45.227890033274889" lon="6.894659344106913">
        <ele>2029.4000244140625</ele>
        <time>2012-06-17T13:27:13Z</time>
      </trkpt>
      <trkpt lat="45.228094048798084" lon="6.894611902534962">
        <ele>2029.199951171875</ele>
        <time>2012-06-17T13:27:18Z</time>
      </trkpt>
      <trkpt lat="45.228142999112606" lon="6.894546858966351">
        <ele>2029.4000244140625</ele>
        <time>2012-06-17T13:27:20Z</time>
      </trkpt>
      <trkpt lat="45.228182477876544" lon="6.894477624446154">
        <ele>2030</ele>
        <time>2012-06-17T13:27:22Z</time>
      </trkpt>
      <trkpt lat="45.228198990225792" lon="6.89444912597537">
        <ele>2030.199951171875</ele>
        <time>2012-06-17T13:27:26Z</time>
      </trkpt>
      <trkpt lat="45.228192955255508" lon="6.894418615847826">
        <ele>2030.4000244140625</ele>
        <time>2012-06-17T13:27:41Z</time>
      </trkpt>
      <trkpt lat="45.228206366300583" lon="6.894368659704924">
        <ele>2030.800048828125</ele>
        <time>2012-06-17T13:27:49Z</time>
      </trkpt>
      <trkpt lat="45.228223297744989" lon="6.894338736310601">
        <ele>2031</ele>
        <time>2012-06-17T13:27:59Z</time>
      </trkpt>
      <trkpt lat="45.228276690468192" lon="6.894299341365695">
        <ele>2031</ele>
        <time>2012-06-17T13:28:06Z</time>
      </trkpt>
      <trkpt lat="45.228408621624112" lon="6.894199512898922">
        <ele>2032.199951171875</ele>
        <time>2012-06-17T13:28:12Z</time>
      </trkpt>
      <trkpt lat="45.228594280779362" lon="6.894189454615116">
        <ele>2033.4000244140625</ele>
        <time>2012-06-17T13:28:17Z</time>
      </trkpt>
      <trkpt lat="45.228821849450469" lon="6.894307974725962">
        <ele>2033.4000244140625</ele>
        <time>2012-06-17T13:28:22Z</time>
      </trkpt>
      <trkpt lat="45.228996779769659" lon="6.894443677738309">
        <ele>2032.5999755859375</ele>
        <time>2012-06-17T13:28:26Z</time>
      </trkpt>
      <trkpt lat="45.229143630713224" lon="6.89459715038538">
        <ele>2031.199951171875</ele>
        <time>2012-06-17T13:28:30Z</time>
      </trkpt>
      <trkpt lat="45.229315375909209" lon="6.894848104566336">
        <ele>2030.199951171875</ele>
        <time>2012-06-17T13:28:35Z</time>
      </trkpt>
      <trkpt lat="45.229354184120893" lon="6.894890936091542">
        <ele>2030.199951171875</ele>
        <time>2012-06-17T13:28:36Z</time>
      </trkpt>
      <trkpt lat="45.229450240731239" lon="6.895003840327263">
        <ele>2030</ele>
        <time>2012-06-17T13:28:39Z</time>
      </trkpt>
      <trkpt lat="45.229498604312539" lon="6.895071901381016">
        <ele>2030.4000244140625</ele>
        <time>2012-06-17T13:28:41Z</time>
      </trkpt>
      <trkpt lat="45.229519894346595" lon="6.895110458135605">
        <ele>2030.5999755859375</ele>
        <time>2012-06-17T13:28:42Z</time>
      </trkpt>
      <trkpt lat="45.229661129415035" lon="6.89534330740571">
        <ele>2030.800048828125</ele>
        <time>2012-06-17T13:28:48Z</time>
      </trkpt>
      <trkpt lat="45.229858858510852" lon="6.895657042041421">
        <ele>2029.5999755859375</ele>
        <time>2012-06-17T13:28:54Z</time>
      </trkpt>
      <trkpt lat="45.230029597878456" lon="6.895893244072795">
        <ele>2027.800048828125</ele>
        <time>2012-06-17T13:29:00Z</time>
      </trkpt>
      <trkpt lat="45.230249287560582" lon="6.896179988980293">
        <ele>2027.199951171875</ele>
        <time>2012-06-17T13:29:08Z</time>
      </trkpt>
      <trkpt lat="45.230410220101476" lon="6.896376796066761">
        <ele>2026.4000244140625</ele>
        <time>2012-06-17T13:29:13Z</time>
      </trkpt>
      <trkpt lat="45.230704760178924" lon="6.896589361131191">
        <ele>2026.199951171875</ele>
        <time>2012-06-17T13:29:21Z</time>
      </trkpt>
      <trkpt lat="45.230927215889096" lon="6.896813912317157">
        <ele>2025</ele>
        <time>2012-06-17T13:29:28Z</time>
      </trkpt>
      <trkpt lat="45.231184791773558" lon="6.897064363583922">
        <ele>2024.199951171875</ele>
        <time>2012-06-17T13:29:35Z</time>
      </trkpt>
      <trkpt lat="45.231231227517128" lon="6.897123036906123">
        <ele>2024</ele>
        <time>2012-06-17T13:29:36Z</time>
      </trkpt>
      <trkpt lat="45.231366092339158" lon="6.897351359948516">
        <ele>2022.4000244140625</ele>
        <time>2012-06-17T13:29:39Z</time>
      </trkpt>
      <trkpt lat="45.231471871957183" lon="6.897514555603266">
        <ele>2021.4000244140625</ele>
        <time>2012-06-17T13:29:41Z</time>
      </trkpt>
      <trkpt lat="45.231902953237295" lon="6.89811771735549">
        <ele>2019.5999755859375</ele>
        <time>2012-06-17T13:29:48Z</time>
      </trkpt>
      <trkpt lat="45.231963805854321" lon="6.898211091756821">
        <ele>2019.199951171875</ele>
        <time>2012-06-17T13:29:49Z</time>
      </trkpt>
      <trkpt lat="45.2323102299124" lon="6.898790700361133">
        <ele>2017.199951171875</ele>
        <time>2012-06-17T13:29:56Z</time>
      </trkpt>
      <trkpt lat="45.232369741424918" lon="6.89889857545495">
        <ele>2016.800048828125</ele>
        <time>2012-06-17T13:29:58Z</time>
      </trkpt>
      <trkpt lat="45.232454231008887" lon="6.899039056152105">
        <ele>2016</ele>
        <time>2012-06-17T13:30:01Z</time>
      </trkpt>
      <trkpt lat="45.232478706166148" lon="6.8990842346102">
        <ele>2015.5999755859375</ele>
        <time>2012-06-17T13:30:02Z</time>
      </trkpt>
      <trkpt lat="45.23257602006197" lon="6.899286406114698">
        <ele>2015</ele>
        <time>2012-06-17T13:30:07Z</time>
      </trkpt>
      <trkpt lat="45.232580797746778" lon="6.89936812967062">
        <ele>2014.5999755859375</ele>
        <time>2012-06-17T13:30:09Z</time>
      </trkpt>
      <trkpt lat="45.232540480792522" lon="6.899430239573121">
        <ele>2014</ele>
        <time>2012-06-17T13:30:11Z</time>
      </trkpt>
      <trkpt lat="45.232506114989519" lon="6.899439878761768">
        <ele>2013.800048828125</ele>
        <time>2012-06-17T13:30:12Z</time>
      </trkpt>
      <trkpt lat="45.232374435290694" lon="6.899343822151423">
        <ele>2014.199951171875</ele>
        <time>2012-06-17T13:30:16Z</time>
      </trkpt>
      <trkpt lat="45.232189111411572" lon="6.899281209334731">
        <ele>2014.199951171875</ele>
        <time>2012-06-17T13:30:20Z</time>
      </trkpt>
      <trkpt lat="45.232086768373847" lon="6.89929923042655">
        <ele>2014</ele>
        <time>2012-06-17T13:30:22Z</time>
      </trkpt>
      <trkpt lat="45.232002614066005" lon="6.899340217933059">
        <ele>2014</ele>
        <time>2012-06-17T13:30:24Z</time>
      </trkpt>
      <trkpt lat="45.231936313211918" lon="6.899396209046245">
        <ele>2014.199951171875</ele>
        <time>2012-06-17T13:30:26Z</time>
      </trkpt>
      <trkpt lat="45.231917956843972" lon="6.89943409524858">
        <ele>2014.4000244140625</ele>
        <time>2012-06-17T13:30:27Z</time>
      </trkpt>
      <trkpt lat="45.231882501393557" lon="6.899523865431547">
        <ele>2014.5999755859375</ele>
        <time>2012-06-17T13:30:29Z</time>
      </trkpt>
      <trkpt lat="45.23185676895082" lon="6.899618916213512">
        <ele>2015</ele>
        <time>2012-06-17T13:30:31Z</time>
      </trkpt>
      <trkpt lat="45.231862217187881" lon="6.899765431880951">
        <ele>2015.5999755859375</ele>
        <time>2012-06-17T13:30:34Z</time>
      </trkpt>
      <trkpt lat="45.231960285454988" lon="6.900036502629519">
        <ele>2015.800048828125</ele>
        <time>2012-06-17T13:30:40Z</time>
      </trkpt>
      <trkpt lat="45.232103867456317" lon="6.90039181150496">
        <ele>2016.5999755859375</ele>
        <time>2012-06-17T13:30:48Z</time>
      </trkpt>
      <trkpt lat="45.232216436415911" lon="6.900710491463542">
        <ele>2017.199951171875</ele>
        <time>2012-06-17T13:30:55Z</time>
      </trkpt>
      <trkpt lat="45.232328753918409" lon="6.901042331010103">
        <ele>2018.199951171875</ele>
        <time>2012-06-17T13:31:03Z</time>
      </trkpt>
      <trkpt lat="45.232435371726751" lon="6.901362771168351">
        <ele>2019.4000244140625</ele>
        <time>2012-06-17T13:31:10Z</time>
      </trkpt>
      <trkpt lat="45.232549533247948" lon="6.901805754750967">
        <ele>2020.800048828125</ele>
        <time>2012-06-17T13:31:18Z</time>
      </trkpt>
      <trkpt lat="45.232695462182164" lon="6.902207499369979">
        <ele>2019.5999755859375</ele>
        <time>2012-06-17T13:31:26Z</time>
      </trkpt>
      <trkpt lat="45.232791602611542" lon="6.902537830173969">
        <ele>2019</ele>
        <time>2012-06-17T13:31:33Z</time>
      </trkpt>
      <trkpt lat="45.232869973406196" lon="6.902864137664437">
        <ele>2020.199951171875</ele>
        <time>2012-06-17T13:31:40Z</time>
      </trkpt>
      <trkpt lat="45.233050435781479" lon="6.903206035494804">
        <ele>2019</ele>
        <time>2012-06-17T13:31:48Z</time>
      </trkpt>
      <trkpt lat="45.233176834881306" lon="6.903516165912151">
        <ele>2019.199951171875</ele>
        <time>2012-06-17T13:31:55Z</time>
      </trkpt>
      <trkpt lat="45.233314717188478" lon="6.903908690437675">
        <ele>2019.800048828125</ele>
        <time>2012-06-17T13:32:04Z</time>
      </trkpt>
      <trkpt lat="45.233467854559422" lon="6.904288223013282">
        <ele>2017.800048828125</ele>
        <time>2012-06-17T13:32:13Z</time>
      </trkpt>
      <trkpt lat="45.233516050502658" lon="6.904594413936138">
        <ele>2018.4000244140625</ele>
        <time>2012-06-17T13:32:20Z</time>
      </trkpt>
      <trkpt lat="45.233499705791473" lon="6.904967995360494">
        <ele>2022</ele>
        <time>2012-06-17T13:32:28Z</time>
      </trkpt>
      <trkpt lat="45.233450839295983" lon="6.905340235680342">
        <ele>2026.199951171875</ele>
        <time>2012-06-17T13:32:36Z</time>
      </trkpt>
      <trkpt lat="45.233513116836548" lon="6.905727060511708">
        <ele>2027.4000244140625</ele>
        <time>2012-06-17T13:32:44Z</time>
      </trkpt>
      <trkpt lat="45.233694585040212" lon="6.906166691333056">
        <ele>2026.800048828125</ele>
        <time>2012-06-17T13:32:54Z</time>
      </trkpt>
      <trkpt lat="45.233835065737367" lon="6.906489059329033">
        <ele>2026.199951171875</ele>
        <time>2012-06-17T13:33:02Z</time>
      </trkpt>
      <trkpt lat="45.23391586728394" lon="6.906761303544045">
        <ele>2025.5999755859375</ele>
        <time>2012-06-17T13:33:09Z</time>
      </trkpt>
      <trkpt lat="45.233879908919334" lon="6.906982669606805">
        <ele>2026</ele>
        <time>2012-06-17T13:33:14Z</time>
      </trkpt>
      <trkpt lat="45.233781840652227" lon="6.907322807237506">
        <ele>2028</ele>
        <time>2012-06-17T13:33:22Z</time>
      </trkpt>
      <trkpt lat="45.233722412958741" lon="6.90775154158473">
        <ele>2027.5999755859375</ele>
        <time>2012-06-17T13:33:31Z</time>
      </trkpt>
      <trkpt lat="45.233717551454902" lon="6.908015990629792">
        <ele>2026.199951171875</ele>
        <time>2012-06-17T13:33:36Z</time>
      </trkpt>
      <trkpt lat="45.233644209802151" lon="6.908317906782031">
        <ele>2026.199951171875</ele>
        <time>2012-06-17T13:33:42Z</time>
      </trkpt>
      <trkpt lat="45.233516804873943" lon="6.90880011767149">
        <ele>2026.199951171875</ele>
        <time>2012-06-17T13:33:51Z</time>
      </trkpt>
      <trkpt lat="45.233346233144403" lon="6.909174621105194">
        <ele>2027.5999755859375</ele>
        <time>2012-06-17T13:33:59Z</time>
      </trkpt>
      <trkpt lat="45.23319368250668" lon="6.909621125087142">
        <ele>2027</ele>
        <time>2012-06-17T13:34:08Z</time>
      </trkpt>
      <trkpt lat="45.233034091070294" lon="6.910000406205654">
        <ele>2027.5999755859375</ele>
        <time>2012-06-17T13:34:16Z</time>
      </trkpt>
      <trkpt lat="45.232818424701691" lon="6.910305256024003">
        <ele>2030</ele>
        <time>2012-06-17T13:34:24Z</time>
      </trkpt>
      <trkpt lat="45.232640476897359" lon="6.910553527995944">
        <ele>2031.199951171875</ele>
        <time>2012-06-17T13:34:31Z</time>
      </trkpt>
      <trkpt lat="45.232462109997869" lon="6.910823844373226">
        <ele>2031.5999755859375</ele>
        <time>2012-06-17T13:34:39Z</time>
      </trkpt>
      <trkpt lat="45.232366640120745" lon="6.911015287041664">
        <ele>2033</ele>
        <time>2012-06-17T13:34:45Z</time>
      </trkpt>
      <trkpt lat="45.232259854674339" lon="6.911305719986558">
        <ele>2033.5999755859375</ele>
        <time>2012-06-17T13:34:52Z</time>
      </trkpt>
      <trkpt lat="45.232168408110738" lon="6.911635464057326">
        <ele>2033.199951171875</ele>
        <time>2012-06-17T13:35:00Z</time>
      </trkpt>
      <trkpt lat="45.23211526684463" lon="6.911949785426259">
        <ele>2032.4000244140625</ele>
        <time>2012-06-17T13:35:07Z</time>
      </trkpt>
      <trkpt lat="45.232054414227605" lon="6.912257988005877">
        <ele>2031.5999755859375</ele>
        <time>2012-06-17T13:35:15Z</time>
      </trkpt>
      <trkpt lat="45.231991298496723" lon="6.912430236116052">
        <ele>2031.800048828125</ele>
        <time>2012-06-17T13:35:21Z</time>
      </trkpt>
      <trkpt lat="45.231886608526111" lon="6.912616482004523">
        <ele>2033.4000244140625</ele>
        <time>2012-06-17T13:35:28Z</time>
      </trkpt>
      <trkpt lat="45.231838412582874" lon="6.912877410650253">
        <ele>2033.199951171875</ele>
        <time>2012-06-17T13:35:35Z</time>
      </trkpt>
      <trkpt lat="45.231779906898737" lon="6.913168346509337">
        <ele>2032.800048828125</ele>
        <time>2012-06-17T13:35:43Z</time>
      </trkpt>
      <trkpt lat="45.231686448678374" lon="6.913420474156737">
        <ele>2033.4000244140625</ele>
        <time>2012-06-17T13:35:50Z</time>
      </trkpt>
      <trkpt lat="45.231584692373872" lon="6.913745775818825">
        <ele>2035.199951171875</ele>
        <time>2012-06-17T13:35:58Z</time>
      </trkpt>
      <trkpt lat="45.231546219438314" lon="6.914085326716304">
        <ele>2035.4000244140625</ele>
        <time>2012-06-17T13:36:05Z</time>
      </trkpt>
      <trkpt lat="45.231590392068028" lon="6.914479862898588">
        <ele>2034.199951171875</ele>
        <time>2012-06-17T13:36:13Z</time>
      </trkpt>
      <trkpt lat="45.23162174038589" lon="6.914802230894566">
        <ele>2033.800048828125</ele>
        <time>2012-06-17T13:36:20Z</time>
      </trkpt>
      <trkpt lat="45.231634229421616" lon="6.915177069604397">
        <ele>2033</ele>
        <time>2012-06-17T13:36:29Z</time>
      </trkpt>
      <trkpt lat="45.231617046520114" lon="6.915432969108224">
        <ele>2032.199951171875</ele>
        <time>2012-06-17T13:36:35Z</time>
      </trkpt>
      <trkpt lat="45.231515960767865" lon="6.915661292150617">
        <ele>2033.4000244140625</ele>
        <time>2012-06-17T13:36:41Z</time>
      </trkpt>
      <trkpt lat="45.231362152844667" lon="6.915957173332572">
        <ele>2035.4000244140625</ele>
        <time>2012-06-17T13:36:49Z</time>
      </trkpt>
      <trkpt lat="45.231225611642003" lon="6.916324635967612">
        <ele>2036.4000244140625</ele>
        <time>2012-06-17T13:36:58Z</time>
      </trkpt>
      <trkpt lat="45.23112821392715" lon="6.916708275675774">
        <ele>2036.199951171875</ele>
        <time>2012-06-17T13:37:07Z</time>
      </trkpt>
      <trkpt lat="45.23098312318325" lon="6.916903574019671">
        <ele>2038.800048828125</ele>
        <time>2012-06-17T13:37:13Z</time>
      </trkpt>
      <trkpt lat="45.230713896453381" lon="6.917087892070413">
        <ele>2042.800048828125</ele>
        <time>2012-06-17T13:37:22Z</time>
      </trkpt>
      <trkpt lat="45.23047786206007" lon="6.917219236493111">
        <ele>2044.199951171875</ele>
        <time>2012-06-17T13:37:30Z</time>
      </trkpt>
      <trkpt lat="45.230230847373605" lon="6.917379917576909">
        <ele>2044</ele>
        <time>2012-06-17T13:37:38Z</time>
      </trkpt>
      <trkpt lat="45.229994058609009" lon="6.917542861774564">
        <ele>2042.5999755859375</ele>
        <time>2012-06-17T13:37:46Z</time>
      </trkpt>
      <trkpt lat="45.229785097762942" lon="6.917691556736827">
        <ele>2045.800048828125</ele>
        <time>2012-06-17T13:37:54Z</time>
      </trkpt>
      <trkpt lat="45.229562139138579" lon="6.917867911979556">
        <ele>2047.5999755859375</ele>
        <time>2012-06-17T13:38:03Z</time>
      </trkpt>
      <trkpt lat="45.229387292638421" lon="6.917995736002922">
        <ele>2048.199951171875</ele>
        <time>2012-06-17T13:38:10Z</time>
      </trkpt>
      <trkpt lat="45.229148827493191" lon="6.918186005204916">
        <ele>2047.4000244140625</ele>
        <time>2012-06-17T13:38:20Z</time>
      </trkpt>
      <trkpt lat="45.22896065376699" lon="6.918337047100067">
        <ele>2046.5999755859375</ele>
        <time>2012-06-17T13:38:28Z</time>
      </trkpt>
      <trkpt lat="45.228815143927932" lon="6.91844810731709">
        <ele>2047.199951171875</ele>
        <time>2012-06-17T13:38:35Z</time>
      </trkpt>
      <trkpt lat="45.228666365146637" lon="6.918647261336446">
        <ele>2046.5999755859375</ele>
        <time>2012-06-17T13:38:44Z</time>
      </trkpt>
      <trkpt lat="45.228440389037132" lon="6.918903160840273">
        <ele>2046.800048828125</ele>
        <time>2012-06-17T13:38:55Z</time>
      </trkpt>
      <trkpt lat="45.228262692689896" lon="6.918976083397865">
        <ele>2049.199951171875</ele>
        <time>2012-06-17T13:39:02Z</time>
      </trkpt>
      <trkpt lat="45.228048535063863" lon="6.919102147221565">
        <ele>2051.39990234375</ele>
        <time>2012-06-17T13:39:11Z</time>
      </trkpt>
      <trkpt lat="45.227982569485903" lon="6.919269617646933">
        <ele>2049.60009765625</ele>
        <time>2012-06-17T13:39:17Z</time>
      </trkpt>
      <trkpt lat="45.228003188967705" lon="6.919454857707024">
        <ele>2045.5999755859375</ele>
        <time>2012-06-17T13:39:23Z</time>
      </trkpt>
      <trkpt lat="45.227972092106938" lon="6.919678403064609">
        <ele>2041.5999755859375</ele>
        <time>2012-06-17T13:39:30Z</time>
      </trkpt>
      <trkpt lat="45.227875029668212" lon="6.919771609827876">
        <ele>2042</ele>
        <time>2012-06-17T13:39:35Z</time>
      </trkpt>
      <trkpt lat="45.227721892297268" lon="6.919803712517023">
        <ele>2044.5999755859375</ele>
        <time>2012-06-17T13:39:42Z</time>
      </trkpt>
      <trkpt lat="45.227534472942352" lon="6.919807149097323">
        <ele>2048.800048828125</ele>
        <time>2012-06-17T13:39:50Z</time>
      </trkpt>
      <trkpt lat="45.227322326973081" lon="6.919842939823866">
        <ele>2052</ele>
        <time>2012-06-17T13:39:59Z</time>
      </trkpt>
      <trkpt lat="45.227119736373425" lon="6.91986951045692">
        <ele>2055.199951171875</ele>
        <time>2012-06-17T13:40:08Z</time>
      </trkpt>
      <trkpt lat="45.226943297311664" lon="6.919872108846903">
        <ele>2058.39990234375</ele>
        <time>2012-06-17T13:40:16Z</time>
      </trkpt>
      <trkpt lat="45.226761745288968" lon="6.919918041676283">
        <ele>2060.800048828125</ele>
        <time>2012-06-17T13:40:24Z</time>
      </trkpt>
      <trkpt lat="45.226704999804497" lon="6.920066569000483">
        <ele>2060</ele>
        <time>2012-06-17T13:40:29Z</time>
      </trkpt>
      <trkpt lat="45.226768283173442" lon="6.920258598402143">
        <ele>2057.800048828125</ele>
        <time>2012-06-17T13:40:34Z</time>
      </trkpt>
      <trkpt lat="45.226874984800816" lon="6.920558838173747">
        <ele>2053.800048828125</ele>
        <time>2012-06-17T13:40:42Z</time>
      </trkpt>
      <trkpt lat="45.226801475510001" lon="6.920784059911966">
        <ele>2054.39990234375</ele>
        <time>2012-06-17T13:40:48Z</time>
      </trkpt>
      <trkpt lat="45.226618833839893" lon="6.921103494241834">
        <ele>2058</ele>
        <time>2012-06-17T13:40:57Z</time>
      </trkpt>
      <trkpt lat="45.226470977067947" lon="6.921338774263859">
        <ele>2060.39990234375</ele>
        <time>2012-06-17T13:41:04Z</time>
      </trkpt>
      <trkpt lat="45.226382799446583" lon="6.921584531664848">
        <ele>2062</ele>
        <time>2012-06-17T13:41:10Z</time>
      </trkpt>
      <trkpt lat="45.22637726739049" lon="6.921910420060158">
        <ele>2062</ele>
        <time>2012-06-17T13:41:17Z</time>
      </trkpt>
      <trkpt lat="45.226445076987147" lon="6.922171683982015">
        <ele>2060.199951171875</ele>
        <time>2012-06-17T13:41:23Z</time>
      </trkpt>
      <trkpt lat="45.226632328704" lon="6.92251936532557">
        <ele>2054.800048828125</ele>
        <time>2012-06-17T13:41:32Z</time>
      </trkpt>
      <trkpt lat="45.226651523262262" lon="6.922745257616043">
        <ele>2053</ele>
        <time>2012-06-17T13:41:37Z</time>
      </trkpt>
      <trkpt lat="45.226568710058928" lon="6.923019178211689">
        <ele>2053.199951171875</ele>
        <time>2012-06-17T13:41:43Z</time>
      </trkpt>
      <trkpt lat="45.226391851902008" lon="6.92332117818296">
        <ele>2055</ele>
        <time>2012-06-17T13:41:50Z</time>
      </trkpt>
      <trkpt lat="45.226297974586487" lon="6.923647904768586">
        <ele>2053.60009765625</ele>
        <time>2012-06-17T13:41:56Z</time>
      </trkpt>
      <trkpt lat="45.226252460852265" lon="6.924122320488095">
        <ele>2049.800048828125</ele>
        <time>2012-06-17T13:42:04Z</time>
      </trkpt>
      <trkpt lat="45.226230500265956" lon="6.924374280497432">
        <ele>2047.5999755859375</ele>
        <time>2012-06-17T13:42:08Z</time>
      </trkpt>
      <trkpt lat="45.226212730631232" lon="6.924507301300764">
        <ele>2046.4000244140625</ele>
        <time>2012-06-17T13:42:10Z</time>
      </trkpt>
      <trkpt lat="45.226208874955773" lon="6.924578547477722">
        <ele>2045.5999755859375</ele>
        <time>2012-06-17T13:42:11Z</time>
      </trkpt>
      <trkpt lat="45.226174090057611" lon="6.924867387861013">
        <ele>2042.800048828125</ele>
        <time>2012-06-17T13:42:15Z</time>
      </trkpt>
      <trkpt lat="45.226154308766127" lon="6.924931425601244">
        <ele>2042.4000244140625</ele>
        <time>2012-06-17T13:42:16Z</time>
      </trkpt>
      <trkpt lat="45.226023718714714" lon="6.925106691196561">
        <ele>2041.5999755859375</ele>
        <time>2012-06-17T13:42:20Z</time>
      </trkpt>
      <trkpt lat="45.225821631029248" lon="6.925183888524771">
        <ele>2043.4000244140625</ele>
        <time>2012-06-17T13:42:24Z</time>
      </trkpt>
      <trkpt lat="45.225764214992523" lon="6.925184391438961">
        <ele>2043.5999755859375</ele>
        <time>2012-06-17T13:42:25Z</time>
      </trkpt>
      <trkpt lat="45.225705709308386" lon="6.925179362297058">
        <ele>2043.5999755859375</ele>
        <time>2012-06-17T13:42:26Z</time>
      </trkpt>
      <trkpt lat="45.225511249154806" lon="6.925137704238296">
        <ele>2044.5999755859375</ele>
        <time>2012-06-17T13:42:29Z</time>
      </trkpt>
      <trkpt lat="45.225301198661327" lon="6.925128400325775">
        <ele>2045</ele>
        <time>2012-06-17T13:42:32Z</time>
      </trkpt>
      <trkpt lat="45.225227857008576" lon="6.925140554085374">
        <ele>2045</ele>
        <time>2012-06-17T13:42:33Z</time>
      </trkpt>
      <trkpt lat="45.224859304726124" lon="6.925127813592553">
        <ele>2045.5999755859375</ele>
        <time>2012-06-17T13:42:38Z</time>
      </trkpt>
      <trkpt lat="45.224780263379216" lon="6.925115995109081">
        <ele>2046</ele>
        <time>2012-06-17T13:42:39Z</time>
      </trkpt>
      <trkpt lat="45.224565854296088" lon="6.925126221030951">
        <ele>2046.199951171875</ele>
        <time>2012-06-17T13:42:42Z</time>
      </trkpt>
      <trkpt lat="45.224397713318467" lon="6.925256391987205">
        <ele>2044.4000244140625</ele>
        <time>2012-06-17T13:42:45Z</time>
      </trkpt>
      <trkpt lat="45.224350271746516" lon="6.925310371443629">
        <ele>2043.5999755859375</ele>
        <time>2012-06-17T13:42:46Z</time>
      </trkpt>
      <trkpt lat="45.224301740527153" lon="6.925358064472675">
        <ele>2043</ele>
        <time>2012-06-17T13:42:47Z</time>
      </trkpt>
      <trkpt lat="45.224155895411968" lon="6.925467364490032">
        <ele>2042</ele>
        <time>2012-06-17T13:42:50Z</time>
      </trkpt>
      <trkpt lat="45.224073668941855" lon="6.925541879609227">
        <ele>2043.5999755859375</ele>
        <time>2012-06-17T13:42:52Z</time>
      </trkpt>
      <trkpt lat="45.223971074447036" lon="6.925692418590188">
        <ele>2044.4000244140625</ele>
        <time>2012-06-17T13:42:55Z</time>
      </trkpt>
      <trkpt lat="45.223927907645702" lon="6.925907414406538">
        <ele>2042</ele>
        <time>2012-06-17T13:42:58Z</time>
      </trkpt>
      <trkpt lat="45.223953723907471" lon="6.926201283931732">
        <ele>2036.4000244140625</ele>
        <time>2012-06-17T13:43:01Z</time>
      </trkpt>
      <trkpt lat="45.223890021443367" lon="6.92652951925993">
        <ele>2032.800048828125</ele>
        <time>2012-06-17T13:43:04Z</time>
      </trkpt>
      <trkpt lat="45.223781727254391" lon="6.926848031580448">
        <ele>2031.199951171875</ele>
        <time>2012-06-17T13:43:07Z</time>
      </trkpt>
      <trkpt lat="45.223726909607649" lon="6.926936041563749">
        <ele>2031.4000244140625</ele>
        <time>2012-06-17T13:43:08Z</time>
      </trkpt>
      <trkpt lat="45.223603779450059" lon="6.927265785634518">
        <ele>2029.5999755859375</ele>
        <time>2012-06-17T13:43:11Z</time>
      </trkpt>
      <trkpt lat="45.223570168018341" lon="6.927392603829503">
        <ele>2028.5999755859375</ele>
        <time>2012-06-17T13:43:12Z</time>
      </trkpt>
      <trkpt lat="45.223530102521181" lon="6.927512967959046">
        <ele>2027.5999755859375</ele>
        <time>2012-06-17T13:43:13Z</time>
      </trkpt>
      <trkpt lat="45.22344259545207" lon="6.927749840542674">
        <ele>2027.4000244140625</ele>
        <time>2012-06-17T13:43:15Z</time>
      </trkpt>
      <trkpt lat="45.223412252962589" lon="6.928155859932303">
        <ele>2024.199951171875</ele>
        <time>2012-06-17T13:43:18Z</time>
      </trkpt>
      <trkpt lat="45.223396494984627" lon="6.928435061126947">
        <ele>2021.800048828125</ele>
        <time>2012-06-17T13:43:20Z</time>
      </trkpt>
      <trkpt lat="45.223374282941222" lon="6.928561460226774">
        <ele>2021</ele>
        <time>2012-06-17T13:43:21Z</time>
      </trkpt>
      <trkpt lat="45.223225001245737" lon="6.9291041046381">
        <ele>2019.800048828125</ele>
        <time>2012-06-17T13:43:26Z</time>
      </trkpt>
      <trkpt lat="45.223068175837398" lon="6.929750349372625">
        <ele>2018.4000244140625</ele>
        <time>2012-06-17T13:43:33Z</time>
      </trkpt>
      <trkpt lat="45.223026014864445" lon="6.929896026849747">
        <ele>2018.199951171875</ele>
        <time>2012-06-17T13:43:35Z</time>
      </trkpt>
      <trkpt lat="45.222936496138573" lon="6.930071962997317">
        <ele>2018.800048828125</ele>
        <time>2012-06-17T13:43:38Z</time>
      </trkpt>
      <trkpt lat="45.22290363907814" lon="6.930119572207332">
        <ele>2019.4000244140625</ele>
        <time>2012-06-17T13:43:39Z</time>
      </trkpt>
      <trkpt lat="45.222803894430399" lon="6.930275894701481">
        <ele>2020.5999755859375</ele>
        <time>2012-06-17T13:43:42Z</time>
      </trkpt>
      <trkpt lat="45.222764415666461" lon="6.930417884141207">
        <ele>2020.4000244140625</ele>
        <time>2012-06-17T13:43:44Z</time>
      </trkpt>
      <trkpt lat="45.222745640203357" lon="6.930653667077422">
        <ele>2018.800048828125</ele>
        <time>2012-06-17T13:43:47Z</time>
      </trkpt>
      <trkpt lat="45.222738180309534" lon="6.930819544941187">
        <ele>2017.4000244140625</ele>
        <time>2012-06-17T13:43:49Z</time>
      </trkpt>
      <trkpt lat="45.222709346562624" lon="6.930988524109125">
        <ele>2017.4000244140625</ele>
        <time>2012-06-17T13:43:51Z</time>
      </trkpt>
      <trkpt lat="45.222661234438419" lon="6.931161610409617">
        <ele>2018</ele>
        <time>2012-06-17T13:43:53Z</time>
      </trkpt>
      <trkpt lat="45.222652517259121" lon="6.931257247924805">
        <ele>2017.800048828125</ele>
        <time>2012-06-17T13:43:54Z</time>
      </trkpt>
      <trkpt lat="45.222684284672141" lon="6.931563522666693">
        <ele>2016</ele>
        <time>2012-06-17T13:43:57Z</time>
      </trkpt>
      <trkpt lat="45.222647739574313" lon="6.931890668347478">
        <ele>2014.4000244140625</ele>
        <time>2012-06-17T13:44:00Z</time>
      </trkpt>
      <trkpt lat="45.222498374059796" lon="6.932205408811569">
        <ele>2014.199951171875</ele>
        <time>2012-06-17T13:44:04Z</time>
      </trkpt>
      <trkpt lat="45.22243651561439" lon="6.93235544487834">
        <ele>2015.4000244140625</ele>
        <time>2012-06-17T13:44:06Z</time>
      </trkpt>
      <trkpt lat="45.222428552806377" lon="6.932522831484675">
        <ele>2013.800048828125</ele>
        <time>2012-06-17T13:44:08Z</time>
      </trkpt>
      <trkpt lat="45.222450764849782" lon="6.932679070159793">
        <ele>2011.4000244140625</ele>
        <time>2012-06-17T13:44:10Z</time>
      </trkpt>
      <trkpt lat="45.222476748749614" lon="6.932918205857277">
        <ele>2008</ele>
        <time>2012-06-17T13:44:13Z</time>
      </trkpt>
      <trkpt lat="45.222423356026411" lon="6.933144014328718">
        <ele>2007.800048828125</ele>
        <time>2012-06-17T13:44:16Z</time>
      </trkpt>
      <trkpt lat="45.222352361306548" lon="6.933266809210181">
        <ele>2009.4000244140625</ele>
        <time>2012-06-17T13:44:18Z</time>
      </trkpt>
      <trkpt lat="45.222321012988687" lon="6.933330008760095">
        <ele>2010</ele>
        <time>2012-06-17T13:44:19Z</time>
      </trkpt>
      <trkpt lat="45.222302237525582" lon="6.933398153632879">
        <ele>2011</ele>
        <time>2012-06-17T13:44:20Z</time>
      </trkpt>
      <trkpt lat="45.222368957474828" lon="6.93360535427928">
        <ele>2009.800048828125</ele>
        <time>2012-06-17T13:44:23Z</time>
      </trkpt>
      <trkpt lat="45.222537098452449" lon="6.933656735345721">
        <ele>2005.199951171875</ele>
        <time>2012-06-17T13:44:26Z</time>
      </trkpt>
      <trkpt lat="45.22257917560637" lon="6.933682048693299">
        <ele>2004.800048828125</ele>
        <time>2012-06-17T13:44:27Z</time>
      </trkpt>
      <trkpt lat="45.222653774544597" lon="6.933778943493962">
        <ele>2004.5999755859375</ele>
        <time>2012-06-17T13:44:29Z</time>
      </trkpt>
      <trkpt lat="45.222837338224053" lon="6.934157721698284">
        <ele>2004.199951171875</ele>
        <time>2012-06-17T13:44:36Z</time>
      </trkpt>
      <trkpt lat="45.222932640463114" lon="6.934432480484247">
        <ele>2005.800048828125</ele>
        <time>2012-06-17T13:44:41Z</time>
      </trkpt>
      <trkpt lat="45.222959127277136" lon="6.93448637612164">
        <ele>2006</ele>
        <time>2012-06-17T13:44:42Z</time>
      </trkpt>
      <trkpt lat="45.222987039014697" lon="6.934536835178733">
        <ele>2006</ele>
        <time>2012-06-17T13:44:43Z</time>
      </trkpt>
      <trkpt lat="45.223114192485809" lon="6.934779742732644">
        <ele>2006.4000244140625</ele>
        <time>2012-06-17T13:44:48Z</time>
      </trkpt>
      <trkpt lat="45.223249141126871" lon="6.935069588944316">
        <ele>2007.199951171875</ele>
        <time>2012-06-17T13:44:55Z</time>
      </trkpt>
      <trkpt lat="45.223374869674444" lon="6.935386257246137">
        <ele>2008.199951171875</ele>
        <time>2012-06-17T13:45:03Z</time>
      </trkpt>
      <trkpt lat="45.223434045910835" lon="6.935665290802717">
        <ele>2011.199951171875</ele>
        <time>2012-06-17T13:45:10Z</time>
      </trkpt>
      <trkpt lat="45.22341568954289" lon="6.935926303267479">
        <ele>2013.800048828125</ele>
        <time>2012-06-17T13:45:17Z</time>
      </trkpt>
      <trkpt lat="45.223302450031042" lon="6.936198966577649">
        <ele>2015.199951171875</ele>
        <time>2012-06-17T13:45:25Z</time>
      </trkpt>
      <trkpt lat="45.223258780315518" lon="6.936473557725549">
        <ele>2018.199951171875</ele>
        <time>2012-06-17T13:45:32Z</time>
      </trkpt>
      <trkpt lat="45.223234305158257" lon="6.936746388673782">
        <ele>2020.5999755859375</ele>
        <time>2012-06-17T13:45:39Z</time>
      </trkpt>
      <trkpt lat="45.223211841657758" lon="6.937032043933868">
        <ele>2023.199951171875</ele>
        <time>2012-06-17T13:45:46Z</time>
      </trkpt>
      <trkpt lat="45.223123580217361" lon="6.937283165752888">
        <ele>2026.199951171875</ele>
        <time>2012-06-17T13:45:53Z</time>
      </trkpt>
      <trkpt lat="45.223043784499168" lon="6.937488606199622">
        <ele>2028.4000244140625</ele>
        <time>2012-06-17T13:45:59Z</time>
      </trkpt>
      <trkpt lat="45.222984943538904" lon="6.937703769654036">
        <ele>2031.5999755859375</ele>
        <time>2012-06-17T13:46:05Z</time>
      </trkpt>
      <trkpt lat="45.222896933555603" lon="6.938033429905772">
        <ele>2035.4000244140625</ele>
        <time>2012-06-17T13:46:15Z</time>
      </trkpt>
      <trkpt lat="45.222846725955606" lon="6.938294274732471">
        <ele>2037.199951171875</ele>
        <time>2012-06-17T13:46:23Z</time>
      </trkpt>
      <trkpt lat="45.222840523347259" lon="6.938594514504075">
        <ele>2040</ele>
        <time>2012-06-17T13:46:31Z</time>
      </trkpt>
      <trkpt lat="45.222802134230733" lon="6.938751675188541">
        <ele>2040.5999755859375</ele>
        <time>2012-06-17T13:46:36Z</time>
      </trkpt>
      <trkpt lat="45.222753519192338" lon="6.939031882211566">
        <ele>2042</ele>
        <time>2012-06-17T13:46:44Z</time>
      </trkpt>
      <trkpt lat="45.222692582756281" lon="6.939349807798863">
        <ele>2042.5999755859375</ele>
        <time>2012-06-17T13:46:53Z</time>
      </trkpt>
      <trkpt lat="45.222681015729904" lon="6.939633870497346">
        <ele>2043.5999755859375</ele>
        <time>2012-06-17T13:47:01Z</time>
      </trkpt>
      <trkpt lat="45.222649248316884" lon="6.939977863803506">
        <ele>2044</ele>
        <time>2012-06-17T13:47:11Z</time>
      </trkpt>
      <trkpt lat="45.222624186426401" lon="6.940210377797484">
        <ele>2043.199951171875</ele>
        <time>2012-06-17T13:47:20Z</time>
      </trkpt>
      <trkpt lat="45.222592586651444" lon="6.940284557640553">
        <ele>2042</ele>
        <time>2012-06-17T13:47:27Z</time>
      </trkpt>
      <trkpt lat="45.222591077908874" lon="6.940340548753738">
        <ele>2042</ele>
        <time>2012-06-17T13:49:55Z</time>
      </trkpt>
      <trkpt lat="45.222598118707538" lon="6.94053802639246">
        <ele>2042.4000244140625</ele>
        <time>2012-06-17T13:49:59Z</time>
      </trkpt>
      <trkpt lat="45.222555287182331" lon="6.940859640017152">
        <ele>2040.5999755859375</ele>
        <time>2012-06-17T13:50:03Z</time>
      </trkpt>
      <trkpt lat="45.222482951357961" lon="6.941413097083569">
        <ele>2032.199951171875</ele>
        <time>2012-06-17T13:50:08Z</time>
      </trkpt>
      <trkpt lat="45.222470462322235" lon="6.94174787029624">
        <ele>2028.4000244140625</ele>
        <time>2012-06-17T13:50:11Z</time>
      </trkpt>
      <trkpt lat="45.222501223906875" lon="6.941863037645817">
        <ele>2027.199951171875</ele>
        <time>2012-06-17T13:50:12Z</time>
      </trkpt>
      <trkpt lat="45.222557717934251" lon="6.942095048725605">
        <ele>2026.800048828125</ele>
        <time>2012-06-17T13:50:14Z</time>
      </trkpt>
      <trkpt lat="45.222573895007372" lon="6.942340554669499">
        <ele>2024.800048828125</ele>
        <time>2012-06-17T13:50:16Z</time>
      </trkpt>
      <trkpt lat="45.222535422071815" lon="6.942707346752286">
        <ele>2019.4000244140625</ele>
        <time>2012-06-17T13:50:19Z</time>
      </trkpt>
      <trkpt lat="45.222524860873818" lon="6.942829051986337">
        <ele>2017.4000244140625</ele>
        <time>2012-06-17T13:50:20Z</time>
      </trkpt>
      <trkpt lat="45.222519161179662" lon="6.943486109375954">
        <ele>2006.5999755859375</ele>
        <time>2012-06-17T13:50:25Z</time>
      </trkpt>
      <trkpt lat="45.222545731812716" lon="6.944287335500121">
        <ele>1987.5999755859375</ele>
        <time>2012-06-17T13:50:31Z</time>
      </trkpt>
      <trkpt lat="45.222628209739923" lon="6.944754710420966">
        <ele>1980.199951171875</ele>
        <time>2012-06-17T13:50:35Z</time>
      </trkpt>
      <trkpt lat="45.222647152841091" lon="6.944831404834986">
        <ele>1979.199951171875</ele>
        <time>2012-06-17T13:50:36Z</time>
      </trkpt>
      <trkpt lat="45.222690403461456" lon="6.944929976016283">
        <ele>1978.199951171875</ele>
        <time>2012-06-17T13:50:38Z</time>
      </trkpt>
      <trkpt lat="45.222797356545925" lon="6.944960234686732">
        <ele>1980.4000244140625</ele>
        <time>2012-06-17T13:50:41Z</time>
      </trkpt>
      <trkpt lat="45.222821747884154" lon="6.9449532777071">
        <ele>1981</ele>
        <time>2012-06-17T13:50:42Z</time>
      </trkpt>
      <trkpt lat="45.222841277718544" lon="6.9449532777071">
        <ele>1981.5999755859375</ele>
        <time>2012-06-17T13:50:43Z</time>
      </trkpt>
      <trkpt lat="45.222866423428059" lon="6.944968029856682">
        <ele>1981.800048828125</ele>
        <time>2012-06-17T13:50:45Z</time>
      </trkpt>
      <trkpt lat="45.222854856401682" lon="6.945063918828964">
        <ele>1980</ele>
        <time>2012-06-17T13:50:48Z</time>
      </trkpt>
      <trkpt lat="45.222837254405022" lon="6.945285871624947">
        <ele>1976.5999755859375</ele>
        <time>2012-06-17T13:50:52Z</time>
      </trkpt>
      <trkpt lat="45.22289240732789" lon="6.945451414212585">
        <ele>1975.4000244140625</ele>
        <time>2012-06-17T13:50:55Z</time>
      </trkpt>
      <trkpt lat="45.223032971844077" lon="6.945549063384533">
        <ele>1977</ele>
        <time>2012-06-17T13:50:58Z</time>
      </trkpt>
      <trkpt lat="45.223094830289483" lon="6.945564234629273">
        <ele>1978</ele>
        <time>2012-06-17T13:50:59Z</time>
      </trkpt>
      <trkpt lat="45.22354569286108" lon="6.94564662873745">
        <ele>1981</ele>
        <time>2012-06-17T13:51:06Z</time>
      </trkpt>
      <trkpt lat="45.223917094990611" lon="6.945685939863324">
        <ele>1979.800048828125</ele>
        <time>2012-06-17T13:51:12Z</time>
      </trkpt>
      <trkpt lat="45.223974008113146" lon="6.945708068087697">
        <ele>1979.199951171875</ele>
        <time>2012-06-17T13:51:13Z</time>
      </trkpt>
      <trkpt lat="45.224123289808631" lon="6.945828851312399">
        <ele>1976.199951171875</ele>
        <time>2012-06-17T13:51:16Z</time>
      </trkpt>
      <trkpt lat="45.224177604541183" lon="6.946008056402206">
        <ele>1974.800048828125</ele>
        <time>2012-06-17T13:51:19Z</time>
      </trkpt>
      <trkpt lat="45.224321521818638" lon="6.946562435477972">
        <ele>1968.4000244140625</ele>
        <time>2012-06-17T13:51:29Z</time>
      </trkpt>
      <trkpt lat="45.224450267851353" lon="6.947041545063257">
        <ele>1963.4000244140625</ele>
        <time>2012-06-17T13:51:38Z</time>
      </trkpt>
      <trkpt lat="45.224603740498424" lon="6.947614531964064">
        <ele>1960.4000244140625</ele>
        <time>2012-06-17T13:51:49Z</time>
      </trkpt>
      <trkpt lat="45.224703317508101" lon="6.947973361238837">
        <ele>1959.4000244140625</ele>
        <time>2012-06-17T13:51:56Z</time>
      </trkpt>
      <trkpt lat="45.224852599203587" lon="6.948552886024118">
        <ele>1961</ele>
        <time>2012-06-17T13:52:07Z</time>
      </trkpt>
      <trkpt lat="45.225007245317101" lon="6.949204495176673">
        <ele>1965.5999755859375</ele>
        <time>2012-06-17T13:52:19Z</time>
      </trkpt>
      <trkpt lat="45.225091902539134" lon="6.949645467102528">
        <ele>1962.199951171875</ele>
        <time>2012-06-17T13:52:27Z</time>
      </trkpt>
      <trkpt lat="45.225171530619264" lon="6.950192386284471">
        <ele>1958.800048828125</ele>
        <time>2012-06-17T13:52:37Z</time>
      </trkpt>
      <trkpt lat="45.225219558924437" lon="6.950614750385284">
        <ele>1955.5999755859375</ele>
        <time>2012-06-17T13:52:45Z</time>
      </trkpt>
      <trkpt lat="45.225265910848975" lon="6.95109385997057">
        <ele>1954.199951171875</ele>
        <time>2012-06-17T13:52:54Z</time>
      </trkpt>
      <trkpt lat="45.225292816758156" lon="6.951587134972215">
        <ele>1954</ele>
        <time>2012-06-17T13:53:03Z</time>
      </trkpt>
      <trkpt lat="45.22530815564096" lon="6.952073117718101">
        <ele>1953.800048828125</ele>
        <time>2012-06-17T13:53:12Z</time>
      </trkpt>
      <trkpt lat="45.225297259166837" lon="6.952638477087021">
        <ele>1953.5999755859375</ele>
        <time>2012-06-17T13:53:22Z</time>
      </trkpt>
      <trkpt lat="45.225276807323098" lon="6.953207775950432">
        <ele>1954.4000244140625</ele>
        <time>2012-06-17T13:53:32Z</time>
      </trkpt>
      <trkpt lat="45.225253337994218" lon="6.953798197209835">
        <ele>1954.5999755859375</ele>
        <time>2012-06-17T13:53:43Z</time>
      </trkpt>
      <trkpt lat="45.225227102637291" lon="6.954305889084935">
        <ele>1954.800048828125</ele>
        <time>2012-06-17T13:53:52Z</time>
      </trkpt>
      <trkpt lat="45.225199609994888" lon="6.954929418861866">
        <ele>1956.800048828125</ele>
        <time>2012-06-17T13:54:03Z</time>
      </trkpt>
      <trkpt lat="45.22517915815115" lon="6.955487737432122">
        <ele>1956.4000244140625</ele>
        <time>2012-06-17T13:54:13Z</time>
      </trkpt>
      <trkpt lat="45.225172536447644" lon="6.956002470105887">
        <ele>1956.199951171875</ele>
        <time>2012-06-17T13:54:22Z</time>
      </trkpt>
      <trkpt lat="45.225149318575859" lon="6.956448135897517">
        <ele>1957.4000244140625</ele>
        <time>2012-06-17T13:54:30Z</time>
      </trkpt>
      <trkpt lat="45.225136745721102" lon="6.95690268650651">
        <ele>1958.199951171875</ele>
        <time>2012-06-17T13:54:38Z</time>
      </trkpt>
      <trkpt lat="45.225112857297063" lon="6.957433512434363">
        <ele>1959.4000244140625</ele>
        <time>2012-06-17T13:54:47Z</time>
      </trkpt>
      <trkpt lat="45.225092573091388" lon="6.958040613681078">
        <ele>1961.5999755859375</ele>
        <time>2012-06-17T13:54:57Z</time>
      </trkpt>
      <trkpt lat="45.225064074620605" lon="6.958584347739816">
        <ele>1964.4000244140625</ele>
        <time>2012-06-17T13:55:06Z</time>
      </trkpt>
      <trkpt lat="45.225044460967183" lon="6.959132188931108">
        <ele>1967.199951171875</ele>
        <time>2012-06-17T13:55:15Z</time>
      </trkpt>
      <trkpt lat="45.225014453753829" lon="6.959748677909374">
        <ele>1968.5999755859375</ele>
        <time>2012-06-17T13:55:25Z</time>
      </trkpt>
      <trkpt lat="45.224988553673029" lon="6.960296938195825">
        <ele>1969.4000244140625</ele>
        <time>2012-06-17T13:55:34Z</time>
      </trkpt>
      <trkpt lat="45.224973130971193" lon="6.960828015580773">
        <ele>1970.4000244140625</ele>
        <time>2012-06-17T13:55:43Z</time>
      </trkpt>
      <trkpt lat="45.224945973604918" lon="6.961388178169727">
        <ele>1972.5999755859375</ele>
        <time>2012-06-17T13:55:53Z</time>
      </trkpt>
      <trkpt lat="45.224992325529456" lon="6.961644999682903">
        <ele>1974.800048828125</ele>
        <time>2012-06-17T13:55:58Z</time>
      </trkpt>
      <trkpt lat="45.225149234756827" lon="6.961783552542329">
        <ele>1976.4000244140625</ele>
        <time>2012-06-17T13:56:03Z</time>
      </trkpt>
      <trkpt lat="45.225345622748137" lon="6.961839376017451">
        <ele>1977.800048828125</ele>
        <time>2012-06-17T13:56:08Z</time>
      </trkpt>
      <trkpt lat="45.225471602752805" lon="6.961785312741995">
        <ele>1978.4000244140625</ele>
        <time>2012-06-17T13:56:12Z</time>
      </trkpt>
      <trkpt lat="45.225647119805217" lon="6.961720520630479">
        <ele>1979.199951171875</ele>
        <time>2012-06-17T13:56:18Z</time>
      </trkpt>
      <trkpt lat="45.225831856951118" lon="6.961730243638158">
        <ele>1980.199951171875</ele>
        <time>2012-06-17T13:56:24Z</time>
      </trkpt>
      <trkpt lat="45.225970325991511" lon="6.96181146427989">
        <ele>1982.4000244140625</ele>
        <time>2012-06-17T13:56:29Z</time>
      </trkpt>
      <trkpt lat="45.226093959063292" lon="6.961883632466197">
        <ele>1984.4000244140625</ele>
        <time>2012-06-17T13:56:35Z</time>
      </trkpt>
      <trkpt lat="45.226154895499349" lon="6.961948173120618">
        <ele>1985.5999755859375</ele>
        <time>2012-06-17T13:56:41Z</time>
      </trkpt>
      <trkpt lat="45.226150369271636" lon="6.961973486468196">
        <ele>1985.5999755859375</ele>
        <time>2012-06-17T13:56:46Z</time>
      </trkpt>
      <trkpt lat="45.226167384535074" lon="6.962028136476874">
        <ele>1986.199951171875</ele>
        <time>2012-06-17T13:57:11Z</time>
      </trkpt>
      <trkpt lat="45.226244078949094" lon="6.962114805355668">
        <ele>1987.800048828125</ele>
        <time>2012-06-17T13:57:21Z</time>
      </trkpt>
      <trkpt lat="45.226278444752097" lon="6.96218672208488">
        <ele>1988.800048828125</ele>
        <time>2012-06-17T13:57:28Z</time>
      </trkpt>
      <trkpt lat="45.226301914080977" lon="6.96228688582778">
        <ele>1989.800048828125</ele>
        <time>2012-06-17T13:57:37Z</time>
      </trkpt>
      <trkpt lat="45.226305518299341" lon="6.962391827255487">
        <ele>1990.5999755859375</ele>
        <time>2012-06-17T13:57:46Z</time>
      </trkpt>
      <trkpt lat="45.226288922131062" lon="6.962523842230439">
        <ele>1991.4000244140625</ele>
        <time>2012-06-17T13:57:57Z</time>
      </trkpt>
      <trkpt lat="45.226283809170127" lon="6.962563404813409">
        <ele>1991.800048828125</ele>
        <time>2012-06-17T13:58:03Z</time>
      </trkpt>
      <trkpt lat="45.22628297097981" lon="6.962548233568668">
        <ele>1991.5999755859375</ele>
        <time>2012-06-17T13:58:23Z</time>
      </trkpt>
      <trkpt lat="45.226287748664618" lon="6.962612941861153">
        <ele>1992.4000244140625</ele>
        <time>2012-06-17T13:58:34Z</time>
      </trkpt>
      <trkpt lat="45.226305518299341" lon="6.962756691500545">
        <ele>1994.199951171875</ele>
        <time>2012-06-17T13:58:45Z</time>
      </trkpt>
      <trkpt lat="45.226315576583147" lon="6.962892143055797">
        <ele>1996</ele>
        <time>2012-06-17T13:58:55Z</time>
      </trkpt>
      <trkpt lat="45.226328819990158" lon="6.963016949594021">
        <ele>1997.5999755859375</ele>
        <time>2012-06-17T13:59:05Z</time>
      </trkpt>
      <trkpt lat="45.226377099752426" lon="6.963111916556954">
        <ele>1999.800048828125</ele>
        <time>2012-06-17T13:59:14Z</time>
      </trkpt>
      <trkpt lat="45.22642420604825" lon="6.963221887126565">
        <ele>2002.199951171875</ele>
        <time>2012-06-17T13:59:24Z</time>
      </trkpt>
      <trkpt lat="45.22647793404758" lon="6.963318362832069">
        <ele>2004.5999755859375</ele>
        <time>2012-06-17T13:59:34Z</time>
      </trkpt>
      <trkpt lat="45.226486148312688" lon="6.963352225720882">
        <ele>2005.199951171875</ele>
        <time>2012-06-17T13:59:40Z</time>
      </trkpt>
      <trkpt lat="45.226470557972789" lon="6.963390531018376">
        <ele>2005.199951171875</ele>
        <time>2012-06-17T14:00:02Z</time>
      </trkpt>
      <trkpt lat="45.226451614871621" lon="6.963559342548251">
        <ele>2007</ele>
        <time>2012-06-17T14:00:10Z</time>
      </trkpt>
      <trkpt lat="45.226407274603844" lon="6.963684484362602">
        <ele>2007.5999755859375</ele>
        <time>2012-06-17T14:00:17Z</time>
      </trkpt>
      <trkpt lat="45.226362850517035" lon="6.963864611461759">
        <ele>2008.800048828125</ele>
        <time>2012-06-17T14:00:26Z</time>
      </trkpt>
      <trkpt lat="45.226311637088656" lon="6.964058484882116">
        <ele>2009.800048828125</ele>
        <time>2012-06-17T14:00:36Z</time>
      </trkpt>
      <trkpt lat="45.22626830264926" lon="6.964232241734862">
        <ele>2011</ele>
        <time>2012-06-17T14:00:45Z</time>
      </trkpt>
      <trkpt lat="45.226213317364454" lon="6.96438211016357">
        <ele>2011.5999755859375</ele>
        <time>2012-06-17T14:00:54Z</time>
      </trkpt>
      <trkpt lat="45.226174090057611" lon="6.964560812339187">
        <ele>2013.199951171875</ele>
        <time>2012-06-17T14:01:04Z</time>
      </trkpt>
      <trkpt lat="45.226177275180817" lon="6.964610181748867">
        <ele>2014</ele>
        <time>2012-06-17T14:01:07Z</time>
      </trkpt>
      <trkpt lat="45.226203007623553" lon="6.964652510359883">
        <ele>2015.4000244140625</ele>
        <time>2012-06-17T14:01:10Z</time>
      </trkpt>
      <trkpt lat="45.226216167211533" lon="6.964654438197613">
        <ele>2015.800048828125</ele>
        <time>2012-06-17T14:01:11Z</time>
      </trkpt>
      <trkpt lat="45.226278528571129" lon="6.964635495096445">
        <ele>2017.4000244140625</ele>
        <time>2012-06-17T14:01:15Z</time>
      </trkpt>
      <trkpt lat="45.226338459178805" lon="6.964569194242358">
        <ele>2018.199951171875</ele>
        <time>2012-06-17T14:01:21Z</time>
      </trkpt>
      <trkpt lat="45.226397719234228" lon="6.964456792920828">
        <ele>2018.199951171875</ele>
        <time>2012-06-17T14:01:28Z</time>
      </trkpt>
      <trkpt lat="45.226493356749415" lon="6.964329052716494">
        <ele>2018.800048828125</ele>
        <time>2012-06-17T14:01:37Z</time>
      </trkpt>
      <trkpt lat="45.226611541584134" lon="6.964224362745881">
        <ele>2020.4000244140625</ele>
        <time>2012-06-17T14:01:46Z</time>
      </trkpt>
      <trkpt lat="45.226714722812176" lon="6.964144147932529">
        <ele>2021.4000244140625</ele>
        <time>2012-06-17T14:01:54Z</time>
      </trkpt>
      <trkpt lat="45.226831650361419" lon="6.96404105052352">
        <ele>2022</ele>
        <time>2012-06-17T14:02:03Z</time>
      </trkpt>
      <trkpt lat="45.22696609608829" lon="6.963978102430701">
        <ele>2023.199951171875</ele>
        <time>2012-06-17T14:02:12Z</time>
      </trkpt>
      <trkpt lat="45.227084951475263" lon="6.963950525969267">
        <ele>2024.800048828125</ele>
        <time>2012-06-17T14:02:20Z</time>
      </trkpt>
      <trkpt lat="45.227168519049883" lon="6.963898641988635">
        <ele>2025.4000244140625</ele>
        <time>2012-06-17T14:02:26Z</time>
      </trkpt>
      <trkpt lat="45.227260971441865" lon="6.963886404410005">
        <ele>2026.800048828125</ele>
        <time>2012-06-17T14:02:31Z</time>
      </trkpt>
      <trkpt lat="45.227415030822158" lon="6.963840890675783">
        <ele>2028.5999755859375</ele>
        <time>2012-06-17T14:02:40Z</time>
      </trkpt>
      <trkpt lat="45.227583758533001" lon="6.963780457153916">
        <ele>2032.199951171875</ele>
        <time>2012-06-17T14:02:50Z</time>
      </trkpt>
      <trkpt lat="45.227689035236835" lon="6.963758748024702">
        <ele>2035.800048828125</ele>
        <time>2012-06-17T14:02:57Z</time>
      </trkpt>
      <trkpt lat="45.227712923660874" lon="6.963749779388309">
        <ele>2036.5999755859375</ele>
        <time>2012-06-17T14:02:59Z</time>
      </trkpt>
      <trkpt lat="45.227800598368049" lon="6.96374299004674">
        <ele>2039.800048828125</ele>
        <time>2012-06-17T14:03:04Z</time>
      </trkpt>
      <trkpt lat="45.2279516402632" lon="6.963596390560269">
        <ele>2042.5999755859375</ele>
        <time>2012-06-17T14:03:10Z</time>
      </trkpt>
      <trkpt lat="45.228139059618115" lon="6.963316686451435">
        <ele>2043.800048828125</ele>
        <time>2012-06-17T14:03:17Z</time>
      </trkpt>
      <trkpt lat="45.228260681033134" lon="6.963035892695189">
        <ele>2040.800048828125</ele>
        <time>2012-06-17T14:03:23Z</time>
      </trkpt>
      <trkpt lat="45.228382302448153" lon="6.962727522477508">
        <ele>2038.4000244140625</ele>
        <time>2012-06-17T14:03:31Z</time>
      </trkpt>
      <trkpt lat="45.228510880842805" lon="6.962452428415418">
        <ele>2040.4000244140625</ele>
        <time>2012-06-17T14:03:39Z</time>
      </trkpt>
      <trkpt lat="45.228708107024431" lon="6.962052024900913">
        <ele>2043.4000244140625</ele>
        <time>2012-06-17T14:03:51Z</time>
      </trkpt>
      <trkpt lat="45.228884210810065" lon="6.961715742945671">
        <ele>2044.800048828125</ele>
        <time>2012-06-17T14:04:02Z</time>
      </trkpt>
      <trkpt lat="45.229023769497871" lon="6.961424304172397">
        <ele>2045.5999755859375</ele>
        <time>2012-06-17T14:04:11Z</time>
      </trkpt>
      <trkpt lat="45.229126196354628" lon="6.961191706359386">
        <ele>2045.4000244140625</ele>
        <time>2012-06-17T14:04:19Z</time>
      </trkpt>
      <trkpt lat="45.229214793071151" lon="6.960963131859899">
        <ele>2044.4000244140625</ele>
        <time>2012-06-17T14:04:28Z</time>
      </trkpt>
      <trkpt lat="45.229302300140262" lon="6.960779316723347">
        <ele>2044.199951171875</ele>
        <time>2012-06-17T14:04:36Z</time>
      </trkpt>
      <trkpt lat="45.229411097243428" lon="6.960570104420185">
        <ele>2044</ele>
        <time>2012-06-17T14:04:45Z</time>
      </trkpt>
      <trkpt lat="45.22955434396863" lon="6.960327113047242">
        <ele>2044.4000244140625</ele>
        <time>2012-06-17T14:04:56Z</time>
      </trkpt>
      <trkpt lat="45.229679485782981" lon="6.960127120837569">
        <ele>2045</ele>
        <time>2012-06-17T14:05:05Z</time>
      </trkpt>
      <trkpt lat="45.229800855740905" lon="6.959907514974475">
        <ele>2045.4000244140625</ele>
        <time>2012-06-17T14:05:15Z</time>
      </trkpt>
      <trkpt lat="45.229925075545907" lon="6.959648095071316">
        <ele>2045.199951171875</ele>
        <time>2012-06-17T14:05:26Z</time>
      </trkpt>
      <trkpt lat="45.230083744972944" lon="6.959370151162148">
        <ele>2044.4000244140625</ele>
        <time>2012-06-17T14:05:38Z</time>
      </trkpt>
      <trkpt lat="45.23028046824038" lon="6.959167057648301">
        <ele>2045</ele>
        <time>2012-06-17T14:05:50Z</time>
      </trkpt>
      <trkpt lat="45.230477945879102" lon="6.959025152027607">
        <ele>2047.5999755859375</ele>
        <time>2012-06-17T14:06:01Z</time>
      </trkpt>
      <trkpt lat="45.230667879804969" lon="6.95889481343329">
        <ele>2050.800048828125</ele>
        <time>2012-06-17T14:06:12Z</time>
      </trkpt>
      <trkpt lat="45.23086778819561" lon="6.958791967481375">
        <ele>2055.199951171875</ele>
        <time>2012-06-17T14:06:23Z</time>
      </trkpt>
      <trkpt lat="45.231031151488423" lon="6.958707813173533">
        <ele>2057.39990234375</ele>
        <time>2012-06-17T14:06:32Z</time>
      </trkpt>
      <trkpt lat="45.231230556964874" lon="6.958598177880049">
        <ele>2060</ele>
        <time>2012-06-17T14:06:43Z</time>
      </trkpt>
      <trkpt lat="45.231410264968872" lon="6.958518382161856">
        <ele>2062.800048828125</ele>
        <time>2012-06-17T14:06:52Z</time>
      </trkpt>
      <trkpt lat="45.231594331562519" lon="6.958433641120791">
        <ele>2066</ele>
        <time>2012-06-17T14:07:01Z</time>
      </trkpt>
      <trkpt lat="45.231789210811257" lon="6.958228033035994">
        <ele>2066.39990234375</ele>
        <time>2012-06-17T14:07:13Z</time>
      </trkpt>
      <trkpt lat="45.231939749792218" lon="6.958031058311462">
        <ele>2065.60009765625</ele>
        <time>2012-06-17T14:07:23Z</time>
      </trkpt>
      <trkpt lat="45.232086684554815" lon="6.957850847393274">
        <ele>2065.39990234375</ele>
        <time>2012-06-17T14:07:31Z</time>
      </trkpt>
      <trkpt lat="45.232264716178179" lon="6.957679186016321">
        <ele>2066.60009765625</ele>
        <time>2012-06-17T14:07:41Z</time>
      </trkpt>
      <trkpt lat="45.232439897954464" lon="6.957554882392287">
        <ele>2069.199951171875</ele>
        <time>2012-06-17T14:07:51Z</time>
      </trkpt>
      <trkpt lat="45.232661347836256" lon="6.957424795255065">
        <ele>2072</ele>
        <time>2012-06-17T14:08:03Z</time>
      </trkpt>
      <trkpt lat="45.23286335170269" lon="6.957314573228359">
        <ele>2074.39990234375</ele>
        <time>2012-06-17T14:08:14Z</time>
      </trkpt>
      <trkpt lat="45.233088657259941" lon="6.957183983176947">
        <ele>2077</ele>
        <time>2012-06-17T14:08:26Z</time>
      </trkpt>
      <trkpt lat="45.233274064958096" lon="6.957061607390642">
        <ele>2079.199951171875</ele>
        <time>2012-06-17T14:08:36Z</time>
      </trkpt>
      <trkpt lat="45.233476990833879" lon="6.956919366493821">
        <ele>2080.800048828125</ele>
        <time>2012-06-17T14:08:47Z</time>
      </trkpt>
      <trkpt lat="45.233668182045221" lon="6.956791542470455">
        <ele>2082.60009765625</ele>
        <time>2012-06-17T14:08:57Z</time>
      </trkpt>
      <trkpt lat="45.233877645805478" lon="6.956656007096171">
        <ele>2084.60009765625</ele>
        <time>2012-06-17T14:09:08Z</time>
      </trkpt>
      <trkpt lat="45.234091216698289" lon="6.956536648795009">
        <ele>2087.199951171875</ele>
        <time>2012-06-17T14:09:19Z</time>
      </trkpt>
      <trkpt lat="45.234324317425489" lon="6.956393569707871">
        <ele>2089.60009765625</ele>
        <time>2012-06-17T14:09:31Z</time>
      </trkpt>
      <trkpt lat="45.234587341547012" lon="6.956245042383671">
        <ele>2092.39990234375</ele>
        <time>2012-06-17T14:09:44Z</time>
      </trkpt>
      <trkpt lat="45.234827063977718" lon="6.956106489524245">
        <ele>2095.39990234375</ele>
        <time>2012-06-17T14:09:56Z</time>
      </trkpt>
      <trkpt lat="45.235064690932631" lon="6.955945640802383">
        <ele>2097.60009765625</ele>
        <time>2012-06-17T14:10:08Z</time>
      </trkpt>
      <trkpt lat="45.235241632908583" lon="6.955747157335281">
        <ele>2095.39990234375</ele>
        <time>2012-06-17T14:10:17Z</time>
      </trkpt>
      <trkpt lat="45.235493341460824" lon="6.955435182899237">
        <ele>2091</ele>
        <time>2012-06-17T14:10:26Z</time>
      </trkpt>
      <trkpt lat="45.235723843798041" lon="6.955312723293901">
        <ele>2092.60009765625</ele>
        <time>2012-06-17T14:10:32Z</time>
      </trkpt>
      <trkpt lat="45.236031543463469" lon="6.955203507095575">
        <ele>2095.60009765625</ele>
        <time>2012-06-17T14:10:39Z</time>
      </trkpt>
      <trkpt lat="45.236072950065136" lon="6.955178193747997">
        <ele>2095.800048828125</ele>
        <time>2012-06-17T14:10:40Z</time>
      </trkpt>
      <trkpt lat="45.23633848875761" lon="6.954927071928978">
        <ele>2095</ele>
        <time>2012-06-17T14:10:47Z</time>
      </trkpt>
      <trkpt lat="45.236713327467442" lon="6.954535385593772">
        <ele>2094.800048828125</ele>
        <time>2012-06-17T14:10:57Z</time>
      </trkpt>
      <trkpt lat="45.237081293016672" lon="6.954261800274253">
        <ele>2094.800048828125</ele>
        <time>2012-06-17T14:11:06Z</time>
      </trkpt>
      <trkpt lat="45.237552104517817" lon="6.953993830829859">
        <ele>2096</ele>
        <time>2012-06-17T14:11:17Z</time>
      </trkpt>
      <trkpt lat="45.237925602123141" lon="6.953745894134045">
        <ele>2095.199951171875</ele>
        <time>2012-06-17T14:11:26Z</time>
      </trkpt>
      <trkpt lat="45.237961476668715" lon="6.953704990446568">
        <ele>2094.800048828125</ele>
        <time>2012-06-17T14:11:27Z</time>
      </trkpt>
      <trkpt lat="45.238173203542829" lon="6.953424280509353">
        <ele>2091.800048828125</ele>
        <time>2012-06-17T14:11:33Z</time>
      </trkpt>
      <trkpt lat="45.238215951249003" lon="6.953386981040239">
        <ele>2091.60009765625</ele>
        <time>2012-06-17T14:11:34Z</time>
      </trkpt>
      <trkpt lat="45.23844737559557" lon="6.953303245827556">
        <ele>2092.60009765625</ele>
        <time>2012-06-17T14:11:39Z</time>
      </trkpt>
      <trkpt lat="45.238543264567852" lon="6.953306598588824">
        <ele>2093.60009765625</ele>
        <time>2012-06-17T14:11:41Z</time>
      </trkpt>
      <trkpt lat="45.238779969513416" lon="6.953320512548089">
        <ele>2096</ele>
        <time>2012-06-17T14:11:46Z</time>
      </trkpt>
      <trkpt lat="45.238824645057321" lon="6.953298300504684">
        <ele>2096.199951171875</ele>
        <time>2012-06-17T14:11:47Z</time>
      </trkpt>
      <trkpt lat="45.238968897610903" lon="6.953107947483659">
        <ele>2095</ele>
        <time>2012-06-17T14:11:51Z</time>
      </trkpt>
      <trkpt lat="45.239012399688363" lon="6.953035527840257">
        <ele>2094.60009765625</ele>
        <time>2012-06-17T14:11:53Z</time>
      </trkpt>
      <trkpt lat="45.23901860229671" lon="6.953027229756117">
        <ele>2094.60009765625</ele>
        <time>2012-06-17T14:11:54Z</time>
      </trkpt>
      <trkpt lat="45.239008627831936" lon="6.953041478991509">
        <ele>2094.60009765625</ele>
        <time>2012-06-17T14:11:58Z</time>
      </trkpt>
    </trkseg>
  </trk>

</gpx>
